[[[{"header":{"parameterUnit":"kt","parameterCategory":2,"dx":1,"dy":1,"la1":29.285339999999998,"la2":30.599998999999997,"lo1":-89.70041500000002,"lo2":-87.6738589999976,"nx":112,"ny":82,"refTime":"2022-10-04T00:00:00:Z","depth":0,"parameterNumber":1,"parameterNumberName":"U-component_of_WINDS"},"data":[-5.5487,-5.5749,0.0,-4.7685,-4.6293,0.0,-4.0064,0.0,0.0,0.0,0.0,0.0,0.0,0.0,0.0,0.0,0.0,0.0,0.0,-2.1849,0.0,0.0,0.0,0.0,0.0,0.0,0.0,0.0,0.0,0.0,0.0,0.0,-3.3397,-3.3105,-3.3096,-3.282,-3.2228,-3.1372,-3.0886,-3.0935,-2.8849,-2.8023,-2.8277,-2.6172,-2.5055,-2.4724,-2.2787,-2.2042,-2.2045,-2.0332,-1.9709,-1.981,-2.0019,-1.8919,-1.769,-2.176,-2.2822,-2.1621,-1.8604,-1.5633,-1.2827,-1.0157,-1.1178,-1.3205,-1.1831,-1.1674,-1.2363,-1.3511,-1.2012,-1.0515,-1.2,-1.2775,-1.2724,-1.1592,-1.1055,-1.0689,-1.0538,-0.8101,-0.6956,-0.9808,-0.9004,-0.7368,-0.5689,-0.536,-0.9881,-2.3311,-2.6392,-2.7128,-2.7128,-2.8942,-2.6587,-1.7158,-1.6835,-0.9746,0.8898,1.7437,2.5778,3.5087,3.4309,3.7627,4.6764,4.2068,4.3384,5.2213,5.3028,5.3343,5.3299,5.4214,5.6225,5.9133,5.9371,5.8325,0.0,0.0,-5.3853,-4.5832,0.0,0.0,0.0,0.0,0.0,0.0,0.0,0.0,0.0,0.0,0.0,0.0,0.0,0.0,0.0,0.0,0.0,0.0,0.0,0.0,0.0,0.0,0.0,0.0,0.0,0.0,0.0,-3.3959,-3.3959,-3.3807,-3.3794,-3.3659,-3.3253,-3.2264,-3.1817,-3.1915,-3.0495,-3.0025,-3.0323,-2.8719,-2.7936,-2.7601,-2.5762,-2.4903,-2.4889,-2.3323,-2.2719,-2.279,-2.3633,-2.2578,-2.1003,-2.4721,-2.5567,-2.4733,-2.4548,-2.2414,-1.9406,-1.4953,-1.6123,-1.9299,-1.9866,-1.8418,-1.6671,-1.8455,-1.7938,-1.7117,-1.815,-1.9553,-2.0438,-1.9473,-1.9632,-1.9817,-1.9263,-1.7952,-1.7743,-2.0113,-2.0518,-1.9732,-1.8018,-1.8169,-2.2859,-3.5782,-3.7772,-3.7918,-3.7918,-3.9602,-3.7144,-2.7441,-2.6688,-2.2957,-1.3288,-0.0293,1.1182,2.0164,2.1419,2.543,3.365,2.9739,3.1392,3.9739,4.1063,4.1364,4.0816,4.4248,4.7526,5.0511,4.6041,4.4927,0.0,0.0,0.0,-4.1745,0.0,0.0,0.0,0.0,-3.7835,0.0,0.0,0.0,0.0,0.0,0.0,0.0,0.0,0.0,0.0,0.0,0.0,0.0,0.0,0.0,0.0,0.0,0.0,0.0,0.0,0.0,-3.3871,-3.413,-3.3978,-3.3539,-3.4303,-3.4202,-3.3038,-3.3736,-3.3736,-3.2867,-3.1477,-3.0777,-3.0794,-2.993,-2.9158,-2.8599,-2.9218,-2.8971,-2.8129,-2.8153,-2.7975,-2.7866,-2.7895,-2.7108,-2.6292,-2.8126,-2.7715,-2.6246,-2.5338,-2.5184,-2.5145,-2.4288,-2.4362,-2.508,-2.7342,-2.5298,-2.2543,-2.438,-2.4355,-2.4036,-2.4251,-2.5477,-2.6172,-2.3852,-2.5159,-2.6378,-2.476,-2.6123,-2.8437,-3.08,-3.3083,-3.4714,-3.4854,-3.5956,-3.6889,-3.6889,-3.7165,-3.7337,-3.73,-4.0057,-4.2021,-4.2002,-4.0613,-3.9711,-3.9711,-2.02,0.0549,2.0512,2.7481,2.9689,2.7114,2.9663,3.1366,3.1779,3.3494,3.4373,3.4373,4.1837,4.4721,4.3,3.0113,2.9397,-4.7883,0.0,0.0,0.0,0.0,0.0,0.0,0.0,0.0,0.0,0.0,0.0,0.0,0.0,0.0,0.0,0.0,0.0,0.0,0.0,0.0,0.0,0.0,0.0,0.0,0.0,0.0,0.0,0.0,0.0,-3.5493,-3.5625,-3.6013,-3.7032,-3.6394,-3.6639,-3.7811,-3.5956,-3.4738,-3.4418,-3.4,-3.3351,-3.2309,-3.3145,-3.2839,-3.163,-3.1317,-3.0967,-3.0573,-2.9386,-2.8664,-2.8348,-2.9312,-2.9965,-3.0646,-3.2106,-3.1232,-2.9237,-2.9096,-2.9204,-2.944,-2.8578,-2.7883,-2.7686,-2.9316,-2.872,-2.7583,-2.8025,-2.8421,-2.8799,-2.9564,-3.0956,-3.2042,-3.2073,-3.3423,-3.4682,-3.4167,-3.438,-3.5058,-3.6919,-3.7514,-3.822,-3.9356,-4.233,-4.4592,-4.4592,-4.2881,-4.1556,-4.123,-3.727,-3.4361,-3.4082,-3.0643,-2.8323,-2.8323,-2.0833,-1.263,-0.4675,-0.3607,0.0876,1.0192,0.5907,0.8,1.7992,1.9627,2.0353,2.0353,2.3236,2.6435,2.954,2.3392,2.2531,0.0,0.0,0.0,0.0,0.0,0.0,-3.834,0.0,-3.3375,0.0,0.0,0.0,0.0,0.0,0.0,0.0,0.0,0.0,0.0,0.0,0.0,0.0,0.0,0.0,0.0,0.0,0.0,0.0,0.0,-3.7775,-3.7998,-3.8438,-3.8682,-3.842,-3.8126,-3.8366,-3.8921,-3.722,-3.62,-3.609,-3.5829,-3.5324,-3.455,-3.4796,-3.4796,-3.455,-3.3448,-3.3199,-3.3118,-3.2145,-3.1371,-3.069,-3.1397,-3.2072,-3.2831,-3.3765,-3.3154,-3.1916,-3.151,-3.146,-3.1545,-3.1628,-3.1306,-3.1323,-3.2823,-3.2403,-3.1576,-3.1829,-3.2501,-3.3285,-3.3404,-3.4959,-3.6656,-3.7212,-3.9116,-4.0681,-4.009,-4.057,-4.0932,-4.0853,-4.1344,-4.2412,-4.4213,-4.5383,-4.5543,-4.3879,-4.1107,-3.917,-3.914,-3.4695,-3.1266,-3.0324,-2.6718,-2.4179,-2.345,-2.1117,-1.8158,-1.4445,-1.603,-1.1961,-0.0596,-0.4353,-0.2529,0.6002,0.6784,0.7246,0.7397,1.104,1.2815,1.3074,1.2453,1.3252,0.0,0.0,0.0,0.0,-4.2869,0.0,0.0,0.0,-3.5386,-3.2533,0.0,0.0,0.0,0.0,0.0,0.0,0.0,0.0,0.0,0.0,0.0,0.0,0.0,0.0,0.0,0.0,0.0,-4.4189,-4.2157,-4.0922,-4.1153,-4.188,-4.1298,-3.9233,-3.9868,-3.9717,-3.864,-3.8067,-3.777,-3.777,-3.7405,-3.7148,-3.6889,-3.5959,-3.5979,-3.6889,-3.5848,-3.5324,-3.5343,-3.5455,-3.4815,-3.3771,-3.4152,-3.4285,-3.4266,-3.4438,-3.4419,-3.4287,-3.3606,-3.3036,-3.2903,-3.3927,-3.4833,-3.5712,-3.672,-3.6122,-3.4982,-3.5575,-3.6689,-3.7478,-3.6724,-3.845,-4.0492,-4.0592,-4.3085,-4.5193,-4.4043,-4.5432,-4.6298,-4.4089,-4.5298,-4.6921,-4.7561,-4.5283,-4.2167,-3.8473,-3.5382,-3.3369,-3.3503,-3.1968,-3.042,-2.8981,-2.652,-2.4438,-2.285,-2.143,-1.8785,-1.4328,-1.608,-1.4,-0.6855,-0.591,-0.488,-0.3314,-0.3323,-0.3166,-0.2999,0.351,0.3473,-0.2597,0.061,0.3479,0.0,0.0,0.0,0.0,0.0,-3.8417,0.0,0.0,0.0,0.0,0.0,0.0,0.0,0.0,0.0,0.0,0.0,0.0,0.0,0.0,0.0,0.0,0.0,0.0,0.0,0.0,-4.6745,-4.7478,-4.698,-4.5959,-4.4243,-4.3525,-4.3123,-4.3056,-4.2437,-4.2295,-4.2921,-4.069,-3.942,-3.919,-3.881,-3.8047,-3.7018,-3.7919,-3.777,-3.6889,-3.7317,-3.665,-3.5455,-3.6109,-3.5324,-3.4171,-3.777,-3.9042,-3.8747,-3.8641,-3.8388,-3.8005,-3.7493,-3.7216,-3.6938,-3.6849,-3.7964,-3.9188,-3.8473,-3.8705,-3.9166,-3.9188,-4.039,-4.1812,-4.2751,-4.4004,-4.5392,-4.6627,-4.7935,-4.8859,-4.8617,-5.0314,-5.1735,-5.1241,-5.2321,-5.0567,-4.2326,-4.0402,-3.9323,-3.7382,-3.4688,-3.2268,-3.0882,-2.8197,-2.6169,-2.5886,-2.5177,-2.4049,-2.2887,-2.2467,-2.0245,-1.5663,-1.5811,-1.4172,-1.0153,-0.8996,-0.7413,-0.5675,-0.4017,-0.3216,-0.3158,0.0157,-0.0,-0.3278,-0.1378,0.0454,0.0,0.0,0.0,-4.1689,0.0,0.0,0.0,0.0,-3.5155,0.0,0.0,0.0,0.0,0.0,0.0,0.0,0.0,0.0,0.0,0.0,0.0,0.0,0.0,0.0,0.0,0.0,-4.9996,-5.061,-5.0916,-5.0111,-4.7997,-4.7294,-4.6654,-4.5857,-4.5331,-4.4881,-4.4418,-4.2842,-4.1699,-4.088,-4.0464,-3.9943,-3.9063,-3.9524,-3.9775,-3.9775,-3.9063,-3.8536,-3.8005,-3.826,-3.8005,-3.7622,-3.9546,-4.0171,-4.0025,-4.0317,-4.0068,-3.9861,-3.961,-3.9693,-3.9796,-3.942,-4.0252,-4.134,-4.1139,-4.153,-4.214,-4.2818,-4.4055,-4.5516,-4.6964,-4.8154,-4.9342,-5.066,-5.1716,-5.2125,-5.0879,-5.0802,-5.0441,-4.8662,-5.018,-4.9212,-4.1106,-3.969,-3.8762,-3.6072,-3.3794,-3.2186,-3.1458,-2.8629,-2.6437,-2.5575,-2.4023,-2.2467,-2.1163,-2.0278,-1.8501,-1.5409,-1.4947,-1.345,-1.0465,-0.9675,-0.8603,-0.7052,-0.5574,-0.4784,-0.4729,-0.2905,-0.3349,-0.5506,-0.3377,-0.2576,0.0,-4.025,0.0,0.0,0.0,0.0,-3.7636,-3.655,-3.6189,0.0,0.0,0.0,0.0,0.0,0.0,0.0,0.0,0.0,0.0,0.0,0.0,0.0,0.0,0.0,0.0,0.0,-5.2589,-5.3536,-5.4139,-5.3488,-5.1566,-5.1285,-5.009,-4.8034,-4.8231,-4.7374,-4.5448,-4.5088,-4.42,-4.2919,-4.23,-4.1842,-4.1643,-4.1016,-4.1607,-4.2768,-4.0994,-4.0646,-4.1038,-4.0646,-4.0915,-4.1407,-4.124,-4.1117,-4.1117,-4.1652,-4.1797,-4.1675,-4.1352,-4.1697,-4.2284,-4.1797,-4.214,-4.3081,-4.3868,-4.4247,-4.46,-4.606,-4.7453,-4.8695,-5.0243,-5.1174,-5.1848,-5.2675,-5.3364,-5.3233,-5.1305,-4.9975,-4.7834,-4.3384,-4.4685,-4.5035,-4.0276,-3.9358,-3.8014,-3.4155,-3.2497,-3.1714,-3.1833,-2.9629,-2.7546,-2.6394,-2.3723,-2.1454,-1.9862,-1.8247,-1.677,-1.5136,-1.4532,-1.3172,-1.0928,-1.0258,-0.9549,-0.8467,-0.7495,-0.6737,-0.623,-0.631,-0.702,-0.8153,-0.6079,-0.5838,-3.7353,-3.7016,-3.8166,0.0,0.0,0.0,-4.6965,-4.6568,0.0,0.0,0.0,0.0,0.0,0.0,0.0,0.0,0.0,0.0,0.0,0.0,0.0,0.0,0.0,0.0,0.0,0.0,-5.414,-5.5972,-5.6234,-5.5631,-5.4146,-5.32,-5.1451,-4.9085,-5.0238,-4.9864,-4.778,-4.7681,-4.7017,-4.5835,-4.4176,-4.3175,-4.2884,-4.2549,-4.2865,-4.382,-4.3559,-4.2961,-4.2405,-4.2284,-4.2526,-4.2841,-4.4621,-4.4971,-4.4713,-4.4503,-4.5087,-4.5665,-4.3868,-4.3986,-4.4738,-4.3914,-4.4081,-4.4811,-4.592,-4.6491,-4.7082,-4.8281,-4.993,-5.1513,-5.2563,-5.2123,-5.1375,-5.1508,-5.0588,-4.9571,-4.9314,-4.9829,-4.8165,-4.0802,-3.936,-3.8652,-3.6939,-3.6147,-3.468,-3.1364,-3.0376,-2.9401,-2.815,-2.748,-2.6947,-2.6806,-2.4919,-2.3044,-2.1454,-1.9851,-1.8247,-1.677,-1.5574,-1.4822,-1.4524,-1.2728,-1.1299,-1.0576,-0.9503,-0.8268,-0.675,-1.0428,-1.1594,-1.0373,-0.9974,-0.9763,-3.6655,-3.7104,-3.844,-3.926,0.0,0.0,-4.5171,-4.6074,0.0,0.0,0.0,0.0,0.0,0.0,0.0,0.0,0.0,0.0,0.0,0.0,0.0,0.0,0.0,0.0,0.0,0.0,0.0,0.0,-5.6546,-5.6562,-5.5678,-5.4656,-5.3949,-5.3587,-5.3657,-5.2422,-5.0003,-5.0917,-4.9958,-4.7305,-4.6478,-4.5489,-4.4223,-4.4528,-4.4786,-4.4835,-4.441,-4.3914,-4.3677,-4.4199,-4.5176,-4.6281,-4.6752,-4.7739,-4.8766,-4.8294,-4.768,-4.6986,-4.6702,-4.6095,-4.5624,-4.6478,-4.6893,-4.722,-4.7949,-4.8748,-4.9583,-5.0325,-5.1513,-5.272,-5.3017,-5.1525,-4.9933,-4.9762,-4.9238,-4.8111,-4.5851,-4.5474,-4.4415,-4.0662,-3.9667,-3.88,-3.6545,-3.5597,-3.4372,-3.2147,-3.0548,-2.9278,-2.8723,-2.7761,-2.6932,-2.6226,-2.4634,-2.3044,-2.1744,-2.0154,-1.8836,-1.7962,-1.7657,-1.6909,-1.5566,-1.5215,-1.4307,-1.2994,-1.2783,-1.1984,-1.0623,-1.0892,-1.083,-1.0277,-1.0716,-1.0634,-3.572,0.0,0.0,0.0,0.0,0.0,0.0,0.0,0.0,0.0,0.0,0.0,0.0,0.0,0.0,0.0,0.0,0.0,0.0,0.0,0.0,0.0,0.0,0.0,0.0,0.0,0.0,0.0,-5.7075,-5.7361,-5.6954,-5.6485,-5.6593,-5.7525,-5.7171,-5.5971,-5.3785,-5.448,-5.3307,-5.0195,-4.9037,-4.7588,-4.5904,-4.6185,-4.6314,-4.625,-4.5368,-4.5492,-4.6435,-4.7416,-4.8515,-4.9466,-4.9206,-5.0165,-5.1484,-5.122,-5.014,-4.881,-4.9425,-4.8497,-4.7307,-4.8722,-4.8992,-4.899,-4.9984,-5.0667,-5.1336,-5.235,-5.2893,-5.3101,-5.2951,-5.0375,-4.7748,-4.7271,-4.6803,-4.571,-4.297,-4.1553,-4.0596,-4.0052,-3.9755,-3.8758,-3.634,-3.5078,-3.3994,-3.2307,-3.0398,-2.9278,-2.9278,-2.8305,-2.7184,-2.5942,-2.4478,-2.3031,-2.1744,-2.0154,-1.914,-1.8846,-1.8836,-1.7991,-1.6458,-1.6959,-1.6565,-1.5216,-1.512,-1.4372,-1.3165,-1.1801,-1.1033,-1.07,-1.1209,-1.1122,0.0,0.0,0.0,-4.4206,-4.4156,-4.5215,-5.6276,0.0,0.0,0.0,0.0,0.0,0.0,0.0,0.0,0.0,0.0,0.0,0.0,0.0,0.0,0.0,0.0,0.0,0.0,0.0,0.0,0.0,0.0,-5.8336,-5.791,-5.8808,-5.9377,-5.964,-6.0826,-6.0914,-5.9785,-5.8635,-5.7312,-5.5916,-5.1653,-4.9248,-4.8461,-4.6997,-4.7082,-4.8386,-4.7297,-4.8567,-5.1583,-5.2436,-5.2343,-5.1667,-5.2539,-5.2539,-5.2163,-5.3035,-5.3093,-5.2571,-5.1944,-5.1287,-5.0882,-5.0329,-4.9798,-4.9771,-5.1902,-5.2177,-5.2149,-5.4296,-5.3922,-5.2877,-5.2853,-4.8979,-4.4792,-4.3741,-4.2219,-4.115,-4.1369,-3.9469,-3.7802,-3.8135,-3.7614,-3.6625,-3.5229,-3.3903,-3.2526,-3.0883,-2.9309,-2.846,-2.846,-2.832,-2.7761,-2.6367,-2.4879,-2.3293,-2.1744,-2.0154,-1.9287,-1.9276,-1.8237,-1.7671,-1.8223,-1.7247,-1.6995,-1.7354,-1.5567,-1.4201,-1.3146,-1.4029,-1.3693,-1.2318,-1.2306,-1.2205,-3.8115,-3.9843,-4.2589,-4.7605,-5.0002,-5.2184,-5.5956,0.0,0.0,0.0,0.0,0.0,0.0,0.0,0.0,0.0,0.0,0.0,0.0,0.0,0.0,0.0,0.0,0.0,0.0,0.0,0.0,0.0,0.0,0.0,-6.1184,-6.2179,-6.2415,-6.1486,-6.2598,-6.2445,-6.1101,-6.1503,-6.0323,-5.7461,-5.497,-5.261,-5.0354,-4.9412,-4.8963,-4.9125,-5.0009,-5.1343,-5.2926,-5.2971,-5.3718,-5.4798,-5.503,-5.5987,-5.7315,-5.7606,-5.629,-5.4446,-5.4772,-5.2891,-5.0462,-5.1737,-5.1429,-5.0629,-5.0881,-5.131,-5.1611,-5.1127,-5.0531,-4.9699,-4.8203,-4.5831,-4.3378,-4.1252,-4.0314,-3.9863,-3.9635,-3.9714,-3.9595,-3.9029,-3.8692,-3.7895,-3.6194,-3.4687,-3.3421,-3.2199,-3.1319,-3.01,-2.8506,-2.8547,-2.7785,-2.496,-2.4049,-2.3031,-2.1744,-2.1163,-2.0727,-2.0727,-2.0435,-2.0204,-2.0228,-2.0075,-1.9564,-1.8364,-1.7932,-1.6651,-1.4741,-1.3602,-1.3018,-1.3031,-1.2674,-1.2584,-3.9999,-4.2015,-4.463,-5.0681,-5.3942,-5.5956,-5.7323,-5.9534,0.0,0.0,0.0,0.0,0.0,0.0,0.0,0.0,0.0,0.0,0.0,0.0,0.0,0.0,0.0,0.0,0.0,0.0,0.0,0.0,0.0,0.0,-6.2967,-6.4125,-6.4289,-6.3463,-6.4452,-6.4504,-6.3469,-6.427,-6.3162,-6.0209,-5.7849,-5.5079,-5.232,-5.1588,-5.0901,-5.0517,-5.3054,-5.4599,-5.5431,-5.6149,-5.7133,-5.8149,-5.8377,-5.9257,-6.0257,-6.008,-5.8362,-5.6016,-5.6257,-5.4262,-5.1751,-5.2164,-5.1833,-5.1107,-5.0189,-5.0291,-5.0599,-4.9917,-4.8951,-4.7718,-4.5946,-4.4059,-4.2067,-4.0016,-3.9475,-3.9323,-3.89,-3.8879,-3.8599,-3.7896,-3.733,-3.6481,-3.5254,-3.4129,-3.3166,-3.2549,-3.1997,-3.1066,-2.9619,-2.9659,-2.875,-2.6183,-2.5021,-2.4023,-2.2875,-2.231,-2.2033,-2.2033,-2.2033,-2.198,-2.176,-2.1479,-2.0772,-1.9448,-1.8397,-1.7713,-1.7094,-1.4849,-1.4113,-1.4399,-1.3362,-1.319,-3.9948,-4.138,-4.3777,-5.3824,-5.6073,-5.6858,-6.0353,0.0,0.0,0.0,0.0,0.0,0.0,0.0,0.0,0.0,0.0,0.0,0.0,0.0,0.0,0.0,0.0,0.0,0.0,0.0,0.0,0.0,0.0,-6.407,-6.3659,-6.467,-6.5265,-6.5265,-6.6416,-6.7027,-6.7027,-6.687,-6.5944,-6.4374,-6.0285,-5.7017,-5.442,-5.3286,-5.2672,-5.2635,-5.6334,-5.8273,-5.9112,-6.1429,-6.1931,-6.1409,-6.2385,-6.2001,-6.0866,-6.0533,-5.9111,-5.712,-5.6364,-5.5592,-5.4488,-5.1581,-5.1024,-5.1202,-4.9667,-4.9006,-4.9027,-5.028,-4.8801,-4.6537,-4.5784,-4.3393,-4.0901,-3.9787,-3.9438,-3.9278,-3.9138,-3.7255,-3.5365,-3.5329,-3.4031,-3.2883,-3.2787,-3.2315,-3.1847,-3.1738,-3.159,-3.1272,-3.1084,-3.1118,-3.069,-2.9337,-2.7546,-2.6155,-2.5149,-2.3606,-2.2755,-2.2755,-2.2755,-2.2869,-2.2997,-2.1655,-2.0822,-2.0972,-1.7337,-1.7011,-1.9867,-1.7359,-1.6229,-1.6383,-1.4686,-1.3831,-4.4876,-4.8855,-5.2552,-5.8784,-6.0319,-6.0473,-6.1075,0.0,-6.1195,0.0,0.0,0.0,0.0,0.0,0.0,0.0,0.0,0.0,0.0,0.0,0.0,0.0,0.0,0.0,0.0,0.0,0.0,0.0,0.0,-6.775,-6.7592,-6.7333,-6.7203,-6.7203,-6.8334,-6.9092,-6.9092,-6.967,-6.9051,-6.7331,-6.3093,-6.0021,-5.8063,-5.5171,-5.4099,-5.4621,-5.7423,-5.88,-5.9157,-6.0405,-6.1256,-6.1807,-6.1837,-6.0925,-5.9617,-5.907,-5.7947,-5.6596,-5.6483,-5.4322,-5.1654,-5.1454,-5.0298,-4.8658,-4.7203,-4.6155,-4.5346,-4.4524,-4.2396,-4.055,-4.1358,-4.0252,-3.8955,-3.9062,-3.9646,-3.9804,-3.8478,-3.8708,-3.8467,-3.6513,-3.5861,-3.5512,-3.5303,-3.4459,-3.3568,-3.3046,-3.2697,-3.1412,-2.8785,-2.872,-2.8115,-2.5928,-2.5034,-2.4478,-2.4192,-2.3905,-2.3475,-2.3188,-2.3475,-2.3597,-2.3434,-2.3687,-2.335,-2.208,-1.8364,-1.6759,-1.7475,-1.5621,-1.4799,-1.4717,-1.4227,-1.4063,-4.4385,-4.9538,-5.4924,-6.0042,-6.1674,-6.1895,-6.1754,-6.1643,-6.1643,0.0,0.0,0.0,0.0,0.0,0.0,0.0,0.0,0.0,0.0,0.0,0.0,0.0,0.0,0.0,0.0,0.0,0.0,0.0,0.0,-6.9208,-6.9208,-6.842,-6.842,-6.8898,-6.9466,-7.0025,-7.0574,-7.1648,-7.1604,-7.0465,-6.6054,-6.2737,-6.0224,-5.7742,-5.6646,-5.6977,-5.8084,-5.9119,-5.9958,-6.0824,-6.1553,-6.1971,-6.213,-6.1312,-6.0025,-5.9477,-5.7616,-5.5335,-5.495,-5.2833,-5.0084,-4.9507,-4.8716,-4.7622,-4.595,-4.5005,-4.4308,-4.3064,-4.1797,-4.0836,-4.0588,-4.0395,-4.034,-4.0191,-4.0792,-4.0736,-3.7851,-3.8067,-3.8166,-3.6266,-3.5926,-3.5799,-3.5612,-3.5156,-3.4319,-3.3282,-3.3216,-3.2076,-2.9464,-2.9315,-2.883,-2.7325,-2.6466,-2.5758,-2.5616,-2.5048,-2.4634,-2.4348,-2.4348,-2.4218,-2.396,-2.382,-2.3341,-2.2063,-2.1431,-2.0617,-2.0064,-1.7956,-1.6522,-1.5901,-1.5102,-1.4781,-4.2648,-4.735,-5.3664,-5.9008,-6.1172,-6.2069,-6.2137,-6.2196,-6.2196,0.0,0.0,0.0,0.0,0.0,0.0,0.0,0.0,0.0,0.0,0.0,0.0,0.0,0.0,0.0,0.0,0.0,0.0,0.0,0.0,0.0,-6.9714,-6.915,-6.94,-7.0693,-7.0542,-7.0935,-7.1939,-7.315,-7.3632,-7.3376,-6.9513,-6.5717,-6.2006,-6.1122,-6.0484,-6.0043,-5.9004,-5.9622,-6.139,-6.1845,-6.1872,-6.1781,-6.2592,-6.1962,-6.052,-5.9742,-5.721,-5.3867,-5.282,-5.1151,-4.9221,-4.7449,-4.7244,-4.7386,-4.5641,-4.4952,-4.46,-4.3725,-4.3749,-4.3677,-4.1797,-4.2309,-4.2943,-4.1801,-4.231,-4.2072,-3.8031,-3.7188,-3.6929,-3.5907,-3.5644,-3.5644,-3.5644,-3.5513,-3.4985,-3.3387,-3.3369,-3.2831,-3.134,-3.0947,-3.0794,-3.0365,-2.9001,-2.8165,-2.7746,-2.6621,-2.5928,-2.58,-2.5502,-2.5204,-2.479,-2.3513,-2.278,-2.2406,-2.4665,-2.5326,-2.414,-2.1234,-1.9276,-1.8113,-1.653,-1.574,-4.8579,-5.0148,-5.203,-5.7603,-6.0019,-6.116,-6.204,-6.2196,-6.2196,-6.2196,0.0,0.0,0.0,0.0,0.0,0.0,0.0,0.0,0.0,0.0,0.0,0.0,0.0,0.0,0.0,0.0,0.0,0.0,0.0,0.0,-7.159,-7.1353,-7.1708,-7.2923,-7.36,-7.4045,-7.4266,-7.5013,-7.5399,-7.526,-7.4347,-7.086,-6.5522,-6.6633,-6.6514,-6.5065,-6.2192,-6.1724,-6.2719,-6.1658,-6.1157,-6.1047,-6.1329,-6.036,-5.8451,-5.5428,-5.4195,-5.3766,-5.1866,-4.9965,-4.8489,-4.9483,-4.8644,-4.7209,-4.6275,-4.5112,-4.3938,-4.3224,-4.2382,-4.1797,-4.2888,-4.2907,-4.2537,-4.2047,-4.3456,-4.4105,-4.1374,-4.069,-4.0464,-3.9358,-3.9211,-3.9211,-3.9211,-3.845,-3.7256,-3.5266,-3.3982,-3.2509,-3.0453,-2.9401,-2.8599,-2.8025,-2.7746,-2.7605,-2.7465,-2.7184,-2.6918,-2.6664,-2.6918,-2.6636,-2.5942,-2.6421,-2.6579,-2.6466,-2.4388,-2.3326,-2.2978,-1.9981,-1.8366,-1.8008,-1.77,-1.7551,-4.7859,-4.8867,-5.0356,-5.4596,-5.7771,-6.0375,-6.2128,-6.2574,-6.2574,-6.2574,-6.2761,0.0,0.0,0.0,0.0,0.0,0.0,0.0,0.0,0.0,0.0,0.0,0.0,0.0,0.0,0.0,0.0,0.0,0.0,0.0,0.0,-7.317,-7.3538,-7.4562,-7.5026,-7.5484,-7.6105,-7.6345,-7.641,-7.6306,-7.6202,-7.4165,-7.0439,-7.188,-7.0883,-6.7936,-6.5959,-6.5282,-6.5282,-6.3935,-6.3352,-6.3008,-6.0173,-5.8388,-5.6875,-5.3471,-5.1767,-5.1037,-5.0475,-4.9721,-4.907,-4.9672,-4.9341,-4.8425,-4.8008,-4.6944,-4.5715,-4.4762,-4.4503,-4.4479,-4.4621,-4.4946,-4.4922,-4.3891,-4.4244,-4.4244,-4.2457,-4.1873,-4.1675,-4.1184,-4.1061,-4.069,-3.9714,-3.919,-3.8133,-3.5548,-3.4645,-3.3448,-3.1425,-3.076,-3.009,-2.9401,-2.9523,-2.9507,-2.9385,-2.9401,-2.8985,-2.832,-2.8165,-2.7886,-2.6918,-2.8738,-2.9596,-2.9416,-2.781,-2.6379,-2.5392,-2.3659,-2.2094,-2.0525,-2.0525,-1.9965,-4.5944,-4.6756,-4.8569,-5.1669,-5.4949,-5.8239,-6.1749,-6.2527,-6.2527,-6.2527,-6.2527,-6.2617,0.0,0.0,0.0,0.0,0.0,0.0,0.0,0.0,0.0,0.0,0.0,0.0,0.0,0.0,0.0,0.0,0.0,0.0,0.0,0.0,0.0,-7.6287,-7.6184,-7.6557,-7.7428,-7.7328,-7.7228,0.0,-7.7228,-7.6576,-7.5304,-7.6942,-7.5527,-7.1845,-7.0496,-6.9297,-6.8301,-6.7021,-6.5739,-6.4136,-6.0065,-5.8005,-5.6951,-5.3603,-5.2047,-5.1454,-5.1085,-5.1415,-5.1765,-5.0979,-5.1055,-5.1261,-5.0457,-4.9369,-4.8223,-4.7143,-4.7479,-4.7923,-4.678,-4.7118,-4.7668,-4.7137,-4.6544,-4.5725,-4.4368,-4.3812,-4.3639,-4.3639,-4.3639,-4.2904,-4.1035,-4.0783,-3.9786,-3.6798,-3.5965,-3.4909,-3.3333,-3.2814,-3.2409,-3.1596,-3.1697,-3.1833,-3.1442,-3.1442,-3.1033,-3.0228,-2.9799,-2.9246,-2.8413,-3.0607,-3.185,-3.1613,-3.1033,-2.9904,-2.8352,-2.778,-2.6083,-2.3411,-2.3411,-2.243,-4.6188,-4.6011,-4.6889,-5.0238,-5.1432,-5.3307,-5.9775,-6.1181,-6.1181,-6.1181,-6.1181,-6.154,-6.2737,0.0,0.0,0.0,0.0,0.0,0.0,0.0,0.0,0.0,0.0,0.0,0.0,0.0,0.0,0.0,0.0,0.0,0.0,0.0,0.0,0.0,-7.8216,-7.8119,-7.8216,-7.8022,-7.7924,0.0,-7.8626,-7.8834,-7.876,-8.1568,-8.1845,-7.9798,-7.6143,-7.3408,-7.1443,-7.0372,-6.6602,-6.1469,-6.1936,-6.1423,-6.0011,-5.654,-5.7889,-6.0844,-5.6431,-5.6591,-5.8319,-5.5692,-5.5752,-5.629,-5.3738,-5.1846,-5.0457,-4.993,-4.9824,-4.9824,-4.9235,-4.8666,-4.9059,-5.2027,-5.2192,-5.1379,-4.9861,-4.9186,-4.8721,-4.8721,-4.8721,-4.808,-4.6299,-4.5533,-4.4205,-4.1463,-3.8864,-3.6869,-3.5829,-3.4796,-3.3886,-3.2778,-3.2778,-3.2778,-3.2643,-3.2661,-3.2526,-3.2003,-3.2003,-3.1714,-3.1289,-3.2239,-3.2778,-3.2661,-3.1238,-3.0403,-3.025,-2.8875,-2.7361,-2.5702,-2.5702,-2.4723,-4.3575,-4.3156,-4.3455,-4.6478,-5.0215,-5.3813,-5.5915,-5.7988,-5.9853,-6.0879,-6.2706,-6.3873,-6.3022,-6.4117,0.0,0.0,0.0,0.0,0.0,0.0,0.0,0.0,0.0,0.0,0.0,0.0,0.0,0.0,0.0,0.0,0.0,0.0,0.0,0.0,-7.9711,-7.9711,-7.9846,-7.9756,-7.9812,-8.0098,-8.0649,-8.154,-8.2725,-8.443,-8.4744,-8.3842,-8.1418,-7.9371,-7.7515,-7.4552,-7.1674,-6.8969,-6.6143,-6.4663,-6.3621,-5.9472,-5.9741,-6.1909,-5.9623,-6.0406,-6.2128,-6.0217,-6.0423,-6.0953,-5.9081,-5.7606,-5.6522,-5.6284,-5.5718,-5.4917,-5.4079,-5.3845,-5.4027,-5.5394,-5.4889,-5.3688,-5.2797,-5.2242,-5.189,-5.1602,-5.1602,-5.0863,-4.8599,-4.7603,-4.637,-4.3687,-4.1897,-4.0741,-4.0038,-3.9279,-3.8292,-3.7087,-3.6494,-3.6014,-3.5494,-3.5192,-3.4664,-3.4,-3.3734,-3.4444,-3.6547,-3.6859,-3.6859,-3.6428,-3.5235,-3.414,-3.2767,-3.163,-2.9783,-2.745,-2.745,-2.6466,-4.1058,-4.0441,-4.0691,-4.3933,-4.8812,-5.2954,-5.3672,-5.5881,-5.8296,-6.0232,-6.2563,-6.3925,-6.2821,-6.4397,0.0,0.0,0.0,0.0,0.0,0.0,0.0,0.0,0.0,0.0,0.0,0.0,0.0,0.0,0.0,0.0,0.0,0.0,0.0,0.0,-8.1273,-8.1321,-8.1589,-8.1669,-8.1837,-8.2155,-8.2758,-8.4037,-8.5746,-8.6449,-8.6695,-8.6463,-8.4959,-8.3816,-8.2686,-7.8644,-7.5685,-7.3278,-6.9521,-6.7796,-6.6943,-6.3399,-6.351,-6.5206,-6.3936,-6.5101,-6.6828,-6.4708,-6.4956,-6.5721,-6.4267,-6.3004,-6.2006,-6.1729,-6.0951,-5.9912,-5.8583,-5.9147,-5.9912,-5.9742,-5.8291,-5.6936,-5.6508,-5.5657,-5.5036,-5.4778,-5.4429,-5.3315,-5.0859,-4.9664,-4.8218,-4.5445,-4.4564,-4.3941,-4.3476,-4.2809,-4.1923,-4.0863,-4.0267,-3.9598,-3.8936,-3.8633,-3.8087,-3.7008,-3.6761,-3.7849,-4.0776,-4.0818,-4.0405,-3.9674,-3.9091,-3.768,-3.5571,-3.4761,-3.2957,-3.0039,-3.0039,-2.9031,-3.9085,-3.8133,-3.9348,-4.3619,-4.6379,-4.9322,-5.4063,-5.5532,-5.6571,-5.9369,-6.0048,-6.0514,-6.1967,-6.3514,0.0,-6.6284,0.0,0.0,0.0,0.0,0.0,0.0,0.0,0.0,0.0,0.0,0.0,0.0,0.0,0.0,0.0,0.0,0.0,0.0,-8.2969,-8.3079,-8.3365,-8.3503,-8.3637,-8.3767,-8.467,-8.6016,-8.766,-8.78,-8.7912,-8.7921,-8.626,-8.5805,-8.5995,-8.2587,-7.7287,-7.1358,-7.1319,-7.0757,-6.9817,-6.872,-7.0637,-7.3308,-7.0365,-7.1284,-7.3129,-6.9047,-6.9345,-7.0888,-6.8796,-6.7367,-6.6226,-6.5039,-6.4705,-6.4193,-6.1909,-6.3883,-6.6176,-6.5209,-6.3365,-6.1765,-6.1737,-5.9971,-5.842,-5.8393,-5.7461,-5.5837,-5.3607,-5.215,-5.029,-4.713,-4.6588,-4.6222,-4.5348,-4.471,-4.4051,-4.3232,-4.3076,-4.3076,-4.3076,-4.3076,-4.2675,-4.1637,-4.1501,-4.2044,-4.3098,-4.3098,-4.2696,-4.2022,-4.1637,-4.0543,-3.872,-3.828,-3.6706,-3.3955,-3.3955,-3.2933,-3.8838,-3.9308,-4.07,-4.3498,-4.7434,-5.1189,-5.3666,-5.6297,-5.8756,-6.0814,-6.0593,-6.0801,-6.3224,-6.5411,0.0,0.0,0.0,0.0,0.0,0.0,0.0,0.0,0.0,0.0,0.0,0.0,0.0,0.0,0.0,0.0,0.0,0.0,0.0,0.0,-8.4352,-8.4673,-8.5212,-8.5271,-8.5466,-8.5819,-8.705,-8.7949,-8.8458,-8.8709,-8.878,-8.8669,-8.8258,-8.7542,-8.6627,-8.5355,-8.2321,-7.8202,-7.6539,-7.5435,-7.4794,-7.4661,-7.5375,-7.6233,-7.52,-7.5089,-7.5217,-7.3481,-7.3661,-7.452,-7.3627,-7.3214,-7.28,-7.2154,-7.0559,-6.8846,-6.8631,-6.8477,-6.8418,-6.7951,-6.5648,-6.3834,-6.4421,-6.2416,-6.0887,-6.152,-5.9837,-5.7823,-5.6648,-5.4527,-5.2518,-5.1171,-5.0327,-4.9782,-4.9447,-4.9024,-4.8489,-4.7703,-4.6384,-4.5301,-4.4624,-4.4161,-4.3786,-4.352,-4.5572,-4.6703,-4.6566,-4.6406,-4.6131,-4.546,-4.4706,-4.3395,-4.1224,-4.0451,-3.9158,-3.7282,-3.7282,-3.6452,-4.0191,-4.0548,-4.1355,-4.4354,-4.8514,-5.2025,-5.2876,-5.4799,-5.693,-5.8654,-5.854,-5.8897,-6.1209,-6.4412,-6.7174,-6.8789,-6.9934,0.0,0.0,0.0,0.0,0.0,0.0,0.0,0.0,0.0,0.0,0.0,0.0,0.0,0.0,0.0,0.0,-8.5964,-8.5928,-8.6198,-8.6842,-8.689,-8.7132,-8.7567,-8.8571,-8.9033,-8.9076,-8.9223,-8.9262,-8.9218,-8.9206,-8.8671,-8.7704,-8.6786,-8.5177,-8.303,-8.0872,-7.9601,-7.895,-7.8319,-7.8197,-7.8291,-7.7795,-7.7326,-7.6821,-7.6313,-7.6563,-7.7148,-7.7086,-7.6672,-7.6154,-7.5528,-7.3632,-7.2009,-7.2479,-7.1487,-7.0297,-6.9944,-6.8062,-6.6373,-6.6622,-6.4886,-6.3509,-6.4186,-6.1879,-5.9631,-5.9142,-5.6729,-5.4461,-5.3685,-5.3158,-5.2704,-5.1893,-5.1871,-5.1564,-5.0636,-4.9317,-4.8231,-4.7596,-4.7153,-4.6623,-4.6379,-4.8365,-4.9339,-4.8904,-4.8904,-4.8628,-4.7933,-4.7341,-4.6015,-4.3833,-4.3236,-4.1945,-4.0094,-4.0094,-3.9277,-4.2285,-4.1713,-4.1561,-4.5771,-4.9563,-5.2334,-5.2072,-5.2113,-5.2672,-5.4256,-5.4888,-5.565,-5.7088,-6.1256,-6.5466,-6.8605,-6.9456,-7.0508,0.0,0.0,0.0,0.0,0.0,0.0,0.0,0.0,0.0,0.0,0.0,0.0,0.0,0.0,0.0,-8.7501,-8.7524,-8.7703,-8.8099,-8.8214,-8.8567,-8.9044,-8.9309,-8.9451,-8.9447,-8.9438,-8.948,-8.9588,-8.9329,-8.9201,-8.9058,-8.7213,-8.6256,-8.5749,-8.4115,-8.3067,-8.2169,-7.9983,-7.9467,-7.9657,-7.8605,-7.8266,-7.8281,-7.7812,-7.8216,-7.8792,-7.9108,-7.815,-7.6761,-7.5727,-7.4579,-7.3644,-7.3644,-7.2794,-7.1921,-7.1504,-7.0273,-6.8989,-6.8665,-6.7359,-6.6207,-6.6296,-6.3674,-6.144,-6.1185,-5.8491,-5.6087,-5.4671,-5.5397,-5.5159,-5.3136,-5.3467,-5.3419,-5.243,-5.1808,-5.1492,-5.1492,-5.1151,-5.0723,-5.0046,-5.0342,-5.0501,-5.0501,-5.0501,-5.0206,-4.9339,-4.9339,-4.8328,-4.644,-4.644,-4.4993,-4.2397,-4.2397,-4.1697,-3.9144,-4.1522,-4.3877,-4.4245,-4.9722,-5.491,-5.4984,-5.5233,-5.5577,-5.6114,-5.662,-5.7453,-5.9067,-6.1499,-6.4835,-6.975,-7.0545,-7.196,-7.5729,0.0,0.0,0.0,0.0,0.0,0.0,0.0,0.0,0.0,0.0,0.0,0.0,0.0,-8.7734,-8.8058,-8.8061,-8.8214,-8.8499,-8.8627,-8.8969,-8.9488,-8.9518,-8.9557,-8.9578,-8.9559,-8.9544,-8.9455,-8.9167,-8.9006,-8.8867,-8.822,-8.702,-8.5566,-8.488,-8.3653,-8.2193,-8.1545,-8.1134,-8.0857,-8.056,-8.0357,-8.0102,-7.952,-7.927,-7.9354,-7.9387,-7.8535,-7.7464,-7.6964,-7.5013,-7.3055,-7.3055,-7.2679,-7.2182,-7.2065,-7.0859,-6.9991,-7.0871,-6.9211,-6.7453,-6.7774,-6.4979,-6.2295,-6.1495,-5.9342,-5.7598,-5.7205,-5.7385,-5.7359,-5.6845,-5.6457,-5.6123,-5.587,-5.4385,-5.3591,-5.3591,-5.242,-5.1927,-5.2587,-5.2217,-5.1976,-5.1976,-5.1976,-5.1552,-5.081,-5.081,-4.9703,-4.7609,-4.7609,-4.6767,-4.4978,-4.4978,-4.4234,-4.059,-4.3556,-4.5624,-4.3184,-4.7614,-5.2483,-5.2142,-5.2311,-5.2867,-5.3884,-5.4521,-5.5566,-5.7862,-6.0394,-6.3282,-6.7004,0.0,-7.1981,-7.6238,-7.7438,-7.9328,0.0,0.0,0.0,0.0,0.0,0.0,0.0,0.0,0.0,0.0,0.0,-8.8399,-8.8503,-8.8567,-8.8727,-8.8963,-8.912,-8.9307,-8.9504,-8.9589,-8.956,-8.9525,-8.9467,-8.9343,-8.9243,0.0,-8.8773,-8.8621,-8.847,-8.7728,-8.6715,-8.6098,-8.4734,-8.3134,-8.3457,-8.2529,-8.1244,-8.129,-8.1044,-8.0612,-8.0082,-7.9846,-7.9572,-7.8914,-7.789,-7.6863,-7.6249,-7.4501,-7.2856,-7.2856,-7.2709,-7.2563,-7.2299,-7.1664,-7.1244,-7.1769,-7.0768,-6.9573,-6.9439,-6.703,-6.4638,-6.3306,-6.1368,-5.9735,-5.8965,-5.9329,-5.9303,-5.8239,-5.8165,-5.8019,-5.7506,-5.6618,-5.5762,-5.5254,-5.4511,-5.3797,-5.3552,-5.3961,-5.3911,-5.3278,-5.2804,-5.2241,-5.1794,-5.1819,-5.1236,-5.0134,-5.0134,-4.9293,-4.7749,-4.7234,-4.5938,-4.284,-4.57,-4.7118,-4.3561,-4.6139,-4.9332,-4.8581,-4.852,-4.9163,-5.0927,-5.1769,-5.3101,-5.5879,-5.881,-6.1424,-6.328,-6.6894,-7.1182,0.0,0.0,-8.0968,-8.4734,0.0,0.0,0.0,0.0,0.0,0.0,0.0,0.0,0.0,-8.8574,-8.8739,-8.8894,-8.9028,-8.9232,-8.947,-8.959,-8.9568,-8.9475,-8.954,-8.9534,-8.9394,-8.9281,-8.9129,0.0,0.0,-8.8543,-8.8399,-8.8248,-8.809,-8.7893,-8.7074,-8.5733,-8.4379,-8.4949,-8.3649,-8.1704,-8.1758,-8.1229,-8.0578,-8.0104,-7.9869,-7.948,-7.8084,-7.6863,-7.5896,-7.4797,-7.3756,-7.3055,-7.3055,-7.2971,-7.2825,-7.2446,-7.2416,-7.2299,-7.1921,-7.1802,-7.1534,-7.0236,-6.8782,-6.7061,-6.5534,-6.3794,-6.2249,-6.0743,-6.131,-6.1258,-5.9408,-5.9735,-5.9831,-5.8979,-5.8608,-5.7979,-5.7019,-5.6653,-5.5846,-5.4347,-5.5813,-5.6148,-5.4832,-5.3903,-5.3194,-5.3044,-5.2887,-5.268,-5.2217,-5.2084,-5.1212,-4.9495,-4.8282,-4.6885,-4.012,-4.4364,-4.846,-4.8526,-5.0514,-5.2641,-5.2828,-5.2661,-5.2527,-5.283,-5.3953,-5.5357,-5.6981,-5.8203,-5.9965,-6.3061,-6.561,-7.0046,-7.8157,-8.2003,-8.4801,-8.7124,0.0,0.0,0.0,0.0,0.0,0.0,0.0,0.0,0.0,-8.8856,-8.9,-8.9157,-8.9279,-8.9464,-8.9741,-8.9664,-8.9598,-8.9568,-8.9505,-8.9367,-8.9243,-8.9098,-8.8995,0.0,0.0,0.0,-8.8251,-8.7893,-8.7336,-8.6743,-8.6364,-8.5663,-8.4799,-8.4471,-8.41,-8.3647,-8.3251,-8.2446,-8.1431,-7.9857,-7.9321,-7.8981,-7.7497,-7.6417,-7.5399,-7.4814,-7.4122,-7.3531,-7.3531,-7.3253,-7.2856,-7.2825,-7.2825,-7.2593,-7.1623,-7.1385,-7.0874,-6.9121,-6.7921,-6.6988,-6.5751,-6.4942,-6.4343,-6.4016,-6.4152,-6.4152,-6.3772,-6.3057,-6.2415,-6.223,-6.05,-5.932,-5.9164,-5.8011,-5.7502,-5.7698,-5.801,-5.8005,-5.7553,-5.7212,-5.6537,-5.5266,-5.4923,-5.3486,-5.1054,-5.0627,-4.9085,-4.6418,-4.6134,-4.518,-4.0349,-4.3799,-4.737,-4.8155,-5.0149,-5.2009,-5.254,-5.2684,-5.2998,-5.4239,-5.4394,-5.5117,-5.768,-5.8565,-6.0289,-6.4375,-6.6179,-6.9182,-7.5099,-7.9777,-8.4024,-8.7641,-8.8093,0.0,0.0,0.0,0.0,0.0,0.0,0.0,0.0,-8.9081,-8.9294,-8.9427,-8.9489,-8.9568,-8.9707,-8.9665,-8.9552,-8.9405,-8.9243,-8.9151,-8.9017,-8.8963,-8.8796,0.0,0.0,0.0,-8.7618,-8.7435,-8.6929,-8.622,-8.5655,-8.5211,-8.4639,-8.4036,-8.3647,-8.3356,-8.3169,-8.2637,-8.1842,-8.0718,-7.9835,-7.9008,-7.7563,-7.6384,-7.5323,-7.4846,-7.4407,-7.4154,-7.4154,-7.4074,-7.3737,-7.3367,-7.2848,-7.2269,-7.1474,-7.0874,-7.0114,-6.8743,-6.8078,-6.7434,-6.5912,-6.551,-6.5078,-6.4807,-6.4671,-6.4671,-6.4671,-6.3848,-6.3293,-6.3293,-6.2003,-6.1058,-6.0291,-6.0317,-6.0256,-6.0395,-6.0395,-5.9943,-5.9043,-5.8854,-5.831,-5.7088,-5.6202,-5.4809,-5.2778,-5.1921,-5.0921,-4.9484,-4.8256,-4.7189,-4.2064,0.0,-4.7029,-4.8329,-5.0156,-5.1895,0.0,-5.2839,-5.351,-5.5764,-5.4942,-5.4905,-5.8362,-5.935,-6.0934,-6.4972,-6.6481,-6.8444,-7.2206,-7.6689,-8.1625,-8.7133,-8.7766,0.0,0.0,0.0,0.0,0.0,0.0,0.0,0.0,-8.9331,-8.9505,-8.9603,-8.9557,-8.9585,-8.9581,-8.9518,-8.9394,-8.9189,-8.9044,-8.8894,-8.8787,-8.8749,0.0,0.0,0.0,0.0,-8.7085,-8.6843,-8.6381,-8.575,-8.5024,-8.4573,-8.4203,-8.3612,-8.3244,-8.2943,-8.2943,-8.2671,-8.2279,-8.1514,-8.0247,-7.8753,-7.7365,-7.6281,-7.5537,-7.5172,-7.4955,-7.4846,-7.4846,-7.4627,-7.4265,-7.35,-7.2556,-7.1739,-7.0844,-6.9991,-6.9188,-6.8235,-6.8008,-6.7592,-6.6178,-6.5912,-6.5778,-6.5375,-6.5241,-6.5241,-6.5241,-6.4397,-6.3848,-6.3848,-6.3067,-6.2188,-6.1318,-6.2449,-6.2927,-6.2389,-6.2389,-6.1686,-5.993,-6.0185,-5.9796,-5.8336,-5.7337,-5.6323,-5.536,-5.4254,-5.3322,-5.2742,-5.0577,-4.9414,0.0,-4.7309,-4.975,-5.2242,-5.3695,-5.4796,-5.568,-5.5568,0.0,-5.7574,-5.6418,-5.6059,-5.9193,-6.0212,-6.1208,-6.3257,-6.5038,-6.7873,-7.2705,-7.5072,-7.8781,0.0,-8.626,0.0,0.0,0.0,0.0,0.0,0.0,0.0,0.0,-8.9494,-8.9609,-8.9619,-8.9483,-8.9448,-8.9442,-8.93,-8.9189,-8.9047,-8.8908,-8.8782,-8.8683,-8.8505,0.0,0.0,0.0,0.0,0.0,-8.6202,-8.5491,-8.4996,-8.4445,-8.3896,-8.3502,-8.343,-8.3356,-8.3391,-8.3391,-8.3094,-8.2637,-8.1692,-7.9913,-7.7793,-7.6033,-7.5887,-7.6338,-7.6234,-7.5887,-7.5323,-7.5323,-7.4533,-7.35,-7.2525,-7.1769,-7.0874,-6.8995,-6.8617,-6.8235,-6.7129,-6.7027,-6.6895,-6.6764,-6.6764,-6.6764,-6.6764,-6.6764,-6.6764,-6.6764,-6.551,-6.4671,-6.4671,-6.3346,-6.2504,-6.2425,-6.3682,-6.426,-6.3571,-6.3432,-6.254,-6.0728,-6.1806,-6.1327,-5.8855,-5.8912,-5.8686,-5.8211,-5.6653,-5.4678,-5.2269,-5.1096,-4.9918,-4.7592,-4.9443,-5.1166,-5.4026,-5.6091,-5.7232,-5.6352,-5.625,-5.6381,-5.6488,-5.5246,-5.5123,-5.8519,-5.935,-6.0783,-6.4461,-6.5701,-6.7604,-7.1607,-7.5332,-7.8673,-8.1293,0.0,0.0,0.0,0.0,0.0,0.0,0.0,0.0,0.0,-8.9575,-8.956,-8.9481,-8.9367,-8.9319,-8.9287,-8.9157,-8.9006,-8.8931,-8.8846,-8.8749,-8.8612,-8.8505,0.0,0.0,0.0,0.0,0.0,-8.575,-8.4969,-8.4346,-8.4037,-8.3682,-8.3356,-8.3356,-8.3356,-8.3283,-8.2574,-8.2229,-8.1831,-8.0529,-7.9495,-7.8502,-7.7195,-7.6617,-7.6338,-7.6338,-7.6234,-7.5992,-7.5992,-7.5675,-7.5216,-7.4391,-7.3015,-7.1502,-7.0361,-6.9062,-6.7879,-6.752,-6.7288,-6.7186,-6.7186,-6.7027,-6.6895,-6.6895,-6.6895,-6.6895,-6.6895,-6.5912,-6.5375,-6.5375,-6.4561,-6.3874,-6.3874,-6.4397,-6.4671,-6.426,-6.426,-6.3682,-6.2566,-6.2874,-6.2619,-6.1196,-6.047,-5.9953,-5.9784,-5.849,-5.6639,-5.4379,-5.3328,-5.2135,-4.8893,-5.0565,-5.2311,-5.5763,-5.812,-5.9208,-5.7759,-5.7321,-5.715,-5.666,-5.5047,-5.491,-5.892,-5.9733,-6.105,-6.4868,-6.6003,-6.7825,-7.1696,-7.5601,-7.8476,-7.9652,-8.4747,-8.8221,0.0,0.0,0.0,0.0,0.0,0.0,0.0,-8.956,-8.9492,-8.9354,-8.9227,-8.9159,-8.9157,-8.9038,-8.8886,-8.8771,-8.8782,-8.8683,-8.8505,-8.8251,0.0,0.0,0.0,0.0,0.0,-8.5086,-8.4445,-8.4002,-8.3753,-8.3573,-8.3356,-8.3356,-8.3356,-8.3283,-8.2497,-8.1991,-8.1554,-8.0146,-7.9462,-7.8848,-7.7793,-7.6956,-7.6435,-7.6886,-7.7014,-7.6918,-7.6467,-7.6234,-7.5749,-7.4611,-7.3098,-7.156,-7.0361,-6.8966,-6.7779,-6.7779,-6.7548,-6.7447,-6.7316,-6.7027,-6.6895,-6.6895,-6.6895,-6.6895,-6.6895,-6.6206,-6.5644,-6.5644,-6.5078,-6.4942,-6.5375,-6.5375,-6.5241,-6.5078,-6.5078,-6.4397,-6.3127,-6.3405,-6.2733,-6.0907,-6.0422,-5.996,-5.9521,-5.8338,-5.7248,-5.6074,-5.4933,-5.3844,-4.8367,-5.0618,-5.3328,-5.7751,-5.9803,-6.055,-6.0142,-5.9173,-5.8374,-5.8611,-5.6284,-5.5755,-6.0697,-6.1697,-6.2309,-6.3895,-6.5702,-6.8601,-7.3566,-7.5647,-7.7888,0.0,0.0,-8.6712,-8.6712,0.0,0.0,0.0,0.0,0.0,0.0,-8.9504,-8.935,-8.9218,-8.907,-8.9038,-8.9028,-8.8894,-8.8771,-8.8612,-8.8612,-8.847,-8.8251,-8.7703,-8.7353,0.0,0.0,0.0,0.0,-8.4381,-8.4002,-8.3896,-8.3538,-8.3356,-8.3356,-8.3356,-8.3356,-8.3356,-8.3356,-8.2797,-8.1866,-8.0923,-7.9666,-7.8373,-7.7528,-7.6887,-7.6692,-7.8109,-7.8528,-7.8174,-7.6757,-7.5919,-7.486,-7.2641,-7.1678,-7.0574,-6.8362,-6.7908,-6.7779,-6.7577,-6.7447,-6.7316,-6.6895,-6.6895,-6.6895,-6.6895,-6.6895,-6.6895,-6.6895,-6.6206,-6.5644,-6.5778,-6.5105,-6.5403,-6.6792,-6.6924,-6.65,-6.5806,-6.5644,-6.4507,-6.1948,-6.2987,-6.1548,-5.7336,-5.8362,-5.8362,-5.7185,-5.6013,-5.6013,-5.7185,-5.6013,-5.4882,-4.6918,-4.8821,-5.1408,-5.8065,-6.063,-6.1022,-5.9212,-5.8617,-5.7952,-5.6085,-5.4987,-5.5553,-5.9407,-6.0147,-6.1104,-6.3942,-6.6792,-7.0008,-7.4006,-7.7941,-8.1217,-8.3439,0.0,-8.741,0.0,0.0,0.0,0.0,0.0,0.0,0.0,-8.9394,-8.9242,-8.907,-8.9038,-8.9019,-8.9028,-8.8908,-8.8814,-8.8787,-8.8577,-8.8288,-8.7823,-8.7487,-8.7085,-8.6642,0.0,0.0,0.0,-8.4346,-8.3932,-8.3825,-8.3538,-8.3356,-8.3356,-8.3356,-8.3356,-8.3173,-8.1751,-8.1058,-8.0547,-7.8781,-7.7825,-7.7687,-7.9567,-7.973,-7.9365,-7.9783,-7.9912,-7.9816,-7.9397,-7.7705,-7.5806,-7.4232,-7.2287,-7.0664,-7.0084,-6.9275,-6.8605,-6.8605,-6.835,-6.8065,-6.7936,-6.7779,-6.7548,-6.7316,-6.7316,-6.7186,-6.6895,-6.7496,-6.7587,-6.6584,-6.7879,-6.9052,-6.9491,-6.8701,-6.7627,-6.6342,-6.5381,-6.3904,-6.1522,-6.282,-6.2707,-6.083,-6.2258,-6.2258,-6.0856,-6.0541,-5.9985,-5.9327,-5.8088,-5.7317,-4.5812,-4.8394,-5.1752,-5.7376,-6.0645,-6.1877,-5.9357,-5.8864,-5.8146,-5.5167,-5.457,-5.5615,-5.9005,-6.0189,-6.1931,-6.5895,-6.8746,-7.2362,-7.7826,-8.1153,-8.3938,-8.6301,-8.7461,0.0,0.0,0.0,0.0,0.0,0.0,0.0,-8.9451,-8.9256,-8.9119,-8.9038,-8.9019,-8.8999,-8.8939,-8.8883,-8.8716,-8.8435,-8.8288,-8.7904,-8.7271,-8.6892,-8.6487,-8.6035,-8.538,0.0,0.0,-8.4851,-8.4816,-8.4777,-8.5085,-8.5257,-8.5222,-8.4806,-8.4616,-8.4425,-8.2755,-8.1784,-8.1268,-8.0129,-7.9298,-7.9073,-8.0934,-8.11,-8.0762,-8.12,-8.0942,-8.051,-8.0497,-7.8976,-7.6876,-7.5136,-7.3433,-7.2123,-7.1653,-7.0953,-7.0498,-7.0398,-6.9704,-6.9373,-6.9733,-6.9127,-6.8694,-6.9105,-6.9191,-6.903,-6.8869,-6.9417,-6.948,-6.8715,-6.9836,-7.0369,-6.9557,-6.8246,-6.7411,-6.7128,-6.5396,-6.3881,-6.2916,-6.2778,-6.2001,-6.0856,-6.169,-6.1548,-6.0131,-6.0131,-5.9718,-5.871,-5.7963,-5.7662,-4.532,-4.9008,-5.3519,-5.6523,-6.0455,-6.287,-6.0105,-5.9711,-5.8923,-5.5501,-5.4917,-5.6045,-5.9262,-6.1386,-6.4165,-6.8856,-7.1402,-7.5581,-8.3477,-8.4852,-8.6169,-8.925,0.0,0.0,-8.9626,-8.9743,0.0,0.0,0.0,0.0,-8.9197,-8.9119,-8.9038,-8.9057,-8.9028,-8.8939,-8.8852,-8.8899,-8.8658,-8.8087,-8.8115,-8.776,-8.7015,-8.6528,-8.614,-8.5849,-8.5114,0.0,0.0,-8.5915,-8.6296,-8.6438,-8.7587,-8.8038,-8.796,-8.6855,-8.6485,-8.6315,-8.5194,-8.4117,-8.3213,-8.341,-8.2843,-8.2133,-8.1952,-8.163,-8.1672,-8.26,-8.1908,-8.0946,-8.1015,-7.9915,-7.8086,-7.5673,-7.4696,-7.4092,-7.2974,-7.2708,-7.2633,-7.251,-7.1613,-7.1047,-7.1904,-7.0993,-7.0591,-7.1625,-7.1797,-7.1797,-7.1797,-7.1503,-7.1371,-7.1485,-7.1179,-7.0162,-6.8576,-6.6901,-6.6352,-6.7562,-6.513,-6.4008,-6.4763,-6.2472,-6.0371,-5.866,-5.866,-5.8088,-5.6906,-5.6906,-5.6754,-5.6625,-5.6625,-5.6625,-4.7951,-5.0509,-5.381,-5.9707,-6.2538,-6.3111,-6.0293,-6.0709,-6.0358,-5.5756,-5.5885,-5.7411,-5.9354,-6.2194,-6.5464,-6.9146,-7.4425,-7.9606,-8.4083,-8.7021,-8.8907,-8.9513,-8.9606,0.0,-8.9594,-8.9632,0.0,0.0,0.0,0.0,-8.9197,-8.9103,-8.9019,-8.9028,-8.8908,-8.8883,-8.8819,-8.9556,-8.9799,-8.9551,-9.0302,-9.0182,-8.9472,-8.9337,-8.8965,-8.8399,-8.8227,0.0,0.0,-8.8007,-8.7926,-8.7693,-8.7932,-8.8038,-8.796,-8.6855,-8.6485,-8.6195,-8.4494,-8.3704,-8.341,-8.2779,-8.3458,-8.4616,-8.4728,-8.4616,-8.4343,-8.4259,-8.4244,-8.4229,-8.3912,-8.2087,-7.9803,-7.8196,-7.5422,-7.3077,-7.2708,-7.2708,-7.3028,-7.391,-7.3881,-7.3765,-7.4027,-7.3852,-7.3311,-7.2346,-7.2231,-7.2096,-7.1797,-7.2549,-7.3413,-7.4356,-7.3839,-7.282,-7.1034,-6.9688,-6.7703,-6.4679,-6.3093,-6.1892,-6.1139,-6.0618,-6.0635,-6.1496,-6.1496,-6.0779,-5.9324,-5.9324,-5.8808,-5.7584,-5.7584,-5.7584,-4.7996,-5.0666,-5.404,-5.8339,-6.1569,-6.3218,-6.1532,-6.2054,-6.1691,-5.7601,-5.7485,-5.8405,-5.9406,-6.3039,-6.6954,-7.0276,-7.6429,-8.198,-8.5303,-8.8043,-8.9678,-8.9596,-8.9676,-8.9674,-8.96,-8.9609,-8.9557,0.0,0.0,-8.9255,-8.9145,-8.9047,-8.9036,-8.8939,-8.9359,-8.9555,-8.9481,-9.0403,-9.067,-9.0369,-9.0822,-9.0585,-8.9937,-8.9913,-8.9643,-8.9119,-8.9011,0.0,-8.8602,-8.9234,-8.9321,-8.9235,-9.0009,-9.0291,-9.0096,-8.8581,-8.8017,-8.7747,-8.5749,-8.4969,-8.4762,-8.4408,-8.5063,-8.5975,-8.5942,-8.583,-8.5605,-8.5265,-8.5411,-8.5151,-8.3622,-8.2195,-8.0631,-7.8544,-7.6805,-7.5776,-7.55,-7.5995,-7.6606,-7.7274,-7.6925,-7.6693,-7.7304,-7.6896,-7.6489,-7.632,-7.5658,-7.5252,-7.4945,-7.5031,-7.4869,-7.461,-7.4203,-7.3146,-7.1011,-7.0265,-6.8647,-6.5661,-6.3612,-6.2036,-6.1066,-5.9675,-5.9424,-6.0277,-6.0277,-5.9839,-5.8981,-5.8981,-5.8734,-5.791,-5.791,-5.791,-4.8236,-5.1079,-5.4661,-5.6485,-6.0118,-6.3108,-6.2765,-6.3312,0.0,-5.9803,-5.9461,-5.9835,-6.0173,-6.4406,-6.8845,-7.1873,-7.778,-8.3142,-8.6425,-8.8184,-8.9243,0.0,-8.9647,-8.9671,-8.956,-8.954,0.0,0.0,0.0,-8.9145,-8.9028,-8.9057,-8.9089,-8.9264,-9.0078,-9.055,-9.0644,-9.1518,-9.1737,-9.1178,-9.1225,-9.0933,-9.033,-9.033,-9.0189,-8.9865,-8.961,0.0,-8.9411,-9.0414,-9.0863,-9.0924,-9.2227,-9.2755,-9.2437,-9.0426,-8.9608,-8.9354,-8.7397,-8.6495,-8.6242,-8.6637,-8.6637,-8.6527,-8.6242,-8.6131,-8.6021,-8.583,-8.5605,-8.4972,-8.2685,-8.1668,-8.0719,-7.844,-7.8558,-7.9126,-7.8931,-7.9834,-8.0592,-8.0563,-7.9718,-7.9136,-7.995,-7.9398,-7.9078,-7.9688,-7.9049,-7.8467,-7.8234,-7.6991,-7.5443,-7.3792,-7.3294,-7.2045,-6.9777,-6.9439,-6.8599,-6.6981,-6.4508,-6.2798,-6.1957,-5.9329,-5.8036,-5.8312,-5.8061,-5.791,-5.791,-5.791,-5.791,-5.791,-5.791,-5.791,-5.1896,-5.4042,-5.6309,-5.9445,-6.1397,-6.2523,-6.2436,-6.3822,-6.4167,-6.0906,-6.168,-6.3018,-6.3136,-6.7543,-7.176,-7.378,0.0,-8.303,-8.6421,-8.7099,-8.7749,-8.909,-8.9281,-8.93,-8.9299,-8.9299,-8.9233,-8.9258,-8.913,-8.9055,-8.9028,-8.9057,-8.9614,-9.0837,-9.0961,-9.1496,-9.2351,-9.3399,-9.344,-9.2665,-9.3529,-9.3765,-9.3293,-9.3293,-9.3293,-9.3218,0.0,0.0,-9.2721,-9.2821,-9.269,-9.2438,-9.2649,-9.2755,-9.2437,-9.0426,-8.9608,-8.9354,-8.7397,-8.6637,-8.6637,-8.6637,-8.6495,-8.6131,-8.6131,-8.6131,-8.6021,-8.583,-8.5086,-8.4212,-8.3622,-8.173,-8.0117,-8.0496,-8.0015,-7.9846,-8.0503,-8.1174,-8.1321,-8.1001,-8.0592,-7.9892,-7.8932,-7.9572,-7.9485,-7.7449,-7.7914,-7.8118,-7.7042,-7.5242,-7.3939,-7.3645,-7.21,-7.0242,-6.8415,-6.7938,-6.6651,-6.4123,-6.2392,-6.1411,-6.1607,-5.9304,-5.8436,-5.9789,-5.8586,-5.791,-5.791,-5.791,-5.791,-5.791,-5.791,-5.791,-5.1466,-5.3717,-5.6152,-5.9418,-6.0983,-6.2315,-6.3979,-6.5311,-6.5511,-6.322,-6.3585,-6.4137,-6.3526,-6.7881,0.0,0.0,0.0,0.0,-8.5116,-8.6232,-8.7386,0.0,-8.9227,0.0,-8.9212,-8.9204,-8.9232,0.0,-8.9092,-8.9028,-8.9028,-8.8939,-8.9638,-9.1141,-9.1148,-9.194,-9.357,-9.4243,-9.4334,-9.3781,-9.4229,-9.423,-9.3899,-9.3899,-9.3825,-9.3785,0.0,-9.3402,-9.3202,-9.3008,-9.2882,-9.2638,-9.2067,-9.1862,-9.1568,-8.9546,-8.8732,-8.8567,-8.7218,-8.667,-8.667,-8.667,-8.6527,-8.6385,-8.6385,-8.6385,-8.6385,-8.6307,-8.6497,-8.6398,-8.4799,-8.4104,-8.3377,-8.1783,-8.1572,-8.1878,-8.182,-8.2522,-8.3019,-8.284,-8.2136,-8.1113,-7.9834,-8.0066,-8.0066,-7.8932,-7.8612,-7.8089,-7.6809,-7.5871,-7.4667,-7.2821,-7.27,-7.1495,-6.8784,-6.889,-6.7895,-6.4946,-6.3314,-6.1901,-6.0523,-5.8751,-5.8162,-5.8858,-5.8162,-5.8203,-5.8813,-5.8813,-5.9106,-5.9667,-5.9667,-5.9667,-5.0466,-5.2559,-5.4938,-5.8214,-6.0102,-6.1877,-6.4568,-6.5946,-6.6298,-6.5207,-6.5236,-6.5214,0.0,0.0,0.0,-7.1914,-7.7062,0.0,-8.3436,-8.5044,0.0,-8.8355,0.0,-8.9159,-8.9146,-8.9159,0.0,0.0,-8.9038,-8.8972,-8.8972,-8.9258,-9.0138,-9.1706,-9.2054,-9.3116,-9.5134,-9.518,-9.4899,-9.4446,-9.4302,-9.4119,-9.3899,-9.3899,-9.386,-9.3745,-9.3521,-9.3437,-9.3273,-9.2963,-9.272,-9.2354,-9.1481,-9.1004,-9.0574,-8.8766,-8.8061,-8.789,-8.7004,-8.667,-8.6604,-8.6209,-8.6341,-8.6571,-8.6209,-8.6604,-8.7228,-8.7228,-8.7767,-8.7855,-8.5859,-8.5605,-8.5267,-8.2826,-8.3142,-8.3794,-8.3495,-8.4165,-8.4686,-8.4562,-8.3249,-8.1877,-8.059,-8.0183,-7.9834,-7.9514,-7.8932,-7.8089,-7.6809,-7.6183,-7.4956,-7.1991,-7.2523,-7.1798,-6.8626,-6.9047,-6.8497,-6.5961,-6.437,-6.245,-6.0326,-5.9277,-5.8691,-5.8691,-5.8691,-5.9082,-5.9887,-5.9887,-6.0277,-6.101,-6.101,-6.101,-5.0073,-5.1272,-5.2758,-5.6375,-5.8785,-6.0845,-6.2872,-6.466,-6.6001,-6.6175,-6.6597,-6.6993,0.0,0.0,-7.3405,-7.354,-7.6871,-7.9991,-8.1558,-8.3226,-8.493,0.0,0.0,0.0,0.0,0.0,0.0,-8.9057,0.0,-8.8846,-8.8846,-9.028,-9.1747,-9.3319,-9.4431,-9.5811,-9.7399,-9.6486,-9.5459,-9.4446,-9.4302,-9.4119,-9.3899,-9.3899,-9.3899,-9.3899,-9.3899,-9.3785,-9.3592,-9.3402,-9.2614,-9.1568,-9.1271,-9.0609,-8.9512,-8.8467,-8.8061,-8.789,-8.7004,-8.667,-8.6407,-8.4993,-8.5486,-8.6407,-8.496,-8.6472,-8.8741,-8.8741,-8.7855,-8.6999,-8.6872,-8.4907,-8.3252,-8.3874,-8.4377,-8.491,-8.572,-8.6315,-8.6344,-8.5626,-8.344,-8.1409,-8.0592,-7.9427,-7.8234,-7.7013,-7.7798,-7.8089,-7.6809,-7.53,-7.3764,-7.1867,-7.0524,-6.8864,-6.7187,-6.6701,-6.6188,-6.5622,-6.4112,-6.3009,-6.2449,-6.1424,-6.0863,-6.0863,-6.0863,-6.0888,-6.0936,-6.0936,-6.0961,-6.101,-6.101,-6.101,-4.9806,-5.1373,-5.2836,-5.64,-5.8138,-5.9744,-6.2552,-6.3789,-6.4719,-6.5921,-6.6427,-6.6751,-6.6849,-6.924,-7.1655,-7.2972,-7.5413,-7.8213,-8.1116,-8.2955,-8.4672,-8.638,-8.7939,-8.8944,0.0,0.0,0.0,-8.8931,-8.8877,-8.8852,-8.8852,-9.0288,-9.1719,-9.2941,-9.4486,-9.5711,-9.6541,-9.6255,-9.5586,-9.4728,-9.441,-9.4119,-9.3899,-9.3899,-9.3899,-9.3899,-9.3785,-9.3253,-9.2427,-9.2214,-9.1411,-9.0206,-8.945,-8.893,-8.8467,-8.7541,-8.7185,-8.6813,-8.4646,-8.3776,-8.371,-8.3184,-8.3349,-8.371,-8.3151,-8.3743,-8.4656,-8.4663,-8.574,-8.6643,-8.5748,-8.6124,-8.6475,-8.5539,-8.5541,-8.566,-8.5688,-8.5777,-8.5777,-8.5202,-8.3085,-8.1147,-8.0592,-7.87,-7.7158,-7.6693,-7.6217,-7.5383,-7.3736,-7.2942,-7.2045,-7.037,-6.9777,-6.8706,-6.7025,-6.6564,-6.6238,-6.6049,-6.4536,-6.3592,-6.3132,-6.2074,-6.1351,-6.101,-6.101,-6.1351,-6.2035,-6.2035,-6.2401,-6.3133,-6.3133,-6.3133,-4.8828,-5.0447,-5.2169,-5.4757,-5.6789,-5.8879,-6.1427,-6.2817,-6.3975,-6.5664,-6.6185,-6.6379,-6.6521,-6.8378,-7.0495,-7.2354,-7.439,-7.6777,-7.9731,-8.1763,-8.354,-8.5211,-8.6996,0.0,0.0,0.0,0.0,-8.8604,-8.8712,-8.8612,-8.8288,-8.9966,-9.1415,-9.2434,-9.3914,-9.5085,-9.6018,-9.632,-9.6229,-9.5626,-9.5845,-9.584,-9.5545,-9.5505,-9.554,-9.554,-9.5042,-9.4293,-9.3361,-9.2853,-9.1812,-9.0517,-8.8736,-8.8224,-8.8107,-8.5972,-8.5453,-8.5617,-8.3645,-8.2625,-8.2132,-8.1639,-8.1836,-8.2099,-8.1639,-8.2165,-8.3007,-8.3147,-8.4586,-8.5884,-8.4998,-8.5774,-8.6444,-8.5354,-8.4946,-8.5035,-8.5185,-8.5274,-8.5244,-8.5265,-8.3587,-8.1939,-8.1528,-7.9393,-7.7697,-7.7697,-7.5901,-7.409,-7.2794,-7.2018,-7.1109,-6.9648,-6.9335,-6.8706,-6.7025,-6.6701,-6.6401,-6.6238,-6.5185,-6.4299,-6.3861,-6.317,-6.2455,-6.2132,-6.2108,-6.2474,-6.3182,-6.3182,-6.3572,-6.4304,-6.4304,-6.4304,-4.7122,-4.8584,-5.0692,-5.1531,-5.4853,-5.8171,-5.954,-6.1675,-6.3789,-6.5564,-6.5987,-6.6136,-6.6283,-6.8129,-7.0175,-7.1786,-7.3749,-7.5688,-7.7277,-7.9432,-8.1428,-8.2994,-8.5124,-8.7071,0.0,-8.8637,-8.8435,-8.8061,-8.8399,-8.8138,-8.7132,-8.9204,-9.0878,-9.1911,-9.2981,-9.4376,-9.5958,-9.6888,-9.7313,-9.721,-9.854,-9.9145,-9.8918,-9.8758,-9.8716,-9.8673,-9.7635,-9.6896,-9.6404,-9.5316,-9.3911,-9.2297,-8.9235,-8.8367,-8.8248,-8.3842,-8.3119,-8.4335,-8.4269,-8.3316,-8.1869,-8.0488,-8.0949,-8.1836,-8.0488,-8.2066,-8.4211,-8.4358,-8.4601,-8.4699,-8.4773,-8.3776,-8.2811,-8.2811,-8.2811,-8.314,-8.4367,-8.4666,-8.5055,-8.5898,-8.5007,-8.3969,-8.3646,-8.1374,-7.9693,-7.9634,-7.6877,-7.461,-7.4405,-7.2821,-7.1109,-6.9491,-6.9335,-6.8706,-6.7025,-6.6863,-6.6701,-6.6401,-6.5885,-6.5392,-6.4921,-6.4613,-6.4471,-6.4304,-6.4304,-6.4304,-6.4304,-6.4304,-6.4304,-6.4304,-6.4304,-6.4304,-4.9574,-4.9662,0.0,-5.3073,-5.4854,-5.6612,-5.9717,-6.108,-6.2532,-6.5413,-6.6087,-6.6185,-6.6379,-6.6939,-6.8048,-7.0011,-7.1719,-7.3508,-7.5452,-7.8505,-8.1216,-8.2999,-8.4993,-8.6223,-8.6276,-8.7039,-8.7487,-8.7362,-8.7443,-8.7398,-8.7085,-8.9918,-9.1455,-9.1352,-9.3923,-9.5337,-9.5301,-9.5572,-9.623,-9.7174,-9.624,-9.6955,-9.8882,-9.7651,-9.7287,-9.7635,-9.7346,-9.615,-9.4475,-9.3911,-9.2306,-9.0053,-8.8997,-8.8117,-8.6834,-8.3447,-8.2461,-8.2658,-8.1639,-8.0324,-7.9009,-7.8647,-7.8779,-7.9206,-7.9896,-8.0653,-8.1323,-8.1564,-8.227,-8.2946,-8.2152,-8.2342,-8.2811,-8.2811,-8.2811,-8.2931,-8.326,-8.4068,-8.4816,-8.4737,-8.4383,-8.3672,-8.2464,-8.0784,-7.9228,-7.8117,-7.7336,-7.6419,-7.5157,-7.2346,-6.9777,-6.7778,-6.7644,-6.7322,-6.6863,-6.6863,-6.6863,-6.6701,-6.6539,-6.6376,-6.5911,-6.5417,-6.5062,-6.4755,-6.4447,-6.4304,-6.4304,-6.4304,-6.4304,-6.4304,-6.4304,-6.4304,-4.7168,-4.7535,0.0,0.0,-5.1424,-5.3235,-5.8699,-5.9752,-6.0845,-6.5048,-6.5987,-6.6087,-6.6283,-6.6379,-6.7027,0.0,-7.0637,-7.2331,-7.4222,-7.7048,-7.9634,-8.1582,-8.2851,-8.3966,-8.4983,-8.572,-8.629,-8.6756,-8.6941,-8.6892,-8.6471,-8.8438,-8.9962,-9.0791,-9.268,-9.4089,-9.5071,-9.5721,-9.6447,-9.7279,-9.739,-9.803,-9.9106,-9.8579,-9.7953,-9.7104,-9.6311,-9.5849,-9.5405,-9.3451,-9.1987,-9.0804,-8.8721,-8.7787,-8.713,-8.3513,-8.1836,-8.1212,-8.039,-7.914,-7.7891,-7.7891,-7.7891,-7.8187,-7.9666,-7.9757,-7.9447,-8.0203,-8.0572,-8.064,-8.012,-8.0567,-8.1136,-8.1136,-8.1136,-8.1285,-8.1884,-8.3021,-8.4068,-8.4287,-8.4854,-8.4827,-8.3937,-8.2719,-8.0779,-7.7907,-7.789,-7.6955,-7.3433,-7.1416,-6.9546,-6.7051,-6.6863,-6.6863,-6.6863,-6.6863,-6.6863,-6.6863,-6.6701,-6.6401,-6.5885,-6.5557,-6.5062,-6.478,-6.4447,-6.4304,-6.4304,-6.4304,-6.4304,-6.4304,-6.4304,-6.4447,-4.202,-4.3588,0.0,-4.5402,-4.6326,-4.8963,0.0,0.0,-5.8199,-6.3544,-6.4747,-6.5077,-6.5728,-6.5982,-6.6619,-6.8424,-7.0048,-7.1601,-7.319,-7.5218,-7.7194,-7.9078,-7.9556,-8.0873,-8.3834,-8.4413,-8.4982,-8.5892,-8.6568,-8.6523,-8.5599,-8.614,-8.7724,-9.0269,-9.0557,-9.2146,-9.5288,-9.6696,-9.7562,-9.796,-10.0305,-10.0835,-9.9902,-10.0701,-9.9846,-9.7648,-9.5739,-9.6194,-9.7882,-9.3776,-9.2498,-9.2621,-8.8403,-8.7228,-8.7623,-8.3678,-8.131,-8.0094,-8.0094,-7.914,-7.7891,-7.7891,-7.7891,-7.8187,-7.9666,-7.9411,-7.8859,-8.0118,-7.9771,-7.8931,-7.8843,-7.8772,-7.8772,-7.8772,-7.8772,-7.9131,-8.0358,-8.1674,-8.2991,-8.4247,-8.5534,-8.6431,-8.6431,-8.5474,-8.3283,-7.902,-7.8835,-7.7137,-7.1686,-7.1236,-7.0518,-6.8132,-6.7442,-6.7066,-6.7066,-6.6939,-6.6863,-6.6863,-6.6564,-6.6074,-6.5721,-6.5227,-6.4755,-6.4447,-6.4471,-6.4304,-6.4304,-6.4304,-6.4304,-6.4447,-6.4304,-6.4417,0.0,0.0,0.0,0.0,0.0,0.0,0.0,0.0,-5.1775,-5.684,-5.8208,-5.9742,-6.3644,-6.4504,-6.5102,-6.669,-6.8351,-6.9976,-7.1565,-7.3582,-7.5054,-7.5475,-7.7464,-7.9181,-8.0096,-8.2179,-8.3611,-8.3765,-8.5076,-8.5705,-8.5539,-8.6925,-8.8516,-9.0305,-9.1605,-9.3771,-9.6912,-9.7237,-9.8718,-10.1318,-10.0343,-10.106,-10.3025,-10.1758,-10.1158,-10.0868,-9.9629,-9.8993,-9.8371,-9.5057,-9.2344,-9.011,-8.7612,-8.5462,-8.3728,-8.2631,-8.131,-8.0094,-8.0094,-7.914,-7.7891,-7.7891,-7.7891,-7.8187,-7.9666,-8.0678,-8.1227,-8.0635,-8.1154,-8.1326,-7.9318,-7.8772,-7.8772,-7.8772,-7.8772,-7.8862,-7.9131,-8.0268,-8.1614,-8.2931,-8.4217,-8.5085,-8.5085,-8.4875,-8.4053,-8.1699,-8.1187,-8.0057,-7.7723,-7.5952,-7.4541,-7.3875,-7.0529,-6.8286,-6.8286,-6.7397,-6.6863,-6.6863,-6.6863,-6.6701,-6.6701,-6.5885,-6.5392,-6.5227,-6.4613,-6.4304,-6.4304,-6.4304,-6.4447,-6.4755,-6.4447,-6.3215,0.0,0.0,0.0,0.0,0.0,0.0,0.0,0.0,0.0,0.0,0.0,-5.6668,0.0,0.0,-6.2701,-6.5968,-6.7882,-6.9254,-7.0048,-7.2394,-7.4079,-7.4079,-7.5277,-7.68,-7.8624,-8.0761,-8.2361,-8.3119,-8.4672,-8.5539,-8.5539,-8.6333,-8.7524,-8.9149,-9.1496,-9.3843,-9.6226,-9.7851,-9.9476,-10.1065,-10.0776,-10.106,-10.1661,-10.1364,-10.0379,-9.8797,-9.9004,-9.7449,-9.4544,-9.3718,-9.1111,-8.7408,-8.4625,-8.2668,-8.1284,-8.0425,-7.9601,-7.9009,-7.9009,-7.8516,-7.7891,-7.7891,-7.7891,-7.8187,-7.9666,-8.0145,-8.0215,-8.0392,-8.0509,-8.0331,-7.9096,-7.8772,-7.8772,-7.8772,-7.8772,-7.8772,-7.8772,-7.9879,-8.1046,-8.1734,-8.338,-8.4696,-8.4696,-8.4696,-8.3672,-8.0417,-8.0385,-7.9401,-7.5781,-7.4415,-7.2928,-7.0654,-6.8351,-6.6736,-6.6127,-6.5542,-6.5669,-6.6787,-6.6863,-6.6701,-6.6188,-6.5696,-6.5392,-6.4921,-6.3908,-6.3206,-6.2645,-6.2157,-6.1755,-6.1642,-6.1691,-6.128,0.0,0.0,0.0,0.0,0.0,0.0,0.0,0.0,0.0,0.0,0.0,0.0,0.0,0.0,0.0,-6.5282,-6.7413,-6.8604,-6.8929,-7.1168,-7.2865,-7.319,-7.3479,-7.4815,-7.7739,-7.9761,-8.1386,-8.265,-8.4491,-8.5539,-8.5539,-8.5539,-8.6441,-8.8427,-9.1244,-9.3771,-9.5974,-9.8898,-10.0523,-10.0848,0.0,0.0,-10.0261,-10.1005,-9.9456,-9.6107,-9.6801,-9.4646,-9.0643,-9.1212,-8.9127,-8.5347,-8.1719,-8.0065,-7.9635,-7.845,-7.7891,-7.7891,-7.7891,-7.7891,-7.7891,-7.7891,-7.7891,-7.8121,-7.9305,-7.8982,0.0,-7.9423,-7.9121,-7.856,-7.835,-7.8593,-7.8772,-7.8772,-7.8772,-7.8772,-7.8772,-7.967,-8.0537,-8.0807,-8.2542,-8.4038,-8.4277,-8.4163,-8.2438,-7.8101,-7.8655,-7.7668,-7.246,-7.2071,-7.0869,-6.7092,-6.621,-6.5568,-6.4602,-6.4145,-6.4729,-6.6736,-6.666,-6.6134,-6.526,-6.5072,-6.4608,-6.4,-6.2514,-6.1473,-6.101,-5.9789,-5.8996,-5.8362,-5.7367,-5.7681,0.0,0.0,0.0,0.0,0.0,0.0,0.0,0.0,0.0,0.0,0.0,0.0,0.0,0.0,0.0,0.0,-6.5716,-6.7268,-6.8785,-6.929,-7.0048,-7.1421,-7.2829,-7.4345,-7.6115,-7.9039,-8.0917,-8.1097,-8.3842,-8.5539,-8.5539,0.0,0.0,0.0,0.0,-9.4854,-9.9332,-10.1101,-10.269,-10.4062,-10.4242,-10.4018,-10.342,-10.2199,-10.0177,-9.753,-9.5124,-9.2693,-9.0408,-8.786,-8.6419,-8.5281,-8.1201,-7.9308,-7.8801,-7.8152,-7.7891,-7.7891,-7.7891,0.0,0.0,-7.7891,-7.7891,-7.7957,-7.8088,-7.827,-7.8088,-7.7087,-7.778,-7.8377,-7.7369,-7.7905,-7.8772,-7.8772,-7.8772,-7.8772,-7.8772,-7.8922,-7.9371,-8.0627,-8.1106,-8.1644,-8.2841,-8.1728,-7.9538,-7.6618,-7.7002,-7.6184,-7.2752,-7.2939,-7.2928,-7.2099,0.0,0.0,-6.8057,-6.6228,-6.5618,-6.6787,-6.5999,-6.5009,-6.3812,-6.3476,-6.2982,-6.251,-5.999,-5.9536,-6.101,-5.929,-5.8684,-5.8857,-5.2318,-5.039,0.0,0.0,0.0,0.0,0.0,0.0,0.0,0.0,0.0,0.0,0.0,0.0,0.0,0.0,0.0,0.0,-6.3332,-6.4343,-6.5932,-6.781,-6.9579,-7.1132,-7.272,-7.4273,-7.5862,-7.81,-7.987,-8.0772,-8.2903,-8.4564,-8.5502,-8.5539,-8.6152,-8.7524,-9.0919,-9.3699,-9.5721,-9.9151,-10.1209,-10.1859,-10.1751,-10.153,-10.1266,-10.0508,-9.9099,0.0,-9.4646,-9.2215,-8.9878,-8.6314,-8.4273,0.0,0.0,0.0,0.0,0.0,-7.8119,-7.7891,-7.7891,-7.7891,-7.7891,-7.7891,-7.7891,-7.7891,-7.7891,-7.7553,-7.6996,-7.6487,-7.6412,-7.639,-7.6669,-7.7247,-7.7845,-7.8593,-7.8772,-7.8772,-7.8772,-7.8772,-7.8952,-7.955,-8.0328,0.0,-8.0537,-8.049,-7.9452,-7.6335,-7.6569,-7.5945,-7.2886,-7.225,-7.1259,-6.9118,-6.756,-6.6406,-6.572,-6.4831,0.0,0.0,0.0,-6.5999,-6.5491,-6.5173,0.0,0.0,0.0,0.0,0.0,0.0,0.0,0.0,-4.8798,-4.8463,0.0,0.0,0.0,0.0,0.0,0.0,0.0,0.0,0.0,0.0,0.0,0.0,0.0,0.0,0.0,0.0,0.0,-6.2321,-6.391,-6.6943,-6.9579,-7.1132,-7.272,-7.4129,-7.5248,-7.727,-7.8967,-8.0122,-8.2072,-8.3661,-8.4816,-8.5286,-8.5755,-8.6225,-9.0052,-9.2471,-9.3374,-9.7273,-9.9476,-9.9909,-9.9623,-9.9477,-9.9328,-9.8335,-9.7091,-9.5424,-9.2486,-8.9794,-8.7354,-8.4089,-8.2027,-8.0921,-7.9696,-7.9202,-7.9014,-7.8602,-7.8313,-7.8022,-7.7989,-7.7891,-7.7891,-7.7891,-7.7891,-7.7891,-7.7891,-7.6928,-7.5739,-7.5856,-7.5092,-7.4377,-7.5468,-7.602,-7.6618,-7.7935,-7.8234,-7.8353,-7.8712,-7.8772,-7.8772,-7.8772,-7.958,-7.9969,-7.8952,-7.9171,-7.8505,-7.5287,-7.5257,0.0,-7.1226,-7.0644,-6.9376,-6.6611,-6.6063,-6.5548,-6.4526,-6.4196,-6.4831,-6.6736,-6.6584,-6.6558,-6.6838,-6.5957,-6.4577,-6.2631,-5.893,-5.4946,0.0,0.0,0.0,0.0,0.0,0.0,0.0,0.0,0.0,0.0,0.0,0.0,0.0,0.0,0.0,0.0,0.0,0.0,0.0,0.0,0.0,0.0,0.0,0.0,-6.391,-6.6943,-6.9579,-7.1132,-7.272,-7.3695,-7.3731,-7.662,-7.8534,-7.8606,-8.1422,-8.3228,-8.3264,-8.4708,-8.6297,-8.7922,-8.9583,-9.193,-9.4963,-9.6768,-9.8393,-9.9909,-9.9623,-9.9477,-9.9256,-9.6541,-9.3926,-9.1359,-8.7343,-8.417,-8.1787,-8.031,-7.958,-7.9513,-7.948,-7.9387,-7.9108,-7.8792,-7.8506,-7.8346,-7.8022,-7.7891,-7.7891,-7.7891,-7.7891,-7.7891,-7.7891,-7.6384,-7.4548,-7.447,-7.3802,-7.2909,-7.2998,-7.3956,-7.5242,-7.6558,-7.6888,-7.7247,-7.8503,-7.8772,-7.8772,-7.8772,-7.8802,-7.8832,-7.8772,-7.749,-7.5605,-7.2794,-7.2128,0.0,-6.7708,-6.8235,-6.8545,-6.7695,-6.7534,-6.7322,-6.6762,-6.5822,-6.572,-6.6787,-6.5898,-6.5796,-6.6838,-6.478,-6.3612,-6.3561,-5.8879,-5.4581,-5.0783,0.0,0.0,0.0,0.0,0.0,0.0,0.0,0.0,0.0,0.0,0.0,0.0,0.0,0.0,0.0,0.0,0.0,0.0,0.0,0.0,0.0,0.0,0.0,0.0,0.0,-6.9579,-7.1132,-7.1782,-7.2107,-7.2107,-7.4056,-7.5717,-7.6764,-7.8859,-8.0556,-8.1603,-8.2144,-8.3155,-8.478,-8.6333,-8.8211,-9.0377,-9.2002,-9.3085,-9.3627,-9.433,-9.4049,-9.3046,-9.2826,-9.1468,-8.9011,-8.598,-8.3836,-8.2406,-8.0384,-7.8307,-7.6597,-7.7569,-7.7368,-7.6452,-7.724,-7.7329,-7.6949,-7.5703,-7.5845,-7.651,-7.651,-7.651,-7.651,-7.651,-7.5539,-7.4061,-7.2235,-7.0982,-7.0485,-7.1383,-7.1921,-7.2819,-7.5003,-7.5511,-7.5631,-7.608,-7.6858,-7.7486,-7.7486,-7.6768,-7.5343,-7.2858,-7.5459,-7.5855,-6.9559,-7.1254,-7.218,-6.9016,-6.8733,-6.8652,-6.8041,-6.7721,-6.7399,-6.6863,-6.6533,-6.6482,-6.6838,-6.6533,-6.6482,-6.6838,-6.6152,-6.4902,-6.3277,-6.0147,-5.5259,-4.867,0.0,0.0,0.0,0.0,0.0,0.0,0.0,0.0,0.0,0.0,0.0,0.0,0.0,0.0,0.0,0.0,0.0,0.0,0.0,0.0,0.0,0.0,0.0,0.0,0.0,0.0,-7.0373,-7.0482,0.0,-6.8893,-7.0193,-7.1529,-7.254,-7.5212,-7.7487,-7.9039,-8.0231,-8.1314,-8.2325,-8.3336,-8.4636,-8.6297,-8.7308,-8.8391,-8.9583,-9.0261,-9.0277,-8.9815,-8.9582,-8.8213,-8.5822,-8.3585,-8.1686,-8.0064,-7.8488,-7.6776,-7.5135,-7.6061,-7.5826,-7.5122,-7.5705,-7.5691,-7.521,-7.4513,-7.4598,-7.5063,-7.5063,-7.434,-7.3452,-7.3452,-7.2186,-7.0472,-6.908,-6.8187,-6.7823,-6.9199,-6.9528,-7.0216,-7.2819,-7.3477,-7.3716,-7.4674,-7.5152,-7.5272,-7.4921,-7.4793,-7.3576,-6.9848,-7.2196,-7.2789,-6.7418,-6.8958,-7.0296,-6.9542,-6.9126,-6.881,-6.836,-6.8041,-6.7534,-6.6863,-6.6863,-6.6863,-6.6863,-6.6863,-6.6863,-6.6863,-6.5941,-6.4339,-6.1988,-5.8389,-5.3652,0.0,0.0,0.0,0.0,0.0,0.0,0.0,0.0,0.0,0.0,0.0,0.0,0.0,0.0,0.0,0.0,0.0,0.0,0.0,0.0,0.0,0.0,0.0,0.0,0.0,0.0,0.0,-6.8965,-6.8785,0.0,0.0,0.0,0.0,-6.6113,-7.0446,-7.3731,-7.532,-7.8425,-8.0267,-8.0484,-8.0556,-8.1386,-8.3047,-8.3083,-8.4636,-8.7669,-8.7481,-8.8108,-8.9276,-8.6698,-8.4298,-8.1985,-8.0179,-7.7774,-7.5094,-7.4867,-7.4692,-7.4592,-7.4566,-7.4485,-7.4385,-7.4027,-7.3439,-7.2908,-7.4263,-7.411,-7.3321,-7.3419,-7.1644,-6.9408,-6.9079,-6.648,0.0,0.0,-6.4951,-6.4891,-6.644,-6.6859,-6.7578,-7.0246,-7.0845,-7.1413,-7.3926,-7.3597,-7.2433,0.0,-7.2676,-7.2832,-6.8909,0.0,-6.6379,-6.593,-6.5047,-6.5553,-6.8808,-6.9361,-6.9126,-6.8334,-6.8201,-6.7855,-6.6863,-6.6863,-6.6863,-6.6863,-6.6863,-6.6812,-6.6711,-6.4106,-6.1659,-5.9441,-5.3645,0.0,0.0,0.0,0.0,0.0,0.0,0.0,0.0,0.0,0.0,0.0,0.0,0.0,0.0,0.0,0.0,0.0,0.0,0.0,0.0,0.0,0.0,0.0,0.0,0.0,0.0,-6.2728,-6.6199,-6.8712,-6.5741,-6.3215,0.0,0.0,0.0,0.0,0.0,0.0,-6.7088,-6.9074,-7.1782,-7.5392,-7.6656,-7.8606,-8.1422,-8.1458,-8.1856,-8.2686,-8.3697,-8.3817,-8.3036,-8.3307,-8.208,-7.9695,-7.8611,-7.7297,-7.563,-7.2384,-7.0047,-6.8506,-6.8518,-6.7144,-6.5568,-6.8531,-6.8701,-6.7806,-7.0152,-6.9846,-6.852,-6.9934,0.0,-7.1611,-6.6547,0.0,0.0,0.0,0.0,-5.9989,-6.2304,-6.3734,-6.5337,-6.8027,-6.8631,-6.8843,-6.9508,-7.0722,-7.0094,0.0,-6.4331,-6.2444,-5.498,0.0,0.0,0.0,0.0,-6.5277,-6.6663,-6.8359,-6.9126,-6.8334,-6.8201,-6.7855,-6.6863,-6.6863,-6.6863,-6.6863,-6.6863,-6.5966,-6.4005,-6.1836,-5.8288,-5.3028,0.0,0.0,0.0,0.0,0.0,0.0,0.0,0.0,0.0,0.0,0.0,0.0,0.0,0.0,0.0,0.0,0.0,0.0,0.0,0.0,0.0,0.0,0.0,0.0,0.0,0.0,0.0,-5.8434,-6.1611,-6.354,-6.0682,-5.8296,0.0,0.0,0.0,0.0,0.0,0.0,0.0,0.0,0.0,-7.041,-7.1384,-7.272,-7.4526,-7.597,-7.7017,-7.7739,-7.9936,-8.0887,-8.0494,-8.0517,-7.9331,-7.7272,-7.65,-7.503,-7.3078,-6.955,-6.6997,-6.5124,0.0,0.0,0.0,0.0,-6.1818,-6.0036,-6.1546,-5.9537,0.0,-6.6416,0.0,0.0,0.0,0.0,0.0,0.0,0.0,0.0,0.0,0.0,0.0,-6.6493,-6.6898,-6.6909,-6.7513,-6.6062,-6.3162,0.0,-5.7811,-5.596,-4.9076,0.0,0.0,0.0,0.0,-6.1933,-6.4892,-6.77,-6.9126,-6.8334,-6.8641,-6.8396,-6.6914,-6.732,-6.7397,-6.6889,-6.5949,-6.4268,-6.1761,-5.7961,-5.3344,0.0,0.0,0.0,0.0,0.0,0.0,0.0,0.0,0.0,0.0,0.0,0.0,0.0,0.0,0.0,0.0,0.0,0.0,0.0,0.0,0.0,0.0,0.0,0.0,0.0,0.0,0.0,0.0,0.0,-5.6238,-5.6886,0.0,0.0,0.0,0.0,0.0,0.0,0.0,0.0,0.0,0.0,0.0,0.0,0.0,-6.5643,-6.586,-6.8857,-7.1059,-7.2432,-7.5501,-7.7484,-7.8422,-7.7057,-7.5719,-7.4403,-7.293,0.0,-6.912,-6.6296,0.0,0.0,0.0,0.0,0.0,0.0,0.0,0.0,0.0,0.0,0.0,0.0,0.0,0.0,0.0,0.0,0.0,0.0,0.0,0.0,0.0,0.0,-6.3292,-6.4341,-6.4749,-6.5005,0.0,-6.0209,-5.473,-5.2146,-5.2345,0.0,0.0,0.0,0.0,0.0,0.0,0.0,-6.3085,-6.7093,-6.9179,-6.8542,-6.9159,-6.8989,-6.7305,-6.7752,-6.7676,-6.6482,-6.4043,-6.1455,-5.881,-5.3344,0.0,0.0,0.0,0.0,0.0,0.0,0.0,0.0,0.0,0.0,0.0,0.0,0.0,0.0,0.0,0.0,0.0,0.0,0.0,0.0,0.0,0.0,0.0,0.0,0.0,0.0,0.0,0.0,0.0,0.0,0.0,0.0,0.0,0.0,0.0,0.0,0.0,0.0,0.0,0.0,0.0,0.0,0.0,0.0,0.0,0.0,0.0,0.0,0.0,0.0,-6.7665,-6.8712,-6.888,-6.8637,-6.9285,-7.0455,-6.5331,-6.4995,-6.7506,0.0,0.0,0.0,0.0,0.0,0.0,0.0,0.0,0.0,0.0,0.0,0.0,0.0,0.0,0.0,0.0,0.0,0.0,0.0,0.0,0.0,0.0,0.0,0.0,0.0,-5.9918,-6.025,0.0,0.0,0.0,0.0,0.0,0.0,0.0,0.0,0.0,0.0,0.0,0.0,-6.079,-6.6117,-6.9626,-7.0117,-6.9248,-6.8609,-6.8791,-6.6923,-6.539,-6.4196,-6.0137,-5.6162,0.0,0.0,0.0,0.0,0.0,0.0,0.0,0.0,0.0,0.0,0.0,0.0,0.0,0.0,0.0,0.0,0.0,0.0,0.0,0.0,0.0,0.0,0.0,0.0,0.0,0.0,0.0,0.0,0.0,0.0,0.0,0.0,0.0,0.0,0.0,0.0,0.0,0.0,0.0,0.0,0.0,0.0,0.0,0.0,0.0,0.0,0.0,0.0,0.0,0.0,0.0,0.0,0.0,0.0,0.0,0.0,0.0,0.0,0.0,-5.8789,0.0,0.0,0.0,0.0,0.0,0.0,0.0,0.0,0.0,0.0,0.0,0.0,0.0,0.0,0.0,0.0,0.0,0.0,0.0,0.0,0.0,0.0,0.0,0.0,0.0,0.0,0.0,0.0,0.0,0.0,0.0,0.0,0.0,0.0,0.0,0.0,0.0,0.0,0.0,0.0,-5.926,-6.4957,-6.868,-6.9356,-6.9191,-6.85,-6.7373,-6.6057,-6.3815,-6.0334,-5.6285,0.0,0.0,0.0,0.0,0.0,0.0,0.0,0.0,0.0,0.0,0.0,0.0,0.0,0.0,0.0,0.0,0.0,0.0,0.0,0.0,0.0,0.0,0.0,0.0,0.0,0.0,0.0,0.0,0.0,0.0,0.0,0.0,0.0,0.0,0.0,0.0,0.0,0.0,0.0,0.0,0.0,0.0,0.0,0.0,0.0,0.0,0.0,0.0,0.0,0.0,0.0,0.0,0.0,0.0,0.0,0.0,0.0,0.0,0.0,-5.8038,0.0,0.0,0.0,0.0,0.0,0.0,0.0,0.0,0.0,0.0,0.0,0.0,0.0,0.0,0.0,0.0,0.0,0.0,0.0,0.0,0.0,0.0,0.0,0.0,0.0,0.0,0.0,0.0,0.0,0.0,0.0,0.0,0.0,0.0,0.0,0.0,0.0,0.0,0.0,0.0,0.0,-5.7995,-6.3981,-6.7945,-6.8727,-6.9295,-6.8577,-6.6421,-6.5268,-6.2265,-5.6879,-5.2457,0.0,0.0,0.0,0.0,0.0,0.0,0.0,0.0,0.0,0.0,0.0,0.0,0.0,0.0,0.0,0.0,0.0,0.0,0.0,0.0,0.0,0.0,0.0,0.0,0.0,0.0,0.0,0.0,0.0,0.0,0.0,0.0,0.0,0.0,0.0,0.0,0.0,0.0,0.0,0.0,0.0,0.0,0.0,0.0,0.0,0.0,0.0,0.0,0.0,0.0,0.0,0.0,0.0,0.0,0.0,0.0,0.0,0.0,0.0,0.0,0.0,0.0,0.0,0.0,0.0,0.0,0.0,0.0,0.0,0.0,0.0,0.0,0.0,0.0,0.0,0.0,0.0,0.0,0.0,0.0,0.0,0.0,0.0,0.0,0.0,0.0,0.0,0.0,0.0,0.0,0.0,0.0,0.0,0.0,0.0,0.0,0.0,0.0,0.0,0.0,0.0,-5.686,-6.3454,-6.857,-7.0599,-6.9356,-6.8667,-6.9495,-6.5019,-6.0233,-5.5609,0.0,0.0,0.0,0.0,0.0,0.0,0.0,0.0,0.0,0.0,0.0,0.0,0.0,0.0,0.0,0.0,0.0,0.0,0.0,0.0,0.0,0.0,0.0,0.0,0.0,0.0,0.0,0.0,0.0,0.0,0.0,0.0,0.0,0.0,0.0,0.0,0.0,0.0,0.0,0.0,0.0,0.0,0.0,0.0,0.0,0.0,0.0,0.0,0.0,0.0,0.0,0.0,0.0,0.0,0.0,0.0,0.0,0.0,0.0,0.0,0.0,0.0,0.0,0.0,0.0,0.0,0.0,0.0,0.0,0.0,0.0,0.0,0.0,0.0,0.0,0.0,0.0,0.0,0.0,0.0,0.0,0.0,0.0,0.0,0.0,0.0,0.0,0.0,0.0,0.0,0.0,0.0,0.0,0.0,0.0,0.0,0.0,0.0,0.0,0.0,0.0,0.0,-5.6518,-6.2188,-6.6652,-6.9467,-6.8779,-6.7812,-6.6567,-6.3,-5.7819,-5.0334,0.0,0.0,0.0,0.0,0.0,0.0,0.0,0.0,0.0,0.0,0.0,0.0,0.0,0.0,0.0,0.0,0.0,0.0,0.0,0.0,0.0,0.0,0.0,0.0,0.0,0.0,0.0,0.0,0.0,0.0,0.0,0.0,0.0,0.0,0.0,0.0,0.0,0.0,0.0,0.0,0.0,0.0,0.0,0.0,0.0,0.0,0.0,0.0,0.0,0.0,0.0,0.0,0.0,0.0,0.0,0.0,0.0,0.0,0.0,0.0,0.0,0.0,0.0,0.0,0.0,0.0,0.0,0.0,0.0,0.0,0.0,0.0,0.0,0.0,0.0,0.0,0.0,0.0,0.0,0.0,0.0,0.0,0.0,0.0,0.0,0.0,0.0,0.0,0.0,0.0,0.0,0.0,0.0,0.0,0.0,0.0,0.0,0.0,0.0,0.0,0.0,0.0,-5.5937,-6.1186,-6.559,-6.8602,-6.8365,-6.7036,-6.4944,-6.2128,-5.6813,-4.8084,0.0,0.0,0.0,0.0,0.0,0.0,0.0,0.0,0.0,0.0,0.0,0.0,0.0,0.0,0.0,0.0,0.0,0.0,0.0,0.0,0.0,0.0,0.0,0.0,0.0,0.0,0.0,0.0,0.0,0.0,0.0,0.0,0.0,0.0,0.0,0.0,0.0,0.0,0.0,0.0,0.0,0.0,0.0,0.0,0.0,0.0,0.0,0.0,0.0,0.0,0.0,0.0,0.0,0.0,0.0,0.0,0.0,0.0,0.0,0.0,0.0,0.0,0.0,0.0,0.0,0.0,0.0,0.0,0.0,0.0,0.0,0.0,0.0,0.0,0.0,0.0,0.0,0.0,0.0,0.0,0.0,0.0,0.0,0.0,0.0,0.0,0.0,0.0,0.0,0.0,0.0,0.0,0.0,0.0,0.0,0.0,0.0,0.0,0.0,0.0,0.0,0.0,-5.483,-6.0685,-6.559,-6.9045,-6.7947,-6.6957,-6.6492,-6.3036,-5.7752,0.0,0.0,0.0,0.0,0.0,0.0,0.0,0.0,0.0,0.0,0.0,0.0,0.0,0.0,0.0,0.0,0.0,0.0,0.0,0.0,0.0,0.0,0.0,0.0,0.0,0.0,0.0,0.0,0.0,0.0,0.0,0.0,0.0,0.0,0.0,0.0,0.0,0.0,0.0,0.0,0.0,0.0,0.0,0.0,0.0,0.0,0.0,0.0,0.0,0.0,0.0,0.0,0.0,0.0,0.0,0.0,0.0,0.0,0.0,0.0,0.0,0.0,0.0,0.0,0.0,0.0,0.0,0.0,0.0,0.0,0.0,0.0,0.0,0.0,0.0,0.0,0.0,0.0,0.0,0.0,0.0,0.0,0.0,0.0,0.0,0.0,0.0,0.0,0.0,0.0,0.0,0.0,0.0,0.0,0.0,0.0,0.0,0.0,0.0,0.0,0.0,0.0,0.0,-5.4513,-5.8601,-6.2979,0.0,-6.7947,-6.6644,-6.5557,-6.1902,-5.6491,-4.9247,0.0,0.0,0.0,0.0,0.0,0.0,0.0,0.0,0.0,0.0,0.0,0.0,0.0,0.0,0.0,0.0,0.0,0.0,0.0,0.0,0.0,0.0,0.0,0.0,0.0,0.0,0.0,0.0,0.0,0.0,0.0,0.0,0.0,0.0,0.0,0.0,0.0,0.0,0.0,0.0,0.0,0.0,0.0,0.0,0.0,0.0,0.0,0.0,0.0,0.0,0.0,0.0,0.0,0.0,0.0,0.0,0.0,0.0,0.0,0.0,0.0,0.0,0.0,0.0,0.0,0.0,0.0,0.0,0.0,0.0,0.0,0.0,0.0,0.0,0.0,0.0,0.0,0.0,0.0,0.0,0.0,0.0,0.0,0.0,0.0,0.0,0.0,0.0,0.0,0.0,0.0,0.0,0.0,0.0,0.0,0.0,0.0,0.0,0.0,0.0,0.0,0.0,0.0,-5.7863,-6.2214,0.0,-6.6921,-6.5805,-6.3792,-6.0989,-5.6089,-4.8622,0.0,0.0,0.0,0.0,0.0,0.0,0.0,0.0,0.0,0.0,0.0,0.0,0.0,0.0,0.0,0.0,0.0,0.0,0.0,0.0,0.0,0.0,0.0,0.0,0.0,0.0,0.0,0.0,0.0,0.0,0.0,0.0,0.0,0.0,0.0,0.0,0.0,0.0,0.0,0.0,0.0,0.0,0.0,0.0,0.0,0.0,0.0,0.0,0.0,0.0,0.0,0.0,0.0,0.0,0.0,0.0,0.0,0.0,0.0,0.0,0.0,0.0,0.0,0.0,0.0,0.0,0.0,0.0,0.0,0.0,0.0,0.0,0.0,0.0,0.0,0.0,0.0,0.0,0.0,0.0,0.0,0.0,0.0,0.0,0.0,0.0,0.0,0.0,0.0,0.0,0.0,0.0,0.0,0.0,0.0,0.0,0.0,0.0,0.0,0.0,0.0,0.0,0.0,-5.8047,-6.2583,-6.4008,-6.5036,-6.4453,-6.1561,-6.0122,-5.6177,-4.8716,-4.5773,0.0,0.0,0.0,0.0,0.0,0.0,0.0,0.0,0.0,0.0,0.0,0.0,0.0,0.0,0.0,0.0,0.0,0.0,0.0,0.0,0.0,0.0,0.0,0.0,0.0,0.0,0.0,0.0,0.0,0.0,0.0,0.0,0.0,0.0,0.0,0.0,0.0,0.0,0.0,0.0,0.0,0.0,0.0,0.0,0.0,0.0,0.0,0.0,0.0,0.0,0.0,0.0,0.0,0.0,0.0,0.0,0.0,0.0,0.0,0.0,0.0,0.0,0.0,0.0,0.0,0.0,0.0,0.0,0.0,0.0,0.0,0.0,0.0,0.0,0.0,0.0,0.0,0.0,0.0,0.0,0.0,0.0,0.0,0.0,0.0,0.0,0.0,0.0,0.0,0.0,0.0,0.0,0.0,0.0,0.0,0.0,0.0,0.0,0.0,0.0,0.0,0.0,-5.6201,-5.868,-6.2531,-6.2399,-6.1679,-6.0595,-5.8504,-5.4609,-4.8894,-4.5106,0.0,0.0,0.0,0.0,0.0,0.0,0.0,0.0,0.0,0.0,0.0,0.0,0.0,0.0,0.0,0.0,0.0,0.0,0.0,0.0,0.0,0.0,0.0,0.0,0.0,0.0,0.0,0.0,0.0,0.0,0.0,0.0,0.0,0.0,0.0,0.0,0.0,0.0,0.0,0.0,0.0,0.0,0.0,0.0,0.0,0.0,0.0,0.0,0.0,0.0,0.0,0.0,0.0,0.0,0.0,0.0,0.0,0.0,0.0,0.0,0.0,0.0,0.0,0.0,0.0,0.0,0.0,0.0,0.0,0.0,0.0,0.0,0.0,0.0,0.0,0.0,0.0,0.0,0.0,0.0,0.0,0.0,0.0,0.0,0.0,0.0,0.0,0.0,0.0,0.0,0.0,0.0,0.0,0.0,0.0,0.0,0.0,0.0,0.0,0.0,0.0,0.0,-5.1699,-5.4712,-6.0405,-6.0935,-6.0394,-5.9447,-5.7521,-5.4064,-4.8911,-4.4881,0.0,0.0,0.0,0.0,0.0,0.0,0.0,0.0,0.0,0.0,0.0,0.0,0.0,0.0,0.0,0.0,0.0,0.0,0.0,0.0,0.0,0.0,0.0,0.0,0.0,0.0,0.0,0.0,0.0,0.0,0.0,0.0,0.0,0.0,0.0,0.0,0.0,0.0,0.0,0.0,0.0,0.0,0.0,0.0,0.0,0.0,0.0,0.0,0.0,0.0,0.0,0.0,0.0,0.0,0.0,0.0,0.0,0.0,0.0,0.0,0.0,0.0,0.0,0.0,0.0,0.0,0.0,0.0,0.0,0.0,0.0,0.0,0.0,0.0,0.0,0.0,0.0,0.0,0.0,0.0,0.0,0.0,0.0,0.0,0.0,0.0,0.0,0.0,0.0,0.0,0.0,0.0,0.0,0.0,0.0,0.0,0.0,0.0,0.0,0.0,0.0,0.0,0.0,-5.1317,-5.7395,-5.926,-5.9475,-5.8328,-5.689,-5.392,-4.8606,0.0,0.0,0.0,0.0,0.0,0.0,0.0,0.0,0.0,0.0,0.0,0.0,0.0,0.0,0.0,0.0,0.0,0.0,0.0,0.0,0.0,0.0,0.0,0.0,0.0,0.0,0.0,0.0,0.0,0.0,0.0,0.0,0.0,0.0,0.0,0.0,0.0,0.0,0.0,0.0,0.0,0.0,0.0,0.0,0.0,0.0,0.0,0.0,0.0,0.0,0.0,0.0,0.0,0.0,0.0,0.0,0.0,0.0,0.0,0.0,0.0,0.0,0.0,0.0,0.0,0.0,0.0,0.0,0.0,0.0,0.0,0.0,0.0,0.0,0.0,0.0,0.0,0.0,0.0,0.0,0.0,0.0,0.0,0.0,0.0,0.0,0.0,0.0,0.0,0.0,0.0,0.0,0.0,0.0,0.0,0.0,0.0,0.0,0.0,0.0,0.0,0.0,0.0,0.0,0.0,-5.2931,-5.5112,-5.6707,-5.7463,-5.5905,-5.2843,-4.8083,0.0,0.0,0.0,0.0,0.0,0.0,0.0,0.0,0.0,0.0,0.0,0.0,0.0,0.0]}],[{"header":{"parameterUnit":"kt","parameterCategory":2,"dx":1,"dy":1,"la1":29.285339999999998,"la2":30.599998999999997,"lo1":-89.70041500000002,"lo2":-87.6738589999976,"nx":112,"ny":82,"refTime":"2022-10-04T00:00:00:Z","depth":0,"parameterNumber":2,"parameterNumberName":"V-component_of_WINDS"},"data":[4.4533,4.5956,0.0,4.2188,4.1865,0.0,3.5446,0.0,0.0,0.0,0.0,0.0,0.0,0.0,0.0,0.0,0.0,0.0,0.0,2.7591,0.0,0.0,0.0,0.0,0.0,0.0,0.0,0.0,0.0,0.0,0.0,0.0,6.1831,6.259,6.3239,6.3724,6.394,6.504,6.586,6.634,6.7149,6.8073,6.9118,7.0469,7.0753,7.0306,7.2272,7.2662,7.2105,7.4576,7.4861,7.3931,7.6036,7.6591,7.587,7.346,7.2938,7.358,7.393,7.4343,7.4647,7.4636,7.4797,7.489,7.4696,7.476,7.488,7.4719,7.4783,7.4816,7.4708,7.4348,7.4049,7.4234,7.3971,7.3718,7.3816,7.397,7.3934,7.3265,7.333,7.3169,7.2291,7.2126,7.0305,6.4926,6.3324,6.2764,6.2764,4.9134,4.036,4.2736,2.9908,2.0547,1.8974,1.4893,1.1075,0.802,1.7293,1.695,0.3886,1.5624,1.6005,0.2622,0.3011,0.1979,-0.0698,-0.0237,0.0491,0.1419,0.0907,-0.459,0.0,0.0,4.3415,3.8287,0.0,0.0,0.0,0.0,0.0,0.0,0.0,0.0,0.0,0.0,0.0,0.0,0.0,0.0,0.0,0.0,0.0,0.0,0.0,0.0,0.0,0.0,0.0,0.0,0.0,0.0,0.0,6.1264,6.1264,6.1305,6.1918,6.1992,6.1564,6.2644,6.3467,6.4012,6.4659,6.5505,6.6538,6.7658,6.7862,6.7466,6.9365,6.984,6.9321,7.1782,7.2055,7.1196,7.3278,7.3848,7.3245,7.079,7.0246,7.0826,7.1292,7.1633,7.1798,7.1887,7.1984,7.2024,7.1633,7.1862,7.2209,7.2009,7.1944,7.1988,7.2126,7.1719,7.1275,7.1426,7.0792,7.0267,7.0657,7.0688,7.0506,7.0143,6.9828,6.9384,6.8436,6.1338,5.4514,5.063,4.403,3.9437,3.9437,2.5595,1.6635,1.9125,0.5734,-0.2413,0.0,-0.5155,-0.9763,-1.2723,-0.3584,-0.3461,-1.5424,-0.3586,-0.2746,-1.5654,-1.4946,-1.5982,-1.8924,-1.7877,-1.683,-1.5926,-2.2084,-2.9176,0.0,0.0,0.0,3.5184,0.0,0.0,0.0,0.0,3.4067,0.0,0.0,0.0,0.0,0.0,0.0,0.0,0.0,0.0,0.0,0.0,0.0,0.0,0.0,0.0,0.0,0.0,0.0,0.0,0.0,0.0,6.0792,6.1256,6.1297,6.1452,6.2851,6.2993,6.1809,6.3115,6.3115,6.1814,6.2448,6.2754,6.2788,6.4922,6.5107,6.3859,6.7196,6.784,6.6672,6.8389,6.9241,6.9407,6.9478,6.9707,6.9856,6.9179,6.9468,7.0198,7.0571,7.0626,7.0519,7.0538,7.0753,7.0824,6.9411,6.998,7.0956,7.0306,7.0234,7.0303,7.043,6.9996,6.9537,6.9765,6.8657,6.7832,6.8963,6.8052,6.6994,6.7196,6.5635,6.427,6.4194,4.3425,2.6801,2.6801,0.9439,-0.3595,-0.3592,-0.6524,-0.8454,-0.8355,-0.9563,-1.0362,-1.0362,-1.756,-2.5165,-3.2353,-3.3486,-3.3853,-3.3784,-3.3825,-3.4081,-3.4681,-3.4684,-3.4674,-3.4674,-3.3578,-3.2941,-3.3144,-5.0867,-5.5875,3.3218,0.0,0.0,0.0,0.0,0.0,0.0,0.0,0.0,0.0,0.0,0.0,0.0,0.0,0.0,0.0,0.0,0.0,0.0,0.0,0.0,0.0,0.0,0.0,0.0,0.0,0.0,0.0,0.0,0.0,6.21,6.2331,6.2063,6.1328,6.087,6.0678,6.0806,6.1041,6.1088,6.0833,6.1024,6.1425,6.2065,6.201,6.2087,6.2413,6.3504,6.3844,6.3739,6.6002,6.6319,6.5587,6.7818,6.6908,6.4251,6.4044,6.4391,6.4904,6.4968,6.521,6.5354,6.4948,6.5291,6.5622,6.4702,6.4886,6.5377,6.523,6.4976,6.4684,6.4129,6.3469,6.2886,6.2273,6.1558,6.0989,6.1323,6.0767,6.0115,5.9661,5.8885,5.8019,5.7532,2.8151,0.4687,0.4687,-0.131,-0.5748,-0.5886,-1.9505,-2.9217,-2.9367,-4.1792,-5.0061,-5.0061,-5.2552,-5.5258,-5.7785,-4.5835,-4.4601,-5.7803,-4.4868,-4.3694,-5.7065,-5.7407,-5.7475,-5.7475,-5.7151,-5.5113,-5.1684,-6.0153,-6.3188,0.0,0.0,0.0,0.0,0.0,0.0,3.4979,0.0,3.1123,0.0,0.0,0.0,0.0,0.0,0.0,0.0,0.0,0.0,0.0,0.0,0.0,0.0,0.0,0.0,0.0,0.0,0.0,0.0,0.0,5.8446,6.1404,6.2115,6.1605,6.0018,5.9845,5.9646,5.9648,5.9564,5.9656,5.9768,5.9925,6.0268,6.0758,6.0574,6.0574,6.0758,6.1285,6.1464,6.1636,6.3089,6.3265,6.2923,6.4732,6.3976,6.1747,6.1545,6.1703,6.1969,6.2176,6.2415,6.2584,6.2074,6.2109,6.2143,6.1407,6.1587,6.1972,6.18,6.1449,6.0985,6.0573,5.9645,5.8662,5.8131,5.6914,5.5993,5.6465,5.584,5.3103,4.5772,4.3567,4.2044,3.9635,1.3875,-0.8647,-1.5754,-2.4093,-2.9651,-2.9628,-4.0266,-4.7916,-4.8293,-5.8627,-6.5539,-6.5763,-6.6469,-6.718,-6.7959,-5.7804,-5.6881,-6.8298,-5.8571,-5.7918,-6.8608,-6.8878,-6.8945,-6.8929,-6.7787,-6.5927,-6.3552,-6.6383,-6.7389,0.0,0.0,0.0,0.0,3.743,0.0,0.0,0.0,3.4023,3.211,0.0,0.0,0.0,0.0,0.0,0.0,0.0,0.0,0.0,0.0,0.0,0.0,0.0,0.0,0.0,0.0,0.0,6.3699,6.0488,5.8988,6.0442,6.1509,6.094,5.844,5.9386,5.9441,5.8379,5.8619,5.872,5.872,5.8998,5.9161,5.9323,5.9846,5.9879,5.9323,5.9957,6.0268,6.0301,6.0191,6.0607,6.1238,6.0983,6.0908,6.0875,6.056,6.0527,6.0602,6.0939,6.1163,6.1235,6.0891,6.0333,5.9729,5.9338,5.9527,5.9984,5.9501,5.9,5.8547,5.8486,5.7274,5.5989,5.587,5.3923,5.2219,5.3192,5.2263,4.6908,3.2327,2.8168,2.3139,1.1199,-0.4261,-1.9887,-3.4946,-5.1003,-6.1458,-6.1385,-6.207,-6.2717,-6.3227,-6.4422,-6.5362,-6.5893,-6.6449,-6.7166,-6.8139,-6.763,-6.8052,-6.9596,-7.113,-7.2046,-7.2287,-7.2476,-7.2521,-7.23,-6.9883,-6.9162,-6.9998,-6.993,-6.9276,0.0,0.0,0.0,0.0,0.0,3.6457,0.0,0.0,0.0,0.0,0.0,0.0,0.0,0.0,0.0,0.0,0.0,0.0,0.0,0.0,0.0,0.0,0.0,0.0,0.0,0.0,6.1752,6.5649,6.526,6.473,6.4676,6.3925,6.2452,6.0085,5.9221,5.8481,5.774,5.7575,5.7626,5.7829,5.8084,5.8587,5.9242,5.867,5.872,5.9323,5.9144,5.9515,6.0191,5.98,6.0268,6.1016,5.872,5.7882,5.7989,5.8105,5.8273,5.8523,5.8853,5.8983,5.9113,5.9258,5.8459,5.7555,5.8126,5.7926,5.7523,5.7555,5.6624,5.5487,5.4719,5.3618,5.2448,5.1558,5.0292,4.9288,4.9473,4.7746,4.5171,4.2053,4.0329,2.1856,-3.3818,-4.6273,-4.9881,-5.3635,-5.8306,-6.1658,-6.2279,-6.3706,-6.477,-6.4884,-6.5162,-6.5627,-6.6001,-6.6185,-6.674,-6.7844,-6.781,-6.8133,-6.8962,-6.9505,-7.0531,-7.2102,-7.3582,-7.3659,-7.2332,-7.1869,-7.1641,-7.149,-7.0147,-6.9324,0.0,0.0,0.0,3.3459,0.0,0.0,0.0,0.0,3.6404,0.0,0.0,0.0,0.0,0.0,0.0,0.0,0.0,0.0,0.0,0.0,0.0,0.0,0.0,0.0,0.0,0.0,6.3705,6.6254,6.7262,6.7107,6.546,6.4797,6.3337,6.0854,6.0156,5.9021,5.7366,5.7372,5.7131,5.6786,5.6991,5.7311,5.7914,5.7508,5.7335,5.7335,5.7914,5.8221,5.8523,5.8357,5.8523,5.8771,5.7539,5.7105,5.7161,5.7048,5.7223,5.746,5.7633,5.7484,5.7366,5.7626,5.6955,5.6123,5.6364,5.6124,5.5668,5.5052,5.392,5.2592,5.1252,5.0083,4.8913,4.7657,4.6565,4.3545,3.5626,3.2677,2.6679,0.99,1.2163,0.3226,-3.9523,-4.6884,-4.9837,-5.8578,-6.0965,-6.1829,-6.2075,-6.3554,-6.462,-6.4925,-6.5556,-6.6185,-6.6614,-6.6849,-6.7283,-6.8097,-6.8122,-6.8395,-6.8992,-6.995,-7.1352,-7.3239,-7.5003,-7.5514,-7.4643,-7.3938,-7.3045,-7.1962,-7.0307,-6.9429,0.0,2.992,0.0,0.0,0.0,0.0,3.5404,3.5605,3.6988,0.0,0.0,0.0,0.0,0.0,0.0,0.0,0.0,0.0,0.0,0.0,0.0,0.0,0.0,0.0,0.0,0.0,6.5232,6.7003,6.8367,6.8155,6.5706,6.5347,6.4113,6.148,6.118,5.9825,5.7137,5.6938,5.6574,5.5933,5.588,5.6034,5.6277,5.6454,5.5973,5.5235,5.6423,5.6721,5.6485,5.6721,5.6574,5.6215,5.6244,5.6334,5.6334,5.6034,5.5973,5.6064,5.6397,5.6095,5.5606,5.5973,5.5668,5.4894,5.4414,5.4155,5.3865,5.2521,5.111,4.9769,4.8097,4.4485,4.1058,4.0055,3.6505,2.9964,1.7167,1.3859,0.3345,-3.0378,-2.7787,-2.4707,-3.9235,-4.1474,-4.5911,-5.976,-6.2095,-6.2243,-6.214,-6.3178,-6.4114,-6.4515,-6.5624,-6.6521,-6.7053,-6.751,-6.7892,-6.8275,-6.8367,-6.8565,-6.8997,-7.0749,-7.2534,-7.4312,-7.6095,-7.7004,-7.7008,-7.5935,-7.4615,-7.2971,-7.1268,-7.026,2.7388,2.8532,3.0631,0.0,0.0,0.0,4.3604,4.3807,0.0,0.0,0.0,0.0,0.0,0.0,0.0,0.0,0.0,0.0,0.0,0.0,0.0,0.0,0.0,0.0,0.0,0.0,6.6858,6.9429,6.9754,6.9314,6.8071,6.6882,6.5265,6.2826,6.1762,5.9955,5.7195,5.5337,5.4807,5.5602,5.5043,5.5014,5.5385,5.5451,5.5112,5.4355,5.4516,5.4988,5.5514,5.5606,5.5421,5.5082,5.365,5.3357,5.3524,5.3748,5.3259,5.2764,5.4414,5.4318,5.3553,5.423,5.4193,5.364,5.2593,5.2089,5.1607,5.0435,4.8639,4.6791,4.5491,3.3849,2.2472,2.2263,1.0522,-0.1082,-0.28,-0.414,-1.5534,-5.0838,-5.808,-5.9235,-6.1782,-6.1061,-6.1296,-6.4664,-6.4043,-6.341,-6.3975,-6.4349,-6.4656,-6.4715,-6.5342,-6.5987,-6.6521,-6.7016,-6.751,-6.7892,-6.8137,-6.8266,-6.833,-7.0386,-7.2359,-7.4079,-7.6023,-7.7045,-7.7155,-7.7894,-7.7575,-7.6216,-7.4507,-7.2927,2.7247,2.8729,3.0714,3.1934,0.0,0.0,4.0672,4.2219,0.0,0.0,0.0,0.0,0.0,0.0,0.0,0.0,0.0,0.0,0.0,0.0,0.0,0.0,0.0,0.0,0.0,0.0,0.0,0.0,6.9208,6.9538,6.9373,6.81,6.6622,6.5006,6.3663,6.1923,5.9592,5.7805,5.622,5.4659,5.4419,5.4211,5.4126,5.3777,5.3611,5.3669,5.3874,5.423,5.4421,5.4097,5.4077,5.4188,5.3782,5.3723,5.3923,5.4347,5.413,5.3577,5.3724,5.3496,5.295,5.1846,5.1625,5.1532,5.0749,4.9824,4.8938,4.8176,4.6791,4.2883,3.1698,1.6742,0.4259,0.2935,-0.2796,-1.0666,-2.0414,-2.4052,-3.2716,-5.7269,-6.2869,-6.3941,-6.5256,-6.4219,-6.3635,-6.483,-6.4045,-6.3509,-6.3762,-6.4228,-6.4621,-6.4911,-6.545,-6.5987,-6.6427,-6.6966,-6.7348,-6.7626,-6.7667,-6.7819,-6.81,-7.0822,-7.2754,-7.3693,-7.6388,-7.7862,-7.8059,-7.875,-7.8299,-7.6765,-7.5056,-7.3342,2.7039,0.0,0.0,0.0,0.0,0.0,0.0,0.0,0.0,0.0,0.0,0.0,0.0,0.0,0.0,0.0,0.0,0.0,0.0,0.0,0.0,0.0,0.0,0.0,0.0,0.0,0.0,0.0,6.8625,6.9275,6.9708,6.8521,6.7146,6.5594,6.4337,6.2711,6.0793,5.8936,5.6916,5.4779,5.3986,5.3552,5.351,5.2664,5.2348,5.2506,5.3119,5.3264,5.2949,5.2892,5.3177,5.3747,5.3935,5.4032,5.4252,5.4449,5.4004,5.3267,5.2541,5.2006,5.1401,4.9796,4.9637,4.9852,4.8692,4.7871,4.7041,4.591,4.1511,3.4155,2.0858,0.2089,-1.3917,-1.5702,-1.9746,-2.6524,-3.869,-4.3787,-4.9687,-6.1675,-6.4558,-6.5471,-6.693,-6.5626,-6.4611,-6.5513,-6.4453,-6.3509,-6.3509,-6.3949,-6.4433,-6.5025,-6.5468,-6.5951,-6.6427,-6.6966,-6.7302,-6.7385,-6.7348,-6.7736,-6.8554,-7.1323,-7.3207,-7.3965,-7.6889,-7.8499,-7.8672,-7.8965,-7.8501,-7.7359,-7.6136,-7.4421,0.0,0.0,0.0,3.6441,3.6562,3.7605,4.7221,0.0,0.0,0.0,0.0,0.0,0.0,0.0,0.0,0.0,0.0,0.0,0.0,0.0,0.0,0.0,0.0,0.0,0.0,0.0,0.0,0.0,0.0,6.8605,6.9015,6.795,6.6235,6.3677,6.2439,6.118,5.9785,5.6623,5.5588,5.6406,5.3723,5.2812,5.3586,5.2655,5.1607,5.0544,5.1616,5.1628,5.0912,5.2208,5.3264,5.3972,5.3231,5.3231,5.3547,5.2575,5.1048,4.967,5.0162,4.9311,4.7865,4.8391,4.8937,4.891,4.6529,4.6163,4.6138,4.3772,3.1132,1.8207,1.7685,-0.7211,-3.2394,-3.3111,-4.6074,-5.8226,-5.8536,-6.2859,-6.6814,-6.7062,-6.8917,-7.0732,-7.1438,-6.9128,-6.7434,-6.816,-6.5829,-6.3921,-6.3921,-6.3983,-6.4228,-6.4853,-6.5236,-6.5778,-6.6427,-6.6966,-6.726,-6.7224,-6.7473,-6.833,-6.9834,-7.184,-7.3615,-7.5169,-7.738,-7.853,-7.856,-7.8561,-7.8659,-7.8886,-7.8811,-7.7059,2.9778,3.212,3.4642,3.9242,4.1586,4.3594,4.6953,0.0,0.0,0.0,0.0,0.0,0.0,0.0,0.0,0.0,0.0,0.0,0.0,0.0,0.0,0.0,0.0,0.0,0.0,0.0,0.0,0.0,0.0,0.0,6.5612,6.467,6.4071,6.4229,6.3146,6.2173,6.1101,5.9392,5.7495,5.5489,5.4019,5.284,5.1916,5.0502,4.9825,4.9772,5.0447,5.0235,4.957,5.1828,5.3019,5.3381,5.3142,5.313,5.3214,5.2786,5.1581,5.0109,4.9752,4.9106,4.8307,4.6995,4.7332,4.5787,3.3043,2.8735,2.5732,1.3819,0.52,-0.2713,-1.3142,-2.4755,-3.6722,-4.8945,-5.6258,-6.0801,-6.2215,-6.3556,-6.4613,-6.4956,-6.5686,-6.6979,-6.9159,-6.699,-6.5592,-6.7506,-6.6033,-6.455,-6.4025,-6.4879,-6.5457,-6.5449,-6.5627,-6.5951,-6.6427,-6.6614,-6.6751,-6.6751,-6.6841,-6.7664,-6.9399,-7.118,-7.3014,-7.5046,-7.6906,-7.7504,-7.673,-7.8135,-7.885,-7.8925,-7.8906,-7.8344,3.1251,3.4023,3.6464,4.1778,4.4863,4.6953,4.81,4.9955,0.0,0.0,0.0,0.0,0.0,0.0,0.0,0.0,0.0,0.0,0.0,0.0,0.0,0.0,0.0,0.0,0.0,0.0,0.0,0.0,0.0,0.0,6.3796,6.2741,6.2627,6.3463,6.2513,6.1749,6.1291,5.9672,5.7624,5.5171,5.3475,5.2268,5.1191,4.9601,4.8727,4.8359,4.9042,4.9378,4.9474,5.1003,5.1896,5.2358,5.1875,5.1967,5.2381,5.154,5.051,4.9559,4.8474,4.7587,4.5785,3.8776,3.6972,3.4149,1.6308,1.0461,0.7675,-0.3491,-1.1752,-1.9522,-2.9838,-3.7796,-4.6109,-5.7953,-6.1371,-6.2323,-6.3791,-6.4071,-6.424,-6.4657,-6.4985,-6.5813,-6.7722,-6.5911,-6.4742,-6.6367,-6.5242,-6.4049,-6.3518,-6.4336,-6.4955,-6.4805,-6.5181,-6.5556,-6.5965,-6.6198,-6.6331,-6.6331,-6.6331,-6.7148,-6.9013,-7.0253,-7.185,-7.387,-7.5898,-7.6723,-7.6318,-7.7289,-7.8044,-7.8648,-7.8793,-7.8822,3.107,3.3359,3.5767,4.4172,4.6636,4.7709,5.0867,0.0,0.0,0.0,0.0,0.0,0.0,0.0,0.0,0.0,0.0,0.0,0.0,0.0,0.0,0.0,0.0,0.0,0.0,0.0,0.0,0.0,0.0,6.2688,6.3106,6.2179,6.1664,6.1664,6.0593,6.0087,6.0087,5.7619,5.6074,5.5224,5.2175,5.089,5.1417,4.9908,4.8054,4.616,4.727,4.8681,5.0042,4.9744,5.015,5.0847,4.9401,4.9761,5.0847,4.88,4.8081,4.7929,4.6463,4.422,3.9588,2.5019,1.9204,1.4682,-0.2603,-0.7543,-0.7656,-0.9546,-2.0966,-3.2889,-3.3417,-4.6331,-5.9511,-6.0397,-6.2205,-6.3782,-6.3868,-6.4853,-6.5817,-6.575,-6.6431,-6.7049,-6.7223,-6.589,-6.4936,-6.5073,-6.3708,-6.2721,-6.2687,-6.2755,-6.2923,-6.3273,-6.4114,-6.4735,-6.5091,-6.5747,-6.6087,-6.6087,-6.6087,-6.6891,-6.8731,-6.9206,-7.0293,-7.195,-7.4354,-7.5948,-7.6821,-7.5947,-7.6352,-7.791,-7.8286,-7.8442,3.5061,3.921,4.2366,4.8243,4.9723,5.0072,5.1248,0.0,5.1577,0.0,0.0,0.0,0.0,0.0,0.0,0.0,0.0,0.0,0.0,0.0,0.0,0.0,0.0,0.0,0.0,0.0,0.0,0.0,0.0,5.9154,5.9277,5.9571,5.9718,5.9718,5.8362,5.7463,5.7463,5.5916,5.4926,5.428,5.1549,5.0141,4.981,4.6706,4.4794,4.4034,4.5881,4.6772,4.7056,4.8048,4.8074,4.7426,4.7449,4.7386,4.7209,4.7408,4.6925,4.6241,4.5536,3.6987,2.5473,2.0919,1.1497,-0.1168,-1.8356,-2.3899,-2.6844,-3.9914,-4.75,-5.1669,-5.1073,-5.4897,-5.8854,-5.8737,-5.9899,-6.1293,-6.2179,-6.1946,-6.156,-6.1373,-6.1493,-6.2133,-6.3688,-6.281,-6.2473,-6.4163,-6.4171,-6.4049,-6.39,-6.4886,-6.544,-6.4989,-6.5217,-6.5468,-6.5575,-6.568,-6.5835,-6.5936,-6.5835,-6.6637,-6.8543,-6.978,-7.1334,-7.3364,-7.2307,-7.1877,-7.2097,-7.3492,-7.4398,-7.484,-7.4934,-7.4965,3.2693,3.8529,4.4081,4.8621,5.0166,5.0796,5.0906,5.1041,5.1041,0.0,0.0,0.0,0.0,0.0,0.0,0.0,0.0,0.0,0.0,0.0,0.0,0.0,0.0,0.0,0.0,0.0,0.0,0.0,0.0,5.756,5.756,5.8436,5.8436,5.7813,5.701,5.6201,5.5387,5.399,5.3226,5.3099,5.0685,4.9015,4.8335,4.5724,4.386,4.2547,4.4168,4.4752,4.4773,4.5008,4.4721,4.4204,4.4112,4.4341,4.4619,4.4212,3.997,3.4242,3.3345,2.2155,0.7262,0.0216,-0.8152,-1.8639,-3.5099,-4.0345,-4.2602,-5.2474,-5.5973,-5.6725,-5.6902,-5.769,-5.8422,-5.8478,-5.9631,-6.0678,-6.087,-6.0332,-5.9909,-6.006,-6.0088,-6.0472,-6.1681,-6.1199,-6.1281,-6.2926,-6.3133,-6.3294,-6.3548,-6.4327,-6.4754,-6.4373,-6.469,-6.4975,-6.5031,-6.5252,-6.545,-6.5557,-6.5557,-6.6091,-6.7193,-6.8209,-6.9256,-7.051,-6.9553,-6.9601,-7.0552,-7.1353,-7.2283,-7.3238,-7.3407,-7.3472,2.8631,3.5197,4.2495,4.6937,4.9096,5.0039,5.0318,5.0365,5.0365,0.0,0.0,0.0,0.0,0.0,0.0,0.0,0.0,0.0,0.0,0.0,0.0,0.0,0.0,0.0,0.0,0.0,0.0,0.0,0.0,0.0,5.6706,5.7512,5.7209,5.5481,5.5611,5.4924,5.3475,5.1937,5.1318,5.1617,4.9583,4.7966,4.6725,4.5435,4.3542,4.1266,4.2087,4.2528,4.2588,4.1519,4.1341,4.1476,4.0454,4.1206,4.2376,3.8427,2.9465,1.8943,1.5646,0.3801,-1.1931,-2.4701,-3.0975,-3.6033,-4.9374,-5.3572,-5.3865,-5.448,-5.451,-5.4664,-5.5973,-5.6917,-5.777,-5.8602,-5.9591,-6.0084,-5.941,-5.9225,-5.9387,-6.0055,-6.0211,-6.0211,-6.0211,-6.0289,-6.0596,-6.1491,-6.1458,-6.1747,-6.2517,-6.2755,-6.2788,-6.2954,-6.3636,-6.401,-6.4193,-6.4668,-6.4989,-6.5081,-6.5158,-6.5233,-6.5432,-6.5942,-6.6159,-6.6006,-6.6857,-6.8191,-7.0107,-6.9455,-7.0102,-7.1979,-7.232,-7.2496,3.3076,3.5935,3.9208,4.541,4.7741,4.8867,5.0015,5.0365,5.0365,5.0365,0.0,0.0,0.0,0.0,0.0,0.0,0.0,0.0,0.0,0.0,0.0,0.0,0.0,0.0,0.0,0.0,0.0,0.0,0.0,0.0,5.4193,5.4504,5.4036,5.2256,5.1297,5.0652,5.0329,4.9415,4.8964,4.9108,4.8977,4.7571,4.4822,4.245,4.056,3.9289,3.8673,3.9133,4.0536,3.966,3.9526,3.9834,3.9259,3.9011,3.7417,2.5406,1.8926,1.4532,0.2718,-1.1421,-2.484,-2.757,-3.7326,-4.8461,-5.162,-5.3288,-5.4259,-5.483,-5.5484,-5.5973,-5.5142,-5.5415,-5.5939,-5.6308,-5.5372,-5.4954,-5.6427,-5.6783,-5.6991,-5.7806,-5.786,-5.786,-5.786,-5.8368,-5.9048,-6.017,-6.0991,-6.1789,-6.2785,-6.341,-6.3859,-6.4071,-6.4193,-6.4254,-6.4314,-6.4433,-6.4586,-6.4773,-6.4586,-6.4703,-6.5025,-6.6224,-6.6201,-6.469,-6.5664,-6.633,-6.6733,-6.7453,-6.795,-6.8399,-6.844,-6.8479,3.398,3.5504,3.7262,4.2847,4.5748,4.7596,4.9419,4.9774,4.9774,4.9774,4.9477,0.0,0.0,0.0,0.0,0.0,0.0,0.0,0.0,0.0,0.0,0.0,0.0,0.0,0.0,0.0,0.0,0.0,0.0,0.0,0.0,5.1712,5.1253,4.9821,4.9189,4.8553,4.7787,4.7475,4.7515,4.7681,4.7848,4.7021,4.5308,4.0875,3.7888,3.6313,3.6374,3.6186,3.6186,3.7099,3.6209,3.3855,2.8701,2.5388,2.1975,0.823,-0.1356,-0.8541,-1.5915,-2.7137,-3.8511,-3.9158,-4.4039,-4.9927,-5.059,-5.1681,-5.2821,-5.3582,-5.3748,-5.3718,-5.365,-5.3328,-5.3299,-5.42,-5.3912,-5.3912,-5.5331,-5.5821,-5.6064,-5.6426,-5.6515,-5.6783,-5.7516,-5.7829,-5.844,-6.0048,-6.0617,-6.1285,-6.2347,-6.272,-6.3086,-6.341,-6.3312,-6.3277,-6.3376,-6.341,-6.3601,-6.3983,-6.401,-6.4132,-6.4586,-6.4546,-6.4198,-6.3445,-6.3958,-6.448,-6.4875,-6.5446,-6.6031,-6.6614,-6.6614,-6.6864,3.3842,3.4914,3.6103,4.055,4.3318,4.5706,4.8244,4.8852,4.8852,4.8852,4.8852,4.8922,0.0,0.0,0.0,0.0,0.0,0.0,0.0,0.0,0.0,0.0,0.0,0.0,0.0,0.0,0.0,0.0,0.0,0.0,0.0,0.0,0.0,4.7208,4.7374,4.6914,4.5837,4.6005,4.6174,0.0,4.6174,4.5784,4.5247,3.8992,3.5219,3.3502,3.3248,3.2498,3.1307,3.2507,2.9786,2.4139,1.5814,1.0358,0.5484,-0.885,-1.9719,-2.8083,-3.2232,-3.9452,-4.702,-4.7539,-4.7401,-4.7178,-4.8092,-4.9369,-5.0595,-5.1448,-5.1138,-5.0722,-5.1727,-5.142,-5.1118,-5.2581,-5.3308,-5.4012,-5.5035,-5.5575,-5.5856,-5.5856,-5.5856,-5.6422,-5.7796,-5.7974,-5.8433,-6.0048,-6.0153,-6.0465,-6.1391,-6.1713,-6.1927,-6.2346,-6.2209,-6.214,-6.2381,-6.2381,-6.2585,-6.302,-6.3182,-6.344,-6.3817,-6.2753,-6.2173,-6.238,-6.2585,-6.3049,-6.3679,-6.3889,-6.4559,-6.5656,-6.5656,-6.6078,3.4022,3.4515,3.5494,3.9605,4.0728,4.2213,4.6701,4.78,4.78,4.78,4.78,4.808,4.9015,0.0,0.0,0.0,0.0,0.0,0.0,0.0,0.0,0.0,0.0,0.0,0.0,0.0,0.0,0.0,0.0,0.0,0.0,0.0,0.0,0.0,4.4478,4.4649,4.4478,4.4819,4.4989,0.0,4.3359,4.2581,4.2319,3.5678,3.224,3.1635,2.7902,2.6537,2.6711,2.3717,1.7225,0.8913,0.5147,0.0804,-0.5382,-2.2414,-2.6687,-2.5827,-3.9147,-4.362,-4.3351,-4.2734,-4.278,-4.3389,-4.4693,-4.6478,-4.8092,-4.8639,-4.8748,-4.8748,-4.945,-4.9957,-5.0581,-5.2027,-5.288,-5.3671,-5.5134,-5.5839,-5.6295,-5.6295,-5.6295,-5.6794,-5.8206,-5.8807,-5.9198,-5.9491,-5.9277,-5.929,-5.9925,-6.0574,-6.1131,-6.1646,-6.1646,-6.1646,-6.1718,-6.1751,-6.1822,-6.2138,-6.2138,-6.2243,-6.2415,-6.193,-6.1646,-6.1751,-6.2313,-6.2683,-6.2715,-6.336,-6.4069,-6.4834,-6.4834,-6.5254,3.4198,3.4482,3.4411,3.7136,4.0122,4.2613,4.3686,4.4295,4.5103,4.7137,4.6612,4.5982,4.6634,4.5313,0.0,0.0,0.0,0.0,0.0,0.0,0.0,0.0,0.0,0.0,0.0,0.0,0.0,0.0,0.0,0.0,0.0,0.0,0.0,0.0,4.1495,4.1495,4.0903,4.1077,4.0886,4.0154,3.8684,3.6304,3.3213,2.9072,2.7535,2.785,2.5086,2.3323,2.2227,1.8934,1.2638,0.4218,-0.3032,-0.9376,-1.601,-3.0794,-3.4492,-3.3091,-3.9651,-4.0936,-3.9771,-4.0808,-4.1917,-4.3277,-4.4927,-4.6441,-4.7638,-4.7859,-4.7587,-4.7529,-4.848,-4.8909,-4.9724,-5.1656,-5.1861,-5.2072,-5.3028,-5.3628,-5.3969,-5.414,-5.414,-5.4783,-5.6651,-5.7491,-5.8295,-5.9581,-6.0114,-6.04,-6.0778,-6.1361,-6.1579,-6.1117,-6.134,-6.1139,-6.0256,-6.0345,-6.065,-6.1024,-6.1172,-6.182,-6.2983,-6.2888,-6.2888,-6.3095,-6.2596,-6.2551,-6.3281,-6.2754,-6.3148,-6.4279,-6.4279,-6.469,3.3695,3.3784,3.3543,3.5576,3.8654,4.1372,4.1933,4.1539,4.1967,4.4977,4.442,4.3525,4.3988,4.3029,0.0,0.0,0.0,0.0,0.0,0.0,0.0,0.0,0.0,0.0,0.0,0.0,0.0,0.0,0.0,0.0,0.0,0.0,0.0,0.0,3.7898,3.7705,3.6753,3.6575,3.6009,3.5085,3.3436,2.9965,2.5196,2.2962,2.2018,2.216,2.0005,1.7816,1.5325,1.2632,0.5624,-0.4001,-1.1946,-1.8642,-2.5195,-3.4962,-3.7224,-3.5773,-3.7474,-3.7586,-3.7234,-3.9073,-4.0984,-4.2884,-4.4169,-4.5565,-4.6725,-4.7153,-4.6981,-4.7019,-4.8723,-4.9411,-5.0272,-5.2163,-5.2256,-5.1944,-5.2464,-5.2816,-5.2916,-5.313,-5.3487,-5.4491,-5.6484,-5.7638,-5.8754,-6.0308,-6.1056,-6.1319,-6.0951,-6.1422,-6.1571,-6.0867,-6.1127,-6.0975,-5.9956,-6.0061,-6.0364,-6.0987,-6.1181,-6.1764,-6.279,-6.2853,-6.3119,-6.3492,-6.2558,-6.271,-6.3843,-6.3034,-6.3311,-6.4788,-6.4788,-6.5205,3.2507,3.2282,3.2725,3.548,3.5911,3.6998,4.2049,4.0347,3.8338,4.0233,4.0312,4.0434,4.1405,3.9495,0.0,3.6177,0.0,0.0,0.0,0.0,0.0,0.0,0.0,0.0,0.0,0.0,0.0,0.0,0.0,0.0,0.0,0.0,0.0,0.0,3.3522,3.3145,3.221,3.1636,3.1063,3.0489,2.8125,2.4259,1.9434,1.7863,1.6294,1.4713,1.1739,0.8451,0.5071,0.3245,-0.6083,-1.9287,-2.2145,-2.6808,-3.2371,-3.4638,-3.3127,-3.0365,-3.2812,-3.4767,-3.6262,-3.7294,-3.9034,-4.0927,-4.1337,-4.2711,-4.446,-4.6178,-4.6581,-4.7284,-5.0357,-5.1962,-5.3112,-5.4234,-5.4358,-5.4405,-5.438,-5.4474,-5.4478,-5.4452,-5.5489,-5.7069,-5.8759,-6.0257,-6.1278,-6.1699,-6.1824,-6.1339,-5.9906,-6.0147,-6.0631,-6.1171,-6.1235,-6.1235,-6.1235,-6.1235,-6.1515,-6.2314,-6.2404,-6.204,-6.1266,-6.1266,-6.1546,-6.2009,-6.2314,-6.3031,-6.4123,-6.4342,-6.5209,-6.664,-6.664,-6.7151,3.131,3.2116,3.2811,3.3679,3.5907,3.8051,3.8456,3.7794,3.7432,3.8371,3.9349,3.9863,3.9315,3.7197,0.0,0.0,0.0,0.0,0.0,0.0,0.0,0.0,0.0,0.0,0.0,0.0,0.0,0.0,0.0,0.0,0.0,0.0,0.0,0.0,2.9871,2.8949,2.7072,2.6886,2.613,2.4811,1.9897,1.63,1.401,1.2862,1.2082,1.1477,0.7916,0.4588,0.1323,-0.2235,-0.7383,-1.3438,-1.7495,-2.1631,-2.5571,-2.9034,-2.9501,-2.9072,-3.3089,-3.5615,-3.7093,-3.8252,-4.0412,-4.2376,-4.2938,-4.3342,-4.3959,-4.4868,-4.5821,-4.776,-5.2188,-5.326,-5.3214,-5.3809,-5.3161,-5.2621,-5.3816,-5.3073,-5.2233,-5.3243,-5.4114,-5.5112,-5.6156,-5.8218,-5.9885,-6.0445,-6.1051,-6.1203,-6.079,-6.1083,-6.1508,-6.2168,-6.1834,-6.1221,-6.0305,-6.0504,-6.0823,-6.1013,-6.2153,-6.2828,-6.293,-6.3001,-6.3203,-6.3733,-6.2965,-6.314,-6.4398,-6.3495,-6.3589,-6.4575,-6.4575,-6.509,3.1684,3.1966,3.1733,3.2671,3.5086,3.6768,3.4502,3.4242,3.4546,3.5069,3.5698,3.5915,3.5518,3.461,3.4412,3.6,3.6019,0.0,0.0,0.0,0.0,0.0,0.0,0.0,0.0,0.0,0.0,0.0,0.0,0.0,0.0,0.0,0.0,2.526,2.5249,2.431,2.2055,2.1866,2.0718,1.8613,1.4028,1.1326,1.0346,0.8198,0.6829,0.5848,0.1557,-0.1741,-0.4405,-0.8165,-1.0647,-1.2594,-1.572,-1.8744,-2.1895,-2.507,-2.7116,-2.8883,-3.2822,-3.5852,-3.8302,-3.9304,-4.1354,-4.3205,-4.3392,-4.4044,-4.4858,-4.5832,-4.7362,-4.9259,-5.2418,-5.3382,-5.3698,-5.4157,-5.3176,-5.2559,-5.3949,-5.3014,-5.212,-5.2911,-5.4506,-5.5851,-5.6369,-5.8744,-6.0751,-6.0679,-6.1693,-6.1982,-6.1028,-6.1544,-6.1999,-6.1976,-6.1724,-6.118,-6.0375,-6.0626,-6.1035,-6.1268,-6.2184,-6.2868,-6.316,-6.316,-6.3373,-6.3899,-6.311,-6.3334,-6.468,-6.38,-6.3977,-6.5108,-6.5108,-6.5692,3.2889,3.1576,3.0058,3.2198,3.3588,3.3662,3.1133,3.0391,3.041,3.0853,3.0269,2.9902,3.0835,3.1888,3.2997,3.4019,3.3315,3.2505,0.0,0.0,0.0,0.0,0.0,0.0,0.0,0.0,0.0,0.0,0.0,0.0,0.0,0.0,0.0,2.0805,2.0207,1.9243,1.7724,1.7147,1.5219,1.2118,0.9978,0.8613,0.7826,0.3905,0.0976,-0.1368,-0.6442,-0.9572,-1.1132,-1.3618,-1.5209,-1.6086,-1.6541,-1.8225,-2.0868,-2.3124,-2.6204,-2.9783,-3.2559,-3.6081,-3.9457,-4.0291,-4.1807,-4.3451,-4.2952,-4.4441,-4.658,-4.8243,-5.0068,-5.1566,-5.1566,-5.2888,-5.4196,-5.462,-5.4166,-5.39,-5.4374,-5.382,-5.3375,-5.3446,-5.6087,-5.8305,-5.8572,-6.1368,-6.3116,-6.234,-6.3168,-6.3174,-6.0858,-6.1778,-6.227,-6.1118,-6.1199,-6.1366,-6.1366,-6.1502,-6.1807,-6.2356,-6.2167,-6.2086,-6.2086,-6.2086,-6.2276,-6.2868,-6.2868,-6.3554,-6.4806,-6.4806,-6.5773,-6.7521,-6.7521,-6.8044,2.9497,3.0306,3.0866,3.0267,3.1829,3.3484,3.255,3.205,3.1604,3.1425,3.0583,3.0068,3.0585,3.0998,3.1273,3.1237,3.1224,3.0731,2.964,0.0,0.0,0.0,0.0,0.0,0.0,0.0,0.0,0.0,0.0,0.0,0.0,0.0,1.945,1.8116,1.7916,1.7147,1.5605,1.4632,1.2108,0.8223,0.7438,0.5281,0.1955,0.0586,-0.1758,-0.508,-0.8782,-1.0929,-1.2292,-1.4763,-1.6718,-1.7798,-1.8818,-2.0083,-2.1831,-2.6692,-2.9731,-3.2054,-3.6079,-3.8328,-3.9719,-4.0955,-4.1927,-4.2416,-4.2433,-4.3757,-4.5402,-4.6245,-4.9415,-5.2592,-5.2592,-5.3047,-5.3656,-5.3814,-5.3396,-5.3223,-5.4136,-5.2868,-5.2228,-5.391,-5.5743,-5.7334,-5.8357,-6.0651,-6.231,-6.2156,-6.2351,-6.2323,-6.1765,-6.2427,-6.288,-6.2597,-6.2288,-6.1922,-6.1922,-6.1376,-6.0799,-6.0229,-6.06,-6.0856,-6.0856,-6.0856,-6.1166,-6.1637,-6.1637,-6.2485,-6.4047,-6.4047,-6.4665,-6.6059,-6.6059,-6.6514,3.0035,3.0925,3.121,2.9128,3.0333,3.1848,3.0867,3.0202,2.9607,2.9257,2.8382,2.8008,2.8849,2.9293,2.9677,2.9657,0.0,2.8173,2.6623,2.6287,2.5775,0.0,0.0,0.0,0.0,0.0,0.0,0.0,0.0,0.0,0.0,0.0,1.6783,1.5805,1.5219,1.4252,1.2701,0.9957,0.7225,0.4887,0.2933,0.0391,-0.254,-0.4102,-0.6247,-0.879,0.0,-1.3465,-1.4433,-1.6197,-1.745,-1.8234,-2.0472,-2.1717,-2.286,-2.7318,-3.0447,-3.2825,-3.7046,-3.9091,-3.9972,-4.1024,-4.1565,-4.2087,-4.307,-4.4744,-4.6412,-4.7415,-5.0252,-5.2933,-5.2933,-5.3069,-5.3205,-5.3499,-5.3271,-5.32,-5.4082,-5.3328,-5.3145,-5.4741,-5.6495,-5.82,-5.9813,-6.1906,-6.3223,-6.2957,-6.3344,-6.3317,-6.2181,-6.2923,-6.3316,-6.2756,-6.2332,-6.193,-6.1365,-6.0807,-6.0275,-5.9475,-6.0992,-6.1744,-6.1289,-6.0744,-6.0629,-6.0912,-6.0941,-6.1332,-6.2188,-6.2188,-6.2809,-6.3943,-6.4419,-6.5302,3.1845,3.2298,3.1781,2.9382,2.982,3.0379,2.8759,2.7731,2.6972,2.6652,2.567,2.5186,2.6504,2.6956,2.7348,2.7844,2.6688,2.5207,0.0,0.0,2.3408,2.1717,0.0,0.0,0.0,0.0,0.0,0.0,0.0,0.0,0.0,1.5618,1.4651,1.3682,1.2512,1.0956,0.8812,0.4695,0.2345,0.1367,-0.1954,-0.4301,-0.6055,-0.84,-1.0549,0.0,0.0,-1.6011,-1.6583,-1.7754,-1.8523,-1.9083,-2.1912,-2.3575,-2.4594,-2.7397,-3.0033,-3.2597,-3.6188,-3.8527,-3.9956,-4.0815,-4.1356,-4.226,-4.4403,-4.6412,-4.8119,-4.9742,-5.1405,-5.2592,-5.2592,-5.2774,-5.291,-5.3363,-5.3341,-5.3499,-5.4196,-5.4353,-5.4643,-5.6119,-5.7715,-5.9592,-6.1379,-6.3239,-6.418,-6.3731,-6.4607,-6.4552,-6.233,-6.3223,-6.3602,-6.2423,-6.2302,-6.1904,-6.0878,-6.0753,-6.0414,-5.9831,-6.1986,-6.2909,-6.2249,-6.1195,-6.0656,-6.0485,-6.0572,-6.0601,-6.06,-6.0714,-6.1303,-6.2504,-6.3494,-6.4532,3.0785,3.2529,3.4248,3.2885,3.2492,3.21,3.1273,2.904,2.7198,2.7355,2.5159,2.3498,2.4334,2.3368,2.2719,2.3108,2.2272,2.1248,2.0759,2.1208,2.1143,1.9914,0.0,0.0,0.0,0.0,0.0,0.0,0.0,0.0,0.0,1.3676,1.2706,1.2134,1.0567,0.763,0.2938,0.1369,-0.0391,-0.2345,-0.4104,-0.6445,-0.879,-1.0151,-1.1914,0.0,0.0,0.0,-1.7154,-1.9083,-2.1169,-2.304,-2.4561,-2.6394,-2.8579,-3.0328,-3.1235,-3.19,-3.3635,-3.5849,-3.8188,-4.1129,-4.2398,-4.3106,-4.5422,-4.7288,-4.8964,-4.9989,-5.0943,-5.1727,-5.1727,-5.2251,-5.2933,-5.291,-5.291,-5.3228,-5.4463,-5.4775,-5.5373,-5.7487,-5.8784,-5.9789,-6.1313,-6.2169,-6.268,-6.2635,-6.2767,-6.2767,-6.2396,-6.3333,-6.4071,-6.3881,-6.3753,-6.3613,-6.3446,-6.2756,-6.1933,-6.1334,-6.1666,-6.1931,-6.1989,-6.1891,-6.1429,-6.0843,-6.0999,-6.1258,-6.1386,-6.1689,-6.2826,-6.4776,-6.4978,-6.5737,3.1666,3.1822,3.1951,3.0826,2.9984,2.9275,2.8231,2.6555,2.5137,2.4718,2.2949,2.1572,2.1997,2.1027,2.0466,2.1539,2.0391,1.9186,1.9247,1.9153,1.882,1.8629,1.8323,0.0,0.0,0.0,0.0,0.0,0.0,0.0,0.0,1.2123,1.0766,0.9596,0.8617,0.5086,-0.0979,-0.2935,-0.4693,-0.6448,-0.8397,-1.0355,-1.2313,-1.2701,-1.4064,0.0,0.0,0.0,-1.9625,-2.0588,-2.2481,-2.4927,-2.6802,-2.8305,-2.9972,-3.1838,-3.2949,-3.3678,-3.4237,-3.5503,-3.7298,-3.9587,-4.1338,-4.2898,-4.5233,-4.7268,-4.915,-5.001,-5.0662,-5.0964,-5.0964,-5.1148,-5.1631,-5.2091,-5.2685,-5.3476,-5.4597,-5.5373,-5.6272,-5.7938,-5.866,-5.9399,-6.1196,-6.1626,-6.2027,-6.231,-6.2452,-6.2452,-6.2452,-6.3293,-6.3848,-6.3848,-6.4206,-6.4061,-6.3533,-6.3561,-6.3775,-6.3643,-6.3643,-6.3444,-6.304,-6.3113,-6.253,-6.1488,-6.2146,-6.2774,-6.3458,-6.2985,-6.3163,-6.4199,-6.4037,-6.4357,3.2864,0.0,3.0541,2.9327,2.8233,2.7015,0.0,2.422,2.299,2.2107,2.0542,1.9308,1.9528,1.8571,1.8194,1.94,1.8125,1.7224,1.7669,1.7177,1.6792,1.7134,1.6861,0.0,0.0,0.0,0.0,0.0,0.0,0.0,0.0,0.9783,0.8028,0.6855,0.5281,0.1564,-0.4107,-0.6456,-0.8411,-1.0359,-1.2118,-1.3682,-1.5057,-1.5051,0.0,0.0,0.0,0.0,-2.1713,-2.2661,-2.4362,-2.6626,-2.8862,-3.0157,-3.1064,-3.2935,-3.4056,-3.4781,-3.4781,-3.5518,-3.6418,-3.8011,-4.0448,-4.3206,-4.5571,-4.7435,-4.882,-4.952,-4.9847,-5.001,-5.001,-5.0337,-5.0803,-5.1705,-5.2957,-5.4059,-5.535,-5.6425,-5.7288,-5.8536,-5.8858,-5.9277,-6.0907,-6.1196,-6.1339,-6.1769,-6.1911,-6.1911,-6.1911,-6.2733,-6.3293,-6.3293,-6.4177,-6.4397,-6.3496,-6.3826,-6.4315,-6.4889,-6.4889,-6.4721,-6.4549,-6.4259,-6.3843,-6.3385,-6.3679,-6.4224,-6.5106,-6.3804,-6.3547,-6.3981,-6.3584,-6.3533,0.0,3.3901,3.3242,3.2171,3.0534,2.8677,2.7007,2.4161,0.0,2.1956,1.8877,1.6472,1.7253,1.5852,1.4695,1.4604,1.4121,1.4118,1.5123,1.5103,1.5135,0.0,1.5404,0.0,0.0,0.0,0.0,0.0,0.0,0.0,0.0,0.6258,0.4304,0.4109,-0.0586,-0.4492,-0.7432,-0.8599,-1.0359,-1.2911,-1.4082,-1.4857,-1.5438,-1.6004,0.0,0.0,0.0,0.0,0.0,-2.5125,-2.7572,-2.9059,-3.0736,-3.2205,-3.3314,-3.3496,-3.3678,-3.3692,-3.3692,-3.4419,-3.5503,-3.7445,-4.0938,-4.514,-4.7973,-4.8345,-4.7701,-4.7868,-4.8345,-4.915,-4.915,-5.0273,-5.1705,-5.2935,-5.4082,-5.5373,-5.7638,-5.8088,-5.8536,-5.9915,-6.0087,-6.0233,-6.0379,-6.0379,-6.0379,-6.0379,-6.0379,-6.0379,-6.0379,-6.1626,-6.2452,-6.2452,-6.3901,-6.4725,-6.4643,-6.3405,-6.2874,-6.3571,-6.3709,-6.448,-6.5983,-6.513,-6.5478,-6.7407,-6.5428,-6.4608,-6.4935,-6.4035,-6.4589,-6.6602,-6.5399,-6.5349,3.3634,3.2881,3.1817,3.0101,2.8734,2.684,2.3775,2.1592,1.9689,1.7675,1.5451,1.3999,1.4184,1.3294,1.2781,1.3555,1.3367,1.3141,1.3433,1.3962,1.4049,1.3604,0.0,0.0,0.0,0.0,0.0,0.0,0.0,0.0,0.0,0.3324,0.0391,-0.2734,-0.6445,-0.8797,-1.0173,-1.0947,-1.2113,-1.3688,-1.4469,-1.5051,-1.5625,-1.6004,0.0,0.0,0.0,0.0,0.0,-2.6626,-2.9257,-3.1117,-3.2049,-3.2963,-3.3678,-3.3678,-3.3678,-3.386,-3.5263,-3.5968,-3.6862,-3.9713,-4.1825,-4.3739,-4.6155,-4.7181,-4.7701,-4.7701,-4.7868,-4.818,-4.818,-4.8676,-4.9314,-5.0414,-5.2322,-5.4372,-5.5718,-5.7439,-5.9006,-5.9474,-5.9794,-5.9966,-5.9966,-6.0087,-6.0233,-6.0233,-6.0233,-6.0233,-6.0233,-6.1196,-6.1769,-6.1769,-6.2619,-6.3319,-6.3319,-6.2733,-6.2452,-6.2874,-6.2874,-6.3405,-6.4507,-6.426,-6.4561,-6.5912,-6.5704,-6.5714,-6.5817,-6.611,-6.661,-6.7153,-6.5855,-6.5837,3.376,3.2059,3.005,2.7954,2.6181,2.3922,1.9888,1.7936,1.6253,1.3472,1.1826,1.0798,1.1053,1.0398,1.0353,1.1876,1.1787,1.1502,1.1837,1.2651,1.2956,1.2082,1.2666,1.2791,0.0,0.0,0.0,0.0,0.0,0.0,0.0,-0.0391,-0.3516,-0.8014,-1.0363,-1.154,-1.2134,-1.2712,-1.3482,-1.4457,-1.4857,-1.5438,-1.6004,-1.7154,0.0,0.0,0.0,0.0,0.0,-2.8676,-3.0736,-3.2245,-3.2991,-3.3342,-3.3678,-3.3678,-3.3678,-3.386,-3.5444,-3.6505,-3.7381,-4.0397,-4.1807,-4.3034,-4.514,-4.6698,-4.7762,-4.8043,-4.8124,-4.8064,-4.7782,-4.7868,-4.849,-5.0089,-5.2141,-5.417,-5.5718,-5.7614,-5.9179,-5.9179,-5.95,-5.9672,-5.9819,-6.0087,-6.0233,-6.0233,-6.0233,-6.0233,-6.0233,-6.0933,-6.1483,-6.1483,-6.2027,-6.2169,-6.1769,-6.1769,-6.1911,-6.2027,-6.2027,-6.2733,-6.3958,-6.3682,-6.4397,-6.6178,-6.6519,-6.6885,-6.7276,-6.8305,-6.8529,-6.8023,-6.7535,-6.7389,3.4182,3.1476,2.8206,2.6167,2.3557,2.0407,1.6115,1.339,1.1479,1.0203,0.8161,0.6969,0.8126,0.7166,0.6824,0.8838,0.8796,0.8879,0.9849,1.1137,1.1814,0.0,0.0,1.1223,1.1223,0.0,0.0,0.0,0.0,0.0,0.0,-0.4887,-0.7621,-1.0757,-1.1924,-1.2712,-1.3305,-1.3682,-1.4457,-1.5625,-1.5625,-1.6197,-1.7154,-1.9243,-2.077,0.0,0.0,0.0,0.0,-3.113,-3.2245,-3.2415,-3.3328,-3.3678,-3.3678,-3.3678,-3.3678,-3.3678,-3.3678,-3.4932,-3.6878,-3.8815,-4.1251,-4.3891,-4.5668,-4.6886,-4.7923,-4.8808,-4.907,-4.8848,-4.7963,-4.8366,-4.9784,-5.2776,-5.4013,-5.5387,-5.8387,-5.9031,-5.9179,-5.9525,-5.9672,-5.9819,-6.0233,-6.0233,-6.0233,-6.0233,-6.0233,-6.0233,-6.0233,-6.0933,-6.1483,-6.1339,-6.2053,-6.1795,-6.0404,-6.0258,-6.0669,-6.1365,-6.1483,-6.2566,-6.4995,-6.4096,-6.5427,-6.9246,-6.8334,-6.8334,-6.9371,-7.0418,-7.0418,-6.9371,-7.0418,-7.0246,1.627,1.6335,1.5594,2.0847,2.0287,1.721,1.2316,1.06,0.9308,0.7384,0.6022,0.5349,0.572,0.513,0.5077,0.6157,0.5844,0.5663,0.6149,0.6476,0.6927,0.7667,0.0,0.8417,0.0,0.0,0.0,0.0,0.0,0.0,0.0,-0.8411,-1.0562,-1.1924,-1.2712,-1.3105,-1.3305,-1.4082,-1.4663,-1.5057,-1.5818,-1.6962,-1.8868,-2.0198,-2.1713,-2.3418,0.0,0.0,0.0,-3.1117,-3.2429,-3.2808,-3.3328,-3.3678,-3.3678,-3.3678,-3.3678,-3.4027,-3.7041,-3.8446,-3.9503,-4.2997,-4.4932,-4.6219,-4.7809,-4.8858,-4.9593,-4.9854,-4.9935,-4.9874,-4.9613,-5.0222,-5.1373,-5.3686,-5.472,-5.5457,-5.6248,-5.7361,-5.8336,-5.8336,-5.8635,-5.8908,-5.9056,-5.9179,-5.95,-5.9819,-5.9819,-5.9966,-6.0233,-6.1041,-6.1392,-6.0746,-6.2199,-6.2998,-6.257,-6.1859,-6.1968,-6.3232,-6.2589,-6.3073,-6.5399,-6.4206,-6.437,-6.6095,-6.4752,-6.4752,-6.6123,-6.6359,-6.6913,-6.7649,-6.8617,-6.8917,0.3404,0.5193,0.624,0.9988,1.0693,0.9524,0.5846,0.5409,0.5343,0.3495,0.2621,0.2185,0.1932,0.1708,0.1892,0.2589,0.2551,0.2369,0.2548,0.3011,0.3665,0.4334,0.5349,0.0,0.0,0.0,0.0,0.0,0.0,0.0,-0.8613,-1.0762,-1.2129,-1.2712,-1.3105,-1.3499,-1.3888,-1.4476,-1.5244,-1.639,-1.6962,-1.8484,-2.0952,-2.2472,-2.3985,-2.5689,-2.8154,0.0,0.0,-3.1936,-3.2983,-3.3395,-3.4161,-3.4446,-3.4432,-3.5345,-3.57,-3.6054,-3.9472,-4.1447,-4.2531,-4.4874,-4.6477,-4.7747,-4.863,-4.9455,-5.0221,-5.0739,-5.0578,-5.0553,-5.1777,-5.2026,-5.2835,-5.5345,-5.6347,-5.6857,-5.7508,-5.8489,-5.9155,-5.9333,-5.9271,-5.925,-5.9821,-5.9827,-5.9978,-6.0604,-6.0679,-6.0804,-6.093,-6.1685,-6.2013,-6.1331,-6.3434,-6.4764,-6.458,-6.448,-6.4532,-6.4825,-6.4264,-6.4441,-6.5436,-6.4725,-6.505,-6.6123,-6.5293,-6.5427,-6.6782,-6.6782,-6.7203,-6.8136,-6.8772,-6.9024,-0.5966,-0.3427,-0.1168,-0.3086,-0.1715,-0.0274,-0.1968,-0.1042,0.0,-0.0727,-0.1438,-0.1835,-0.2199,-0.2278,-0.2101,-0.1352,-0.1246,-0.1154,-0.1275,0.037,0.1504,0.1168,0.0,0.0,0.1369,0.1175,0.0,0.0,0.0,0.0,-1.1545,-1.2129,-1.2712,-1.3111,-1.3305,-1.3888,-1.4669,-1.5076,-1.6432,-1.8723,-1.9132,-2.0867,-2.3927,-2.5631,-2.716,-2.8309,-3.0559,0.0,0.0,-3.3195,-3.3993,-3.4049,-3.5165,-3.557,-3.5762,-3.7991,-3.8732,-3.9109,-4.1322,-4.3555,-4.5416,-4.5053,-4.6632,-4.8622,-4.8999,-4.9534,-5.0049,-5.1364,-5.1182,-5.1073,-5.3623,-5.3903,-5.4423,-5.7543,-5.8621,-5.92,-6.0692,-6.101,-6.1217,-6.1656,-6.0894,-6.068,-6.1956,-6.1442,-6.1094,-6.1989,-6.2138,-6.2138,-6.2138,-6.2706,-6.3144,-6.3244,-6.551,-6.6873,-6.6223,-6.7487,-6.7815,-6.6393,-6.6567,-6.6282,-6.533,-6.5545,-6.6463,-6.8078,-6.8078,-6.8617,-6.9649,-6.9649,-6.9773,-6.9926,-6.9926,-6.9926,-1.8527,-1.4483,-1.1438,-0.4437,-0.1911,-0.179,-0.4745,-0.4778,-0.3824,-0.2434,-0.2929,-0.3511,-0.2721,-0.3668,-0.4291,-0.3775,-0.4552,-0.5043,-0.4591,-0.437,-0.3882,-0.293,-0.2346,0.0,-0.0977,-0.0978,0.0,0.0,0.0,0.0,-1.1545,-1.2523,-1.3105,-1.3305,-1.4082,-1.4476,-1.4863,-1.7205,-1.8883,-1.9853,-2.2306,-2.501,-2.7568,-2.8382,-2.9767,-3.1521,-3.2112,0.0,0.0,-3.3783,-3.4413,-3.5208,-3.5527,-3.557,-3.5762,-3.7991,-3.8732,-3.9281,-4.282,-4.4506,-4.5053,-4.6358,-4.8915,-5.1346,-5.1162,-5.1346,-5.1939,-5.2651,-5.2387,-5.2123,-5.3201,-5.5368,-5.745,-5.7336,-5.8926,-6.0508,-6.101,-6.101,-6.1278,-6.2294,-6.2269,-6.2171,-6.2391,-6.2245,-6.2062,-6.179,-6.1691,-6.1849,-6.2138,-6.3066,-6.4098,-6.4922,-6.6194,-6.7314,-6.8597,-6.8184,-6.8296,-6.936,-6.8553,-6.7543,-6.643,-6.6444,-6.6171,-6.5372,-6.5372,-6.6039,-6.7349,-6.7349,-6.795,-6.9238,-6.9238,-6.9238,-2.8554,-2.3492,-1.9137,-1.5359,-1.1133,-0.8744,-1.1543,-1.0106,-0.7848,-0.72,-0.8079,-0.8078,-0.5328,-0.4685,-0.5269,-0.6922,-0.7191,-0.7353,-0.7276,-0.7316,-0.6861,-0.5872,-0.4504,-0.3719,-0.45,-0.4304,-0.5281,0.0,0.0,-0.9775,-1.1934,-1.2911,-1.3505,-1.3888,-1.5756,-1.68,-1.6989,-2.0042,-2.2397,-2.3582,-2.5401,-2.7695,-3.0093,-3.0521,-3.1305,-3.2878,-3.3059,0.0,-3.4456,-3.4925,-3.5635,-3.6053,-3.6366,-3.648,-3.6859,-3.9903,-4.1043,-4.1618,-4.5834,-4.7342,-4.7712,-4.8488,-4.9856,-5.1149,-5.113,-5.1317,-5.1691,-5.2251,-5.2084,-5.2437,-5.4565,-5.6491,-5.8314,-5.9726,-6.1643,-6.3022,-6.3352,-6.3767,-6.428,-6.4841,-6.4548,-6.4353,-6.4865,-6.4524,-6.4182,-6.4324,-6.4049,-6.3706,-6.4009,-6.4083,-6.4796,-6.63,-6.6812,-6.7912,-7.0087,-6.9654,-6.9552,-7.0106,-6.9725,-6.8898,-6.7524,-6.7748,-6.7463,-6.6651,-6.6651,-6.7044,-6.785,-6.785,-6.8165,-6.9015,-6.9015,-6.9015,-3.3775,-2.8605,-2.3484,-2.5742,-2.0847,-1.6027,-1.8294,-1.52,0.0,-1.3532,-1.4001,-1.2855,-0.8591,-0.6485,-0.6326,-0.9622,-0.9206,-0.8739,-0.9465,-0.9074,-0.8397,0.0,-0.5679,-0.5288,-0.7836,-0.7637,0.0,0.0,0.0,-1.1934,-1.2512,-1.3111,-1.3911,-1.4737,-1.6898,-1.8628,-1.9474,-2.2606,-2.5225,-2.7441,-2.8326,-2.9985,-3.221,-3.221,-3.2603,-3.3376,-3.395,0.0,-3.4995,-3.6071,-3.6481,-3.6736,-3.7262,-3.7475,-3.8053,-4.2166,-4.3705,-4.4307,-4.8445,-5.019,-5.0547,-5.002,-5.002,-5.0209,-5.0547,-5.0735,-5.0923,-5.1317,-5.1691,-5.2582,-5.5771,-5.7184,-5.8645,-6.2394,-6.4184,-6.5227,-6.5938,-6.6692,-6.7325,-6.7301,-6.6595,-6.6403,-6.7086,-6.6622,-6.6354,-6.6867,-6.633,-6.5842,-6.5646,-6.5178,-6.5582,-6.7322,-6.7752,-6.8969,-7.1316,-7.1593,-7.1347,-7.0583,-7.0707,-7.0051,-6.851,-6.8855,-6.8859,-6.8576,-6.8888,-6.9015,-6.9015,-6.9015,-6.9015,-6.9015,-6.9015,-6.9015,-2.8619,-2.5057,-2.1756,-2.2374,-1.9653,-1.7339,-1.9387,-1.8602,-1.7946,-1.9937,-1.7396,-1.4115,-1.1844,-1.0396,-0.9607,-0.9386,0.0,-1.0379,-1.0803,-0.9924,-0.9223,-0.9167,-0.8793,-0.8599,-0.8992,-0.8992,-0.997,-1.1949,-1.2328,-1.2318,-1.2512,-1.3111,-1.3993,-1.4997,-1.563,-1.7164,-1.9841,-2.2423,-2.5475,-2.8552,-3.0841,-3.2515,-3.3956,-3.3956,-3.3956,-3.4159,0.0,0.0,-3.5592,-3.5863,-3.6512,-3.7347,-3.7433,-3.7475,-3.8053,-4.2166,-4.3705,-4.4307,-4.8445,-5.002,-5.002,-5.002,-5.019,-5.0735,-5.0735,-5.0735,-5.0923,-5.1317,-5.2397,-5.3649,-5.4565,-5.7228,-6.0099,-6.2047,-6.3647,-6.4947,-6.6362,-6.6322,-6.6442,-6.6772,-6.7028,-6.7037,-6.6232,-6.6769,-6.6696,-6.4987,-6.5378,-6.5549,-6.4646,-6.5986,-6.7161,-6.7483,-6.9021,-7.0858,-7.2728,-7.3174,-7.3377,-7.3441,-7.273,-7.1271,-6.8723,-6.8826,-6.842,-6.6988,-6.8293,-6.9015,-6.9015,-6.9015,-6.9015,-6.9015,-6.9015,-6.9015,-2.6934,-2.4764,-2.2972,-2.3705,-2.1595,-1.9648,-2.1407,-2.0749,-1.9717,-1.9933,-1.9137,-1.7486,-1.4958,-1.3502,0.0,0.0,0.0,0.0,-1.0828,-1.0779,-1.073,0.0,-1.0363,0.0,-1.0164,-1.0558,-1.0956,0.0,-1.2323,-1.2512,-1.2512,-1.3888,-1.4799,-1.5252,-1.5662,-1.7871,-2.2033,-2.6136,-2.9066,-3.0924,-3.2216,-3.3369,-3.4177,-3.4177,-3.4381,-3.4599,0.0,-3.562,-3.6244,-3.6637,-3.7056,-3.7663,-3.8843,-3.923,-3.9815,-4.3917,-4.5456,-4.586,-4.8844,-5.0039,-5.0039,-5.0039,-5.0209,-5.0378,-5.0378,-5.0378,-5.0378,-5.0586,-5.146,-5.2945,-5.5332,-5.7533,-6.0023,-6.3609,-6.5469,-6.66,-6.7748,-6.8329,-6.8741,-6.8897,-6.8615,-6.8062,-6.6989,-6.7184,-6.7184,-6.6232,-6.5964,-6.5524,-6.4451,-6.5087,-6.6351,-6.8205,-6.8389,-6.9648,-7.2483,-7.2278,-7.2174,-7.2766,-7.1879,-7.0896,-6.9931,-6.9399,-6.8704,-6.8008,-6.8704,-6.9364,-7.0091,-7.0091,-7.044,-7.1109,-7.1109,-7.1109,-2.6551,-2.5351,-2.446,-2.5312,-2.3523,-2.1912,-2.3182,-2.2225,-2.0904,-1.9936,-2.01,-1.9782,0.0,0.0,0.0,-1.4631,-1.2896,0.0,-1.0799,-1.1385,0.0,-1.124,0.0,-1.154,-1.1341,-1.154,0.0,0.0,-1.2712,-1.29,-1.29,-1.4537,-1.5489,-1.5552,-1.6646,-1.9156,-2.284,-2.7968,-3.1293,-3.252,-3.3163,-3.3792,-3.4177,-3.4177,-3.4394,-3.4817,-3.5199,-3.5634,-3.6272,-3.6854,-3.7461,-3.8254,-4.0015,-4.0995,-4.1755,-4.5473,-4.6823,-4.7225,-4.9224,-5.0039,-5.0001,-4.9773,-4.9849,-4.9982,-4.9773,-5.0001,-5.0361,-5.0361,-5.1699,-5.3838,-5.6829,-5.8835,-6.1101,-6.5295,-6.6728,-6.7553,-6.8522,-6.938,-7.0121,-7.033,-6.9237,-6.8096,-6.7623,-6.7281,-6.6989,-6.672,-6.6232,-6.5524,-6.4451,-6.478,-6.6024,-6.8916,-6.8522,-6.9335,-7.2633,-7.2128,-7.1866,-7.2618,-7.1804,-7.1525,-7.1894,-7.0643,-6.9945,-6.9945,-6.9945,-7.0411,-7.1371,-7.1371,-7.1836,-7.2708,-7.2708,-7.2708,-2.7046,-2.5984,-2.5023,-2.5247,-2.4651,-2.3814,-2.3507,-2.3375,-2.2887,-2.2142,-2.0838,-1.9527,0.0,0.0,-1.3936,-1.363,-1.2175,-1.1064,-1.11,-1.1511,-1.1936,0.0,0.0,0.0,0.0,0.0,0.0,-1.3111,0.0,-1.4469,-1.4469,-1.5108,-1.5765,-1.6035,-1.8783,-2.0365,-2.0925,-2.5403,-2.9413,-3.252,-3.3163,-3.3792,-3.4177,-3.4177,-3.4177,-3.4177,-3.4177,-3.4599,-3.5226,-3.562,-3.7419,-3.9815,-4.0398,-4.1771,-4.39,-4.6053,-4.6823,-4.7225,-4.9224,-5.0039,-4.9887,-4.9071,-4.9355,-4.9887,-4.9052,-4.9925,-5.1235,-5.1235,-5.4632,-5.8131,-5.8321,-6.1406,-6.4751,-6.6418,-6.6517,-6.6638,-6.8185,-6.8045,-6.8068,-6.903,-6.7568,-6.6514,-6.7325,-6.6647,-6.5646,-6.4621,-6.528,-6.5524,-6.4451,-6.5746,-6.7297,-6.9099,-7.0524,-7.2251,-7.3967,-7.4405,-7.4811,-7.5157,-7.4406,-7.4101,-7.4424,-7.3203,-7.2534,-7.2534,-7.2534,-7.2563,-7.2621,-7.2621,-7.265,-7.2708,-7.2708,-7.2708,-2.6902,-2.5614,-2.4498,-2.4817,-2.3933,-2.3083,-2.3387,-2.3217,-2.2759,-2.2538,-2.1744,-2.0727,-2.0278,-1.8391,-1.6543,-1.5511,-1.4147,-1.2913,-1.2304,-1.2583,-1.2654,-1.2524,-1.3143,-1.3094,0.0,0.0,0.0,-1.3688,-1.4276,-1.4669,-1.4669,-1.5514,-1.6792,-1.8487,-1.9653,-2.1877,-2.5192,-2.6694,-2.8996,-3.1926,-3.297,-3.3792,-3.4177,-3.4177,-3.4177,-3.4177,-3.4599,-3.5797,-3.7578,-3.8196,-3.9984,-4.2544,-4.4112,-4.5068,-4.6053,-4.8027,-4.8826,-4.8867,-4.8379,-4.8368,-4.833,-4.8027,-4.8121,-4.833,-4.8008,-4.8349,-4.9122,-5.1122,-5.3576,-5.6536,-5.9763,-6.2573,-6.5163,-6.7434,-6.7738,-6.7832,-6.8772,-6.8843,-6.8843,-6.9613,-6.7883,-6.6595,-6.7325,-6.6037,-6.4743,-6.4353,-6.5383,-6.6401,-6.7271,-6.802,-6.8969,-7.0677,-7.1316,-7.2401,-7.4113,-7.4579,-7.4868,-7.4984,-7.424,-7.3802,-7.4245,-7.3002,-7.247,-7.2708,-7.2708,-7.3116,-7.393,-7.393,-7.4366,-7.5239,-7.5239,-7.5239,-2.6236,-2.5427,-2.5023,-2.4954,-2.3814,-2.2897,-2.3888,-2.333,-2.2812,-2.2931,-2.2467,-2.1888,-2.1454,-1.993,-1.8396,-1.7705,-1.6322,-1.5098,-1.4597,-1.4233,-1.398,-1.3878,-1.3779,0.0,0.0,0.0,0.0,-1.5225,-1.5044,-1.5625,-1.6962,-1.7081,-1.8184,-2.0704,-2.1898,-2.4148,-2.7533,-2.8531,-2.988,-3.1996,-3.3236,-3.3939,-3.454,-3.4761,-3.4774,-3.4774,-3.6008,-3.7619,-3.9389,-4.0856,-4.3057,-4.5377,-4.6439,-4.7405,-4.8337,-4.8889,-4.9336,-4.9431,-4.8292,-4.7704,-4.7419,-4.7134,-4.7248,-4.74,-4.7134,-4.7438,-4.8408,-5.1202,-5.3628,-5.6308,-6.0629,-6.318,-6.514,-6.6686,-6.7267,-6.7337,-6.8063,-6.8134,-6.8415,-6.9355,-6.799,-6.6947,-6.7506,-6.5738,-6.4334,-6.4334,-6.5401,-6.6711,-6.8179,-6.8942,-6.9879,-7.1495,-7.1798,-7.2401,-7.4113,-7.4405,-7.4724,-7.4868,-7.4329,-7.4294,-7.4771,-7.3963,-7.3774,-7.4046,-7.4017,-7.4453,-7.5297,-7.5297,-7.5762,-7.6635,-7.6635,-7.6635,-2.532,-2.5561,-2.6529,-2.5552,-2.4279,-2.365,-2.4814,-2.3984,-2.3217,-2.3217,-2.3044,-2.2611,-2.2178,-2.0504,-1.9297,-1.9739,-1.8388,-1.73,-1.7841,-1.6522,-1.5644,-1.5945,-1.4627,-1.3791,0.0,-1.5032,-1.639,-1.7916,-1.6583,-1.7532,-2.1523,-2.0185,-2.0355,-2.2916,-2.5568,-2.7062,-2.7742,-3.0316,-3.1854,-3.2526,-3.369,-3.4381,-3.5029,-3.5701,-3.593,-3.6158,-3.846,-3.9888,-4.0673,-4.3438,-4.6312,-4.856,-4.7447,-4.8731,-5.095,-4.8406,-4.7989,-4.8691,-4.8653,-4.8102,-4.7267,-4.647,-4.6736,-4.7248,-4.647,-4.7381,-4.9357,-5.2203,-5.494,-5.7941,-6.0748,-6.313,-6.4699,-6.4699,-6.4699,-6.4956,-6.5915,-6.6148,-6.6452,-6.8021,-6.7617,-6.7092,-6.7434,-6.5896,-6.4534,-6.4486,-6.537,-6.63,-6.6701,-6.8205,-6.9879,-7.1647,-7.1798,-7.2401,-7.4113,-7.4259,-7.4405,-7.4724,-7.5128,-7.5558,-7.6013,-7.6324,-7.6494,-7.6635,-7.6635,-7.6635,-7.6635,-7.6635,-7.6635,-7.6635,-7.6635,-7.6635,-2.8334,-2.7245,0.0,-2.4889,-2.3994,-2.345,-2.3674,-2.2989,-2.2451,-2.2843,-2.2755,-2.2467,-2.1888,-2.1267,-2.0642,-1.9745,-1.9553,-1.9182,-1.8463,-1.7404,-1.6708,-1.651,-1.5369,-1.5397,-1.6966,-1.8898,-2.0198,-2.0571,-2.0389,-2.058,-2.1713,-2.1795,-2.3014,-2.5334,-2.671,-2.824,-3.0048,-3.0823,-3.1499,-3.2514,-3.3138,-3.3858,-3.5016,-3.5301,-3.6616,-3.846,-3.9084,-4.1558,-4.5062,-4.6312,-4.8051,-4.9917,-5.0096,-5.0108,-5.0134,-4.8178,-4.7609,-4.7723,-4.7134,-4.6375,-4.5616,-4.5407,-4.5483,-4.573,-4.6128,-4.6565,-4.7903,-5.2715,-5.5231,-5.7274,-6.1626,-6.3756,-6.4699,-6.4699,-6.4699,-6.4793,-6.505,-6.5681,-6.6265,-6.7102,-6.7121,-6.6855,-6.648,-6.5418,-6.4444,-6.3824,-6.5181,-6.6138,-6.5911,-6.8654,-7.1316,-7.3322,-7.3497,-7.3792,-7.4259,-7.4259,-7.4259,-7.4405,-7.455,-7.4695,-7.5157,-7.5586,-7.5842,-7.6154,-7.6465,-7.6635,-7.6635,-7.6635,-7.6635,-7.6635,-7.6635,-7.6635,-2.9331,-2.814,0.0,0.0,-2.3843,-2.3147,-2.4464,-2.3688,-2.2749,-2.3194,-2.3044,-2.2755,-2.2178,-2.1888,-2.1617,0.0,-2.1259,-2.1425,-2.0758,-1.9747,-1.8935,-1.8086,-1.7422,-1.7656,-1.923,-2.058,-2.1915,-2.2841,-2.2282,-2.2472,-2.4184,-2.3904,-2.4949,-2.7541,-2.8114,-2.9216,-3.089,-3.1102,-3.157,-3.2078,-3.3297,-3.4234,-3.4609,-3.5637,-3.7111,-3.9479,-4.1378,-4.4187,-4.7827,-4.8647,-4.9945,-5.1374,-5.0965,-5.0684,-5.0304,-4.8216,-4.7248,-4.6888,-4.6413,-4.5692,-4.497,-4.497,-4.497,-4.5141,-4.5995,-4.6746,-4.8447,-5.3337,-5.5635,-5.752,-6.1478,-6.2946,-6.339,-6.339,-6.339,-6.3507,-6.3975,-6.4863,-6.5681,-6.6447,-6.6893,-6.7172,-6.6767,-6.5797,-6.5122,-6.4795,-6.6231,-6.7488,-6.7881,-7.0487,-7.2649,-7.4141,-7.4259,-7.4259,-7.4259,-7.4259,-7.4259,-7.4259,-7.4405,-7.4724,-7.5128,-7.5415,-7.5842,-7.6183,-7.6465,-7.6635,-7.6635,-7.6635,-7.6635,-7.6635,-7.6635,-7.6465,-2.9015,-2.8171,0.0,-2.5687,-2.3732,-2.2832,0.0,0.0,-2.3072,-2.3443,-2.3247,-2.2885,-2.2632,-2.2238,-2.2129,-2.2232,-2.276,-2.3265,-2.3781,-2.2638,-2.1408,-2.0083,-2.0205,-2.0727,-2.1097,-2.1438,-2.2572,-2.4832,-2.3398,-2.3995,-2.7606,-2.613,-2.6402,-2.933,-2.9424,-2.994,-3.0961,-3.1418,-3.17,-3.1829,-3.3805,-3.472,-3.4399,-3.5907,-3.7579,-3.9452,-4.3883,-4.6917,-4.9069,-5.0388,-5.1537,-5.2403,-5.0527,-5.0361,-5.0589,-4.8311,-4.6944,-4.6242,-4.6242,-4.5692,-4.497,-4.497,-4.497,-4.5141,-4.5995,-4.7479,-4.9756,-5.3533,-5.5856,-5.7875,-6.0772,-6.1544,-6.1544,-6.1544,-6.1544,-6.1824,-6.2782,-6.3811,-6.4839,-6.5821,-6.6826,-6.7527,-6.7527,-6.6779,-6.6247,-6.66,-6.7929,-6.9454,-7.0754,-7.249,-7.3664,-7.4028,-7.4248,-7.4485,-7.4485,-7.4344,-7.4259,-7.4259,-7.4579,-7.5013,-7.5272,-7.57,-7.6154,-7.6465,-7.6494,-7.6635,-7.6635,-7.6635,-7.6635,-7.6465,-7.6635,-7.6093,0.0,0.0,0.0,0.0,0.0,0.0,0.0,0.0,-2.0526,-2.1535,-2.0899,-2.0425,-2.1449,-2.127,-2.1153,-2.1669,-2.2209,-2.2737,-2.3253,-2.2146,-2.1167,-2.0931,-2.2946,-2.3831,-2.2589,-2.4538,-2.5962,-2.6612,-2.662,-2.7023,-2.7793,-2.7825,-2.8334,-2.9342,-2.9764,-3.0468,-3.1489,-3.1594,-3.2075,-3.292,-3.3331,-3.406,-3.5474,-3.5536,-3.7319,-4.1009,-4.3838,-4.6161,-4.8511,-5.0809,-5.1187,-5.0206,-5.0075,-4.9093,-4.7612,-4.7467,-4.6944,-4.6242,-4.6242,-4.5692,-4.497,-4.497,-4.497,-4.5141,-4.5995,-4.705,-4.8806,-5.3371,-5.5256,-5.6945,-6.0589,-6.1544,-6.1544,-6.1544,-6.1544,-6.1614,-6.1824,-6.2712,-6.3764,-6.4793,-6.5798,-6.6476,-6.6476,-6.6312,-6.656,-6.825,-6.9034,-6.9592,-6.937,-7.1137,-7.2615,-7.2914,-7.4648,-7.5839,-7.5839,-7.4852,-7.4259,-7.4259,-7.4259,-7.4405,-7.4405,-7.5128,-7.5558,-7.57,-7.6324,-7.6635,-7.6635,-7.6635,-7.6465,-7.6154,-7.6465,-7.4673,0.0,0.0,0.0,0.0,0.0,0.0,0.0,0.0,0.0,0.0,0.0,-1.9789,0.0,0.0,-2.0676,-2.1434,-2.2056,-2.2502,-2.276,-2.2652,-2.2471,-2.2471,-2.3735,-2.4584,-2.4225,-2.5658,-2.6761,-2.7007,-2.7512,-2.7793,-2.7793,-2.8051,-2.8438,-2.8966,-2.9729,-3.0492,-3.1266,-3.1794,-3.2322,-3.2838,-3.3475,-3.406,-3.5005,-3.5398,-3.778,-4.1937,-4.3563,-4.57,-4.8433,-5.0093,-4.9727,-4.7953,-4.7878,-4.7249,-4.6457,-4.62,-4.5957,-4.5616,-4.5616,-4.5331,-4.497,-4.497,-4.497,-4.5141,-4.5995,-4.7209,-4.9156,-5.3463,-5.5592,-5.73,-6.0692,-6.1544,-6.1544,-6.1544,-6.1544,-6.1544,-6.1544,-6.2409,-6.332,-6.3858,-6.5143,-6.6172,-6.6172,-6.6172,-6.6855,-6.9292,-7.1118,-7.244,-7.2862,-7.474,-7.519,-7.2846,-7.3619,-7.4118,-7.3441,-7.2792,-7.2933,-7.4174,-7.4259,-7.4405,-7.4811,-7.5243,-7.5558,-7.6013,-7.5826,-7.5326,-7.4657,-7.4075,-7.3272,-7.2173,-7.2231,-7.1433,0.0,0.0,0.0,0.0,0.0,0.0,0.0,0.0,0.0,0.0,0.0,0.0,0.0,0.0,0.0,-2.1211,-2.1904,-2.2291,-2.2396,-2.3124,-2.3675,-2.3781,-2.3875,-2.4309,-2.5259,-2.5916,-2.6444,-2.6855,-2.7453,-2.7793,-2.7793,-2.7793,-2.8086,-2.8732,-2.9647,-3.0468,-3.1184,-3.2134,-3.2662,-3.2768,0.0,0.0,-3.4523,-3.5273,-3.8177,-4.279,-4.3099,-4.5144,-4.8196,-4.8499,-4.789,-4.634,-4.5297,-4.5298,-4.5746,-4.5065,-4.497,-4.497,-4.497,-4.497,-4.497,-4.497,-4.497,-4.5103,-4.5787,-4.7457,0.0,-5.3069,-5.5658,-5.7867,-6.0665,-6.1403,-6.1544,-6.1544,-6.1544,-6.1544,-6.1544,-6.2245,-6.2923,-6.3133,-6.4489,-6.5657,-6.5844,-6.6052,-6.7055,-6.9402,-7.2074,-7.4351,-7.5693,-7.7625,-7.734,-7.3539,-7.3212,-7.282,-7.1748,-7.124,-7.1889,-7.4118,-7.4033,-7.4097,-7.4414,-7.4528,-7.4981,-7.56,-7.4172,-7.3261,-7.2708,-7.1254,-6.9689,-6.8334,-6.6285,-6.6063,0.0,0.0,0.0,0.0,0.0,0.0,0.0,0.0,0.0,0.0,0.0,0.0,0.0,0.0,0.0,0.0,-2.1352,-2.1857,-2.235,-2.2514,-2.276,-2.3206,-2.3663,-2.4156,-2.4731,-2.5681,-2.6291,-2.635,-2.7242,-2.7793,-2.7793,0.0,0.0,0.0,0.0,-3.082,-3.2275,-3.285,-3.3366,-3.3812,-3.387,-3.4552,-3.561,-3.519,-3.8204,-4.3423,-4.2104,-4.4212,-4.8071,-4.6716,-4.6192,-4.6304,-4.3631,-4.3061,-4.3905,-4.4668,-4.497,-4.497,-4.497,0.0,0.0,-4.497,-4.497,-4.5008,-4.5084,-4.6797,-4.927,-5.1508,-5.4462,-5.7731,-5.9636,-6.0866,-6.1544,-6.1544,-6.1544,-6.1544,-6.1544,-6.1661,-6.2011,-6.2993,-6.3367,-6.3788,-6.4723,-6.6182,-6.7633,-6.8384,-6.9944,-7.1667,-7.2752,-7.4224,-7.519,-7.4987,0.0,0.0,-7.5585,-7.3554,-7.2877,-7.4174,-7.33,-7.22,-7.1182,-7.1432,-7.1817,-7.2228,-7.0239,-7.0326,-7.2708,-7.0036,-6.8408,-6.7707,-5.9657,-5.7207,0.0,0.0,0.0,0.0,0.0,0.0,0.0,0.0,0.0,0.0,0.0,0.0,0.0,0.0,0.0,0.0,-2.0578,-2.0906,-2.1423,-2.2033,-2.2608,-2.3112,-2.3628,-2.4133,-2.4649,-2.5376,-2.5951,-2.6245,-2.6937,-2.7476,-2.7781,-2.7793,-2.7993,-2.8438,-2.9541,-3.0445,-3.1102,-3.2216,-3.2885,-3.3096,-3.3306,-3.3972,-3.4869,-3.4853,-3.7298,0.0,-4.1399,-4.3001,-4.5548,-4.5172,-4.4809,0.0,0.0,0.0,0.0,0.0,-4.4649,-4.497,-4.497,-4.497,-4.497,-4.497,-4.497,-4.497,-4.497,-4.6369,-4.8581,-5.1107,-5.3504,-5.6268,-5.9363,-6.0352,-6.0819,-6.1403,-6.1544,-6.1544,-6.1544,-6.1544,-6.1684,-6.2151,-6.2759,0.0,-6.2923,-6.4025,-6.5787,-6.8131,-6.9855,-7.1755,-7.4169,-7.5474,-7.5421,-7.3474,-7.3729,-7.3751,-7.299,-7.2002,0.0,0.0,0.0,-7.33,-7.2736,-7.3021,0.0,0.0,0.0,0.0,0.0,0.0,0.0,0.0,-5.4915,-5.4298,0.0,0.0,0.0,0.0,0.0,0.0,0.0,0.0,0.0,0.0,0.0,0.0,0.0,0.0,0.0,0.0,0.0,-2.0249,-2.0766,-2.1751,-2.2608,-2.3112,-2.3628,-2.4086,-2.445,-2.5107,-2.5658,-2.6033,-2.6667,-2.7183,-2.7559,-2.7711,-2.7864,-2.8016,-2.926,-3.0046,-3.0339,-3.1606,-3.2322,-3.2463,-3.3092,-3.3526,-3.4201,-3.5306,-3.7027,-3.977,-4.0936,-4.235,-4.3553,-4.3774,-4.3615,-4.3027,-4.2822,-4.2779,-4.3125,-4.3794,-4.4308,-4.4819,-4.48,-4.497,-4.497,-4.497,-4.497,-4.497,-4.497,-4.6452,-4.8717,-5.0685,-5.307,-5.5793,-5.8433,-5.9393,-5.9861,-6.0889,-6.1123,-6.1216,-6.1497,-6.1544,-6.1544,-6.1544,-6.2175,-6.2479,-6.1684,-6.2694,-6.4428,-6.7196,-6.9263,0.0,-7.4404,-7.5426,-7.505,-7.2693,-7.273,-7.248,-7.1663,-7.1297,-7.2002,-7.4118,-7.3949,-7.3921,-7.4231,-7.3899,-7.2992,-7.1417,-6.7493,-6.3209,0.0,0.0,0.0,0.0,0.0,0.0,0.0,0.0,0.0,0.0,0.0,0.0,0.0,0.0,0.0,0.0,0.0,0.0,0.0,0.0,0.0,0.0,0.0,0.0,-2.0766,-2.1751,-2.2608,-2.3112,-2.3628,-2.3945,-2.3957,-2.4895,-2.5517,-2.5541,-2.6456,-2.7042,-2.7054,-2.7523,-2.804,-2.8567,-2.9107,-2.987,-3.0855,-3.1442,-3.197,-3.2463,-3.3092,-3.3526,-3.4177,-3.6336,-3.8426,-4.0199,-4.0961,-4.2195,-4.3258,-4.2477,-4.2314,-4.2278,-4.226,-4.2433,-4.2952,-4.3451,-4.3965,-4.4326,-4.4819,-4.497,-4.497,-4.497,-4.497,-4.497,-4.497,-4.7268,-5.0047,-5.023,-5.3374,-5.6962,-5.7032,-5.778,-5.8786,-5.9814,-6.0071,-6.0352,-6.1333,-6.1544,-6.1544,-6.1544,-6.1567,-6.159,-6.1544,-6.303,-6.4288,-6.4971,-6.7556,0.0,-7.0729,-7.1905,-7.2866,-7.3553,-7.3701,-7.3792,-7.4146,-7.3102,-7.299,-7.4174,-7.3187,-7.3074,-7.4231,-7.1946,-7.0648,-7.0591,-6.5968,-6.1964,-5.8678,0.0,0.0,0.0,0.0,0.0,0.0,0.0,0.0,0.0,0.0,0.0,0.0,0.0,0.0,0.0,0.0,0.0,0.0,0.0,0.0,0.0,0.0,0.0,0.0,0.0,-2.2608,-2.3112,-2.3323,-2.3429,-2.3429,-2.4062,-2.4602,-2.4942,-2.5623,-2.6174,-2.6514,-2.669,-2.7019,-2.7547,-2.8051,-2.8661,-2.9365,-2.9893,-3.0245,-3.0421,-3.1562,-3.2154,-3.2038,-3.4016,-3.557,-3.7097,-3.8281,-3.9763,-4.1311,-4.1845,-4.1636,-4.0727,-4.1244,-4.1137,-4.1079,-4.1938,-4.2644,-4.3094,-4.2831,-4.3349,-4.4173,-4.4173,-4.4173,-4.4173,-4.4173,-4.6973,-4.9954,-4.8723,-5.1571,-5.5069,-5.577,-5.6191,-5.6892,-5.8599,-5.8996,-5.9089,-5.944,-6.0048,-6.0539,-6.0539,-5.9978,-5.9395,-5.8736,-6.0833,-6.2808,-6.4018,-6.6155,-6.8497,-7.1156,-7.2113,-7.2661,-7.3285,-7.3581,-7.3876,-7.4259,-7.3892,-7.3836,-7.4231,-7.3892,-7.3836,-7.4231,-7.3469,-7.2398,-7.0896,-6.7685,-6.2734,-5.5988,0.0,0.0,0.0,0.0,0.0,0.0,0.0,0.0,0.0,0.0,0.0,0.0,0.0,0.0,0.0,0.0,0.0,0.0,0.0,0.0,0.0,0.0,0.0,0.0,0.0,0.0,-2.2866,-2.2901,0.0,-2.2385,-2.2807,-2.3241,-2.357,-2.4438,-2.5177,-2.5681,-2.6069,-2.6421,-2.6749,-2.7078,-2.75,-2.804,-2.8368,-2.872,-2.9107,-3.0201,-3.0865,-3.0926,-3.2827,-3.4304,-3.5768,-3.6561,-3.8091,-4.0137,-4.1294,-4.1038,-4.0161,-4.0442,-4.0317,-3.9943,-4.1104,-4.1526,-4.169,-4.2158,-4.2852,-4.3338,-4.3338,-4.292,-4.2408,-4.2408,-4.4888,-4.7534,-4.6815,-4.9541,-5.2989,-5.4064,-5.4321,-5.4859,-5.6892,-5.7406,-5.7593,-5.8341,-5.8715,-5.8809,-5.8272,-5.8435,-5.8263,-5.7323,-5.9249,-6.1621,-6.3698,-6.5439,-6.7884,-7.1386,-7.221,-7.2511,-7.2987,-7.3285,-7.3701,-7.4259,-7.4259,-7.4259,-7.4259,-7.4259,-7.4259,-7.4259,-7.3557,-7.2086,-6.9757,-6.5997,-6.091,0.0,0.0,0.0,0.0,0.0,0.0,0.0,0.0,0.0,0.0,0.0,0.0,0.0,0.0,0.0,0.0,0.0,0.0,0.0,0.0,0.0,0.0,0.0,0.0,0.0,0.0,0.0,-2.2408,-2.235,0.0,0.0,0.0,0.0,-2.1481,-2.2889,-2.3957,-2.4473,-2.5482,-2.608,-2.6151,-2.6174,-2.6444,-2.6984,-2.6995,-2.75,-2.8485,-2.9059,-2.9695,-3.074,-3.2847,-3.4487,-3.5861,-3.5908,-3.7305,-3.9509,-4.0017,-4.0344,-4.029,-3.9856,-3.9604,-3.9551,-4.0613,-4.0499,-4.0206,-4.2445,-4.2787,-4.2332,-4.2389,-4.1364,-4.0073,-3.9883,-4.134,0.0,0.0,-4.7406,-5.0698,-5.1675,-5.2002,-5.2561,-5.4635,-5.5102,-5.5794,-5.7757,-5.75,-5.6337,0.0,-5.6272,-5.7674,-5.6552,0.0,-6.0294,-6.3114,-6.5047,-6.7586,-7.1252,-7.1826,-7.221,-7.296,-7.3136,-7.3405,-7.4259,-7.4259,-7.4259,-7.4259,-7.4259,-7.4203,-7.409,-7.2141,-6.9693,-6.6891,-6.117,0.0,0.0,0.0,0.0,0.0,0.0,0.0,0.0,0.0,0.0,0.0,0.0,0.0,0.0,0.0,0.0,0.0,0.0,0.0,0.0,0.0,0.0,0.0,0.0,0.0,0.0,-2.0836,-2.1829,-2.2326,-2.1519,-2.0692,0.0,0.0,0.0,0.0,0.0,0.0,-2.1798,-2.2443,-2.3323,-2.4496,-2.4907,-2.5541,-2.6456,-2.6467,-2.6596,-2.6866,-2.7802,-2.8045,-2.7985,-2.9296,-3.0893,-3.2604,-3.4385,-3.482,-3.4267,-3.5109,-3.5883,-3.6617,-3.6432,-3.5701,-3.4863,-3.721,-3.7691,-3.7585,-3.969,-3.992,-3.956,-4.0376,0.0,-4.1345,-3.8421,0.0,0.0,0.0,0.0,-4.6239,-4.8024,-4.8905,-4.9684,-5.1729,-5.2188,-5.2349,-5.2855,-5.4267,-5.4273,0.0,-4.981,-4.9448,-4.7165,0.0,0.0,0.0,0.0,-6.4709,-6.8731,-7.0788,-7.221,-7.296,-7.3136,-7.3405,-7.4259,-7.4259,-7.4259,-7.4259,-7.4259,-7.3585,-7.2027,-6.9587,-6.5883,-6.1002,0.0,0.0,0.0,0.0,0.0,0.0,0.0,0.0,0.0,0.0,0.0,0.0,0.0,0.0,0.0,0.0,0.0,0.0,0.0,0.0,0.0,0.0,0.0,0.0,0.0,0.0,0.0,-1.9552,-2.0465,-2.0799,-2.001,-1.9364,0.0,0.0,0.0,0.0,0.0,0.0,0.0,0.0,0.0,-2.2877,-2.3194,-2.3628,-2.4215,-2.4684,-2.5024,-2.5259,-2.6359,-2.6868,-2.7324,-2.7724,-2.9463,-3.2205,-3.2472,-3.2624,-3.2536,-3.4677,-3.5249,-3.4809,0.0,0.0,0.0,0.0,-3.3739,-3.3278,-3.4467,-3.3856,0.0,-3.8345,0.0,0.0,0.0,0.0,0.0,0.0,0.0,0.0,0.0,0.0,0.0,-5.0106,-5.0641,-5.0879,-5.1338,-5.0235,-4.8466,0.0,-4.5575,-4.5518,-4.3994,0.0,0.0,0.0,0.0,-6.1933,-6.6905,-7.0105,-7.221,-7.296,-7.3608,-7.3991,-7.4316,-7.4767,-7.4852,-7.4287,-7.3243,-7.1691,-6.9502,-6.5513,-6.0827,0.0,0.0,0.0,0.0,0.0,0.0,0.0,0.0,0.0,0.0,0.0,0.0,0.0,0.0,0.0,0.0,0.0,0.0,0.0,0.0,0.0,0.0,0.0,0.0,0.0,0.0,0.0,0.0,0.0,-1.8817,-1.9034,0.0,0.0,0.0,0.0,0.0,0.0,0.0,0.0,0.0,0.0,0.0,0.0,0.0,-2.1329,-2.1399,-2.2373,-2.3089,-2.3534,-2.4532,-2.555,-2.6812,-2.6345,-2.8499,-3.2352,-3.0582,0.0,-3.2784,-3.5436,0.0,0.0,0.0,0.0,0.0,0.0,0.0,0.0,0.0,0.0,0.0,0.0,0.0,0.0,0.0,0.0,0.0,0.0,0.0,0.0,0.0,0.0,-4.7478,-4.8484,-4.9014,-4.9431,0.0,-4.5577,-4.1617,-4.1293,-4.22,0.0,0.0,0.0,0.0,0.0,0.0,0.0,-6.5326,-6.9477,-7.2265,-7.3181,-7.4164,-7.4632,-7.4423,-7.5247,-7.5162,-7.3836,-7.1127,-6.8553,-6.6181,-6.0827,0.0,0.0,0.0,0.0,0.0,0.0,0.0,0.0,0.0,0.0,0.0,0.0,0.0,0.0,0.0,0.0,0.0,0.0,0.0,0.0,0.0,0.0,0.0,0.0,0.0,0.0,0.0,0.0,0.0,0.0,0.0,0.0,0.0,0.0,0.0,0.0,0.0,0.0,0.0,0.0,0.0,0.0,0.0,0.0,0.0,0.0,0.0,0.0,0.0,0.0,-2.1986,-2.2326,-2.2547,-2.2799,-2.4876,-2.8109,-2.8746,-3.0135,-3.2199,0.0,0.0,0.0,0.0,0.0,0.0,0.0,0.0,0.0,0.0,0.0,0.0,0.0,0.0,0.0,0.0,0.0,0.0,0.0,0.0,0.0,0.0,0.0,0.0,0.0,-4.3934,-4.4379,0.0,0.0,0.0,0.0,0.0,0.0,0.0,0.0,0.0,0.0,0.0,0.0,-6.295,-6.8467,-7.2415,-7.3888,-7.3612,-7.3897,-7.5072,-7.4,-7.2623,-7.1297,-6.7083,-6.3201,0.0,0.0,0.0,0.0,0.0,0.0,0.0,0.0,0.0,0.0,0.0,0.0,0.0,0.0,0.0,0.0,0.0,0.0,0.0,0.0,0.0,0.0,0.0,0.0,0.0,0.0,0.0,0.0,0.0,0.0,0.0,0.0,0.0,0.0,0.0,0.0,0.0,0.0,0.0,0.0,0.0,0.0,0.0,0.0,0.0,0.0,0.0,0.0,0.0,0.0,0.0,0.0,0.0,0.0,0.0,0.0,0.0,0.0,0.0,-2.8514,0.0,0.0,0.0,0.0,0.0,0.0,0.0,0.0,0.0,0.0,0.0,0.0,0.0,0.0,0.0,0.0,0.0,0.0,0.0,0.0,0.0,0.0,0.0,0.0,0.0,0.0,0.0,0.0,0.0,0.0,0.0,0.0,0.0,0.0,0.0,0.0,0.0,0.0,0.0,0.0,-6.1366,-6.7265,-7.1744,-7.3406,-7.3874,-7.4102,-7.3848,-7.3043,-7.0873,-6.7008,-6.2786,0.0,0.0,0.0,0.0,0.0,0.0,0.0,0.0,0.0,0.0,0.0,0.0,0.0,0.0,0.0,0.0,0.0,0.0,0.0,0.0,0.0,0.0,0.0,0.0,0.0,0.0,0.0,0.0,0.0,0.0,0.0,0.0,0.0,0.0,0.0,0.0,0.0,0.0,0.0,0.0,0.0,0.0,0.0,0.0,0.0,0.0,0.0,0.0,0.0,0.0,0.0,0.0,0.0,0.0,0.0,0.0,0.0,0.0,0.0,-2.5992,0.0,0.0,0.0,0.0,0.0,0.0,0.0,0.0,0.0,0.0,0.0,0.0,0.0,0.0,0.0,0.0,0.0,0.0,0.0,0.0,0.0,0.0,0.0,0.0,0.0,0.0,0.0,0.0,0.0,0.0,0.0,0.0,0.0,0.0,0.0,0.0,0.0,0.0,0.0,0.0,0.0,-6.0055,-6.6255,-7.0976,-7.3059,-7.3985,-7.4186,-7.3124,-7.217,-6.9152,-6.3171,-5.8773,0.0,0.0,0.0,0.0,0.0,0.0,0.0,0.0,0.0,0.0,0.0,0.0,0.0,0.0,0.0,0.0,0.0,0.0,0.0,0.0,0.0,0.0,0.0,0.0,0.0,0.0,0.0,0.0,0.0,0.0,0.0,0.0,0.0,0.0,0.0,0.0,0.0,0.0,0.0,0.0,0.0,0.0,0.0,0.0,0.0,0.0,0.0,0.0,0.0,0.0,0.0,0.0,0.0,0.0,0.0,0.0,0.0,0.0,0.0,0.0,0.0,0.0,0.0,0.0,0.0,0.0,0.0,0.0,0.0,0.0,0.0,0.0,0.0,0.0,0.0,0.0,0.0,0.0,0.0,0.0,0.0,0.0,0.0,0.0,0.0,0.0,0.0,0.0,0.0,0.0,0.0,0.0,0.0,0.0,0.0,0.0,0.0,0.0,0.0,0.0,0.0,-5.8881,-6.5708,-7.1006,-7.3427,-7.3406,-7.3636,-7.4525,-7.1268,-6.6895,-6.176,0.0,0.0,0.0,0.0,0.0,0.0,0.0,0.0,0.0,0.0,0.0,0.0,0.0,0.0,0.0,0.0,0.0,0.0,0.0,0.0,0.0,0.0,0.0,0.0,0.0,0.0,0.0,0.0,0.0,0.0,0.0,0.0,0.0,0.0,0.0,0.0,0.0,0.0,0.0,0.0,0.0,0.0,0.0,0.0,0.0,0.0,0.0,0.0,0.0,0.0,0.0,0.0,0.0,0.0,0.0,0.0,0.0,0.0,0.0,0.0,0.0,0.0,0.0,0.0,0.0,0.0,0.0,0.0,0.0,0.0,0.0,0.0,0.0,0.0,0.0,0.0,0.0,0.0,0.0,0.0,0.0,0.0,0.0,0.0,0.0,0.0,0.0,0.0,0.0,0.0,0.0,0.0,0.0,0.0,0.0,0.0,0.0,0.0,0.0,0.0,0.0,0.0,-5.8526,-6.4397,-6.9322,-7.2567,-7.3115,-7.272,-7.2011,-6.9358,-6.4215,-5.6394,0.0,0.0,0.0,0.0,0.0,0.0,0.0,0.0,0.0,0.0,0.0,0.0,0.0,0.0,0.0,0.0,0.0,0.0,0.0,0.0,0.0,0.0,0.0,0.0,0.0,0.0,0.0,0.0,0.0,0.0,0.0,0.0,0.0,0.0,0.0,0.0,0.0,0.0,0.0,0.0,0.0,0.0,0.0,0.0,0.0,0.0,0.0,0.0,0.0,0.0,0.0,0.0,0.0,0.0,0.0,0.0,0.0,0.0,0.0,0.0,0.0,0.0,0.0,0.0,0.0,0.0,0.0,0.0,0.0,0.0,0.0,0.0,0.0,0.0,0.0,0.0,0.0,0.0,0.0,0.0,0.0,0.0,0.0,0.0,0.0,0.0,0.0,0.0,0.0,0.0,0.0,0.0,0.0,0.0,0.0,0.0,0.0,0.0,0.0,0.0,0.0,0.0,-5.7925,-6.336,-6.792,-7.1976,-7.2357,-7.1887,-7.0564,-6.8098,-6.2822,-5.3873,0.0,0.0,0.0,0.0,0.0,0.0,0.0,0.0,0.0,0.0,0.0,0.0,0.0,0.0,0.0,0.0,0.0,0.0,0.0,0.0,0.0,0.0,0.0,0.0,0.0,0.0,0.0,0.0,0.0,0.0,0.0,0.0,0.0,0.0,0.0,0.0,0.0,0.0,0.0,0.0,0.0,0.0,0.0,0.0,0.0,0.0,0.0,0.0,0.0,0.0,0.0,0.0,0.0,0.0,0.0,0.0,0.0,0.0,0.0,0.0,0.0,0.0,0.0,0.0,0.0,0.0,0.0,0.0,0.0,0.0,0.0,0.0,0.0,0.0,0.0,0.0,0.0,0.0,0.0,0.0,0.0,0.0,0.0,0.0,0.0,0.0,0.0,0.0,0.0,0.0,0.0,0.0,0.0,0.0,0.0,0.0,0.0,0.0,0.0,0.0,0.0,0.0,-5.6778,-6.2841,-6.792,-7.1498,-7.1289,-7.0867,-7.1304,-6.8192,-6.3302,0.0,0.0,0.0,0.0,0.0,0.0,0.0,0.0,0.0,0.0,0.0,0.0,0.0,0.0,0.0,0.0,0.0,0.0,0.0,0.0,0.0,0.0,0.0,0.0,0.0,0.0,0.0,0.0,0.0,0.0,0.0,0.0,0.0,0.0,0.0,0.0,0.0,0.0,0.0,0.0,0.0,0.0,0.0,0.0,0.0,0.0,0.0,0.0,0.0,0.0,0.0,0.0,0.0,0.0,0.0,0.0,0.0,0.0,0.0,0.0,0.0,0.0,0.0,0.0,0.0,0.0,0.0,0.0,0.0,0.0,0.0,0.0,0.0,0.0,0.0,0.0,0.0,0.0,0.0,0.0,0.0,0.0,0.0,0.0,0.0,0.0,0.0,0.0,0.0,0.0,0.0,0.0,0.0,0.0,0.0,0.0,0.0,0.0,0.0,0.0,0.0,0.0,0.0,-5.645,-6.0683,-6.5217,0.0,-7.1289,-7.0536,-6.9995,-6.6965,-6.2192,-5.5176,0.0,0.0,0.0,0.0,0.0,0.0,0.0,0.0,0.0,0.0,0.0,0.0,0.0,0.0,0.0,0.0,0.0,0.0,0.0,0.0,0.0,0.0,0.0,0.0,0.0,0.0,0.0,0.0,0.0,0.0,0.0,0.0,0.0,0.0,0.0,0.0,0.0,0.0,0.0,0.0,0.0,0.0,0.0,0.0,0.0,0.0,0.0,0.0,0.0,0.0,0.0,0.0,0.0,0.0,0.0,0.0,0.0,0.0,0.0,0.0,0.0,0.0,0.0,0.0,0.0,0.0,0.0,0.0,0.0,0.0,0.0,0.0,0.0,0.0,0.0,0.0,0.0,0.0,0.0,0.0,0.0,0.0,0.0,0.0,0.0,0.0,0.0,0.0,0.0,0.0,0.0,0.0,0.0,0.0,0.0,0.0,0.0,0.0,0.0,0.0,0.0,0.0,0.0,-5.9919,-6.4425,0.0,-6.9906,-6.9344,-6.8111,-6.5689,-6.1479,-5.4716,0.0,0.0,0.0,0.0,0.0,0.0,0.0,0.0,0.0,0.0,0.0,0.0,0.0,0.0,0.0,0.0,0.0,0.0,0.0,0.0,0.0,0.0,0.0,0.0,0.0,0.0,0.0,0.0,0.0,0.0,0.0,0.0,0.0,0.0,0.0,0.0,0.0,0.0,0.0,0.0,0.0,0.0,0.0,0.0,0.0,0.0,0.0,0.0,0.0,0.0,0.0,0.0,0.0,0.0,0.0,0.0,0.0,0.0,0.0,0.0,0.0,0.0,0.0,0.0,0.0,0.0,0.0,0.0,0.0,0.0,0.0,0.0,0.0,0.0,0.0,0.0,0.0,0.0,0.0,0.0,0.0,0.0,0.0,0.0,0.0,0.0,0.0,0.0,0.0,0.0,0.0,0.0,0.0,0.0,0.0,0.0,0.0,0.0,0.0,0.0,0.0,0.0,0.0,-6.011,-6.4807,-6.6282,-6.7347,-6.7328,-6.5728,-6.4473,-6.1038,-5.4581,-5.1965,0.0,0.0,0.0,0.0,0.0,0.0,0.0,0.0,0.0,0.0,0.0,0.0,0.0,0.0,0.0,0.0,0.0,0.0,0.0,0.0,0.0,0.0,0.0,0.0,0.0,0.0,0.0,0.0,0.0,0.0,0.0,0.0,0.0,0.0,0.0,0.0,0.0,0.0,0.0,0.0,0.0,0.0,0.0,0.0,0.0,0.0,0.0,0.0,0.0,0.0,0.0,0.0,0.0,0.0,0.0,0.0,0.0,0.0,0.0,0.0,0.0,0.0,0.0,0.0,0.0,0.0,0.0,0.0,0.0,0.0,0.0,0.0,0.0,0.0,0.0,0.0,0.0,0.0,0.0,0.0,0.0,0.0,0.0,0.0,0.0,0.0,0.0,0.0,0.0,0.0,0.0,0.0,0.0,0.0,0.0,0.0,0.0,0.0,0.0,0.0,0.0,0.0,-5.8198,-6.0765,-6.4752,-6.4616,-6.415,-6.4134,-6.2192,-5.9076,-5.4064,-5.0983,0.0,0.0,0.0,0.0,0.0,0.0,0.0,0.0,0.0,0.0,0.0,0.0,0.0,0.0,0.0,0.0,0.0,0.0,0.0,0.0,0.0,0.0,0.0,0.0,0.0,0.0,0.0,0.0,0.0,0.0,0.0,0.0,0.0,0.0,0.0,0.0,0.0,0.0,0.0,0.0,0.0,0.0,0.0,0.0,0.0,0.0,0.0,0.0,0.0,0.0,0.0,0.0,0.0,0.0,0.0,0.0,0.0,0.0,0.0,0.0,0.0,0.0,0.0,0.0,0.0,0.0,0.0,0.0,0.0,0.0,0.0,0.0,0.0,0.0,0.0,0.0,0.0,0.0,0.0,0.0,0.0,0.0,0.0,0.0,0.0,0.0,0.0,0.0,0.0,0.0,0.0,0.0,0.0,0.0,0.0,0.0,0.0,0.0,0.0,0.0,0.0,0.0,-5.1925,-5.4712,-6.0669,-6.2279,-6.254,-6.1291,-6.0614,-5.7976,-5.2451,-5.0065,0.0,0.0,0.0,0.0,0.0,0.0,0.0,0.0,0.0,0.0,0.0,0.0,0.0,0.0,0.0,0.0,0.0,0.0,0.0,0.0,0.0,0.0,0.0,0.0,0.0,0.0,0.0,0.0,0.0,0.0,0.0,0.0,0.0,0.0,0.0,0.0,0.0,0.0,0.0,0.0,0.0,0.0,0.0,0.0,0.0,0.0,0.0,0.0,0.0,0.0,0.0,0.0,0.0,0.0,0.0,0.0,0.0,0.0,0.0,0.0,0.0,0.0,0.0,0.0,0.0,0.0,0.0,0.0,0.0,0.0,0.0,0.0,0.0,0.0,0.0,0.0,0.0,0.0,0.0,0.0,0.0,0.0,0.0,0.0,0.0,0.0,0.0,0.0,0.0,0.0,0.0,0.0,0.0,0.0,0.0,0.0,0.0,0.0,0.0,0.0,0.0,0.0,0.0,-4.9773,-5.6156,-6.004,-6.1052,-5.8074,-5.9169,-5.7069,-5.0333,0.0,0.0,0.0,0.0,0.0,0.0,0.0,0.0,0.0,0.0,0.0,0.0,0.0,0.0,0.0,0.0,0.0,0.0,0.0,0.0,0.0,0.0,0.0,0.0,0.0,0.0,0.0,0.0,0.0,0.0,0.0,0.0,0.0,0.0,0.0,0.0,0.0,0.0,0.0,0.0,0.0,0.0,0.0,0.0,0.0,0.0,0.0,0.0,0.0,0.0,0.0,0.0,0.0,0.0,0.0,0.0,0.0,0.0,0.0,0.0,0.0,0.0,0.0,0.0,0.0,0.0,0.0,0.0,0.0,0.0,0.0,0.0,0.0,0.0,0.0,0.0,0.0,0.0,0.0,0.0,0.0,0.0,0.0,0.0,0.0,0.0,0.0,0.0,0.0,0.0,0.0,0.0,0.0,0.0,0.0,0.0,0.0,0.0,0.0,0.0,0.0,0.0,0.0,0.0,0.0,-5.4335,-5.6822,-5.7705,-5.5978,-5.7639,-5.5684,-4.8293,0.0,0.0,0.0,0.0,0.0,0.0,0.0,0.0,0.0,0.0,0.0,0.0,0.0,0.0]}]]]